GFSSGP_925_thetae_000.txt.gz
Theta_e
323 320 319 320 326 327 332 335 331 334 330 322 322 323 324 324 325 321 332 336 334 336 335 337 341 342 339 338 335 334 332 330 329 331 330 333 332 330 329 329 329 329 327 327 328 327 328 329 331
322 320 318 318 326 333 331 329 335 332 330 321 321 322 322 325 330 333 333 335 335 336 334 335 339 341 339 337 335 333 331 331 330 330 333 333 331 331 330 327 327 327 327 326 327 326 325 326 327
322 317 315 320 324 329 331 332 331 331 322 321 323 321 321 323 328 332 333 336 337 336 334 333 340 341 338 336 335 333 332 330 330 330 332 333 331 329 330 328 326 325 325 325 326 325 325 325 325
320 314 311 321 325 325 328 325 326 330 325 320 321 325 322 327 328 331 333 335 336 336 332 335 339 340 338 336 335 332 330 331 330 331 331 332 329 329 328 326 325 325 324 324 323 325 324 325 324
318 309 314 318 319 321 320 322 327 330 327 323 321 324 325 329 331 333 332 334 336 337 334 333 336 336 338 336 335 333 330 331 330 330 331 328 333 329 328 326 325 326 325 325 323 323 324 324 325
317 310 314 316 317 316 315 317 322 328 327 322 321 324 325 328 333 332 332 334 336 337 336 335 333 334 336 334 334 333 331 331 330 330 330 329 330 329 329 327 326 327 328 327 324 323 322 324 325
319 317 318 317 316 317 318 318 324 327 326 321 319 328 327 327 331 330 332 332 334 336 336 337 336 335 336 333 334 332 330 329 329 328 330 330 329 327 330 327 327 328 328 327 325 322 322 323 324
317 317 319 316 316 318 319 322 322 324 325 320 321 326 328 324 331 331 331 332 334 335 336 337 336 336 335 332 333 331 328 326 328 328 329 328 327 326 325 326 324 328 329 326 324 322 320 320 323
317 320 318 317 318 320 318 320 322 322 322 321 324 324 326 326 332 331 331 330 331 336 336 336 335 334 335 333 332 331 327 325 328 327 328 326 325 325 323 323 323 323 326 324 323 321 319 318 318
320 321 322 318 318 321 319 320 321 323 322 323 328 331 328 329 331 329 329 330 330 336 337 335 334 333 333 332 330 330 329 325 327 326 326 326 326 324 324 321 325 324 322 322 323 322 319 317 317
320 323 321 322 321 320 320 320 320 322 324 323 323 329 329 328 329 328 329 330 331 331 332 335 334 332 332 331 329 326 325 325 326 328 326 326 326 325 323 323 325 325 324 323 323 321 318 317 313
326 322 321 323 323 321 321 321 321 319 321 321 320 322 328 328 327 328 329 330 331 332 331 330 332 333 332 331 330 329 328 328 325 325 327 325 324 323 322 324 324 325 325 324 322 319 317 317 314
325 325 323 322 321 318 318 320 321 319 318 317 318 326 330 328 327 330 331 330 330 331 332 331 330 330 332 331 331 329 328 329 326 322 325 324 324 325 324 323 324 325 324 322 321 320 320 320 320
324 321 320 319 319 319 320 320 320 319 317 317 320 322 326 328 329 329 330 330 331 331 331 332 331 330 330 331 331 330 327 327 327 325 326 325 325 326 325 325 324 324 323 322 322 322 320 320 320
321 322 320 319 320 321 320 319 319 317 316 317 318 316 318 322 325 328 328 329 330 330 330 329 331 332 331 331 331 331 330 326 326 325 326 327 326 326 326 325 325 324 323 322 322 322 321 320 320
320 320 322 319 320 319 319 321 319 317 315 316 316 314 314 313 315 316 317 320 325 329 329 329 329 330 331 332 332 332 331 328 327 325 325 326 326 326 326 325 325 325 324 324 322 321 321 320 319
319 321 320 319 317 320 319 320 318 317 316 317 316 313 313 314 314 317 318 319 319 319 324 328 328 328 329 331 331 332 333 331 330 329 327 325 325 325 325 325 325 325 325 324 324 321 321 320 320
322 321 319 318 318 318 318 319 317 316 315 315 310 312 313 314 315 317 318 319 319 319 320 323 326 326 329 330 331 332 333 333 333 333 332 331 328 327 326 325 325 325 325 325 324 324 321 321 321
318 319 318 316 316 319 318 319 318 316 312 311 312 313 314 315 315 316 317 318 319 319 319 320 321 323 326 329 330 331 332 333 333 333 333 333 332 331 329 328 328 327 326 325 325 324 323 322 321
318 318 317 317 319 320 319 318 317 313 313 314 314 314 316 316 315 314 316 316 316 318 319 319 320 322 326 325 329 331 331 332 332 332 333 333 333 333 332 332 331 330 328 326 325 324 323 322 322
318 317 318 321 320 319 320 320 317 316 316 316 315 315 315 316 316 314 314 315 315 315 315 316 319 321 322 326 327 328 331 332 332 331 331 331 331 331 331 331 332 331 329 328 327 326 324 324 325
319 317 320 322 320 322 319 322 316 315 317 317 314 314 314 314 314 313 313 314 315 315 316 316 315 315 316 319 321 322 322 323 323 324 324 324 325 325 326 327 328 330 330 329 329 328 327 326 325
319 320 320 319 318 318 319 320 316 315 318 317 314 313 313 312 313 313 313 315 315 316 316 315 315 315 315 315 315 315 314 315 315 315 315 315 315 314 314 314 316 325 329 329 329 329 329 328 327
318 318 316 315 316 321 318 320 318 317 317 316 315 313 312 312 313 313 314 315 315 315 315 315 315 315 315 315 315 314 314 314 314 314 314 314 314 314 314 313 313 313 315 322 327 328 330 330 330
315 317 322 324 323 324 317 318 319 315 315 317 315 313 311 311 312 312 312 313 314 314 314 315 315 314 314 314 314 314 314 314 313 313 313 313 312 311 310 309 309 309 310 311 312 315 322 327 328
315 317 322 329 326 325 317 319 318 313 314 314 314 312 311 312 312 312 311 313 314 314 313 313 312 313 313 312 313 313 313 313 312 312 311 311 309 308 307 307 306 306 306 306 307 310 311 314 318
316 319 318 322 320 322 321 319 316 314 315 315 314 312 312 312 312 312 311 313 313 312 311 312 312 312 312 312 312 312 311 310 309 309 307 306 305 305 304 305 305 306 307 307 306 308 309 310 311
316 314 320 318 326 325 320 320 320 318 317 316 315 314 312 311 311 311 311 312 311 311 311 312 311 310 309 309 308 308 308 307 306 305 304 303 303 303 303 304 305 306 306 307 307 308 308 309 310
315 315 314 315 317 322 321 319 313 313 314 316 315 314 312 310 311 310 310 310 310 310 310 309 308 307 306 305 305 305 304 304 303 302 301 300 300 301 302 303 304 305 305 305 305 306 306 307 308
315 316 314 317 319 315 314 318 312 313 311 312 314 314 312 311 310 309 308 309 309 309 308 306 305 304 303 303 303 302 301 301 299 298 297 297 297 298 298 300 301 301 300 302 304 305 305 306 304

GFSSGP_925_thetae_003.txt.gz
Theta_e
323 321 318 320 324 325 330 332 329 331 331 322 320 322 323 323 323 321 332 335 334 335 337 336 339 338 341 339 338 335 334 331 329 329 329 333 331 331 330 330 330 328 327 326 328 329 327 328 331
323 319 318 317 325 330 328 326 332 330 329 320 320 322 322 324 329 332 333 335 334 336 335 334 338 341 340 337 337 335 333 331 329 330 332 334 331 330 329 328 328 327 327 326 327 327 326 326 328
322 317 315 320 321 328 329 327 328 327 325 320 321 320 321 323 326 329 332 334 335 336 334 333 338 341 340 339 337 335 333 332 331 330 331 335 333 330 330 329 327 326 326 326 326 325 325 325 326
320 313 309 318 323 323 325 323 319 320 326 318 320 323 321 325 326 330 332 334 335 336 334 333 338 341 340 338 337 334 332 331 331 331 330 333 334 330 330 328 326 326 325 325 324 325 325 325 325
316 308 312 315 317 318 317 317 317 321 326 322 319 323 325 326 329 331 332 335 335 335 334 333 338 340 340 337 336 334 331 331 331 330 332 333 332 329 328 327 326 326 325 325 324 323 325 325 325
317 310 313 314 315 315 313 313 316 321 325 323 321 323 324 325 332 332 331 333 335 336 334 334 338 339 338 338 336 334 332 331 329 330 330 330 331 331 329 329 327 326 327 327 326 324 323 324 325
319 316 317 315 315 315 317 316 320 322 325 325 319 325 325 326 331 331 330 333 335 336 335 335 337 337 337 336 335 335 333 329 331 329 330 330 329 330 330 330 328 328 328 329 328 326 324 323 324
316 317 320 316 315 316 317 317 319 321 322 318 321 325 326 324 330 330 331 331 334 336 336 335 335 335 336 336 334 334 331 329 327 329 328 329 328 329 328 329 326 328 329 329 328 326 324 322 322
314 320 320 319 316 316 317 319 318 319 321 320 324 325 325 325 330 330 330 329 332 335 336 336 336 335 336 336 333 334 332 329 325 327 328 329 327 324 325 324 323 323 328 329 328 326 324 322 319
319 321 322 318 315 318 320 319 319 321 319 322 323 330 327 327 330 329 328 328 328 334 336 336 336 335 335 335 333 332 331 329 324 327 326 327 327 325 324 323 322 322 324 325 327 326 325 322 319
319 322 320 321 318 320 321 319 319 321 321 322 321 321 328 328 328 328 328 328 329 330 334 335 336 335 334 333 333 331 330 328 325 324 325 325 325 325 325 323 322 321 324 324 323 324 323 322 319
324 321 321 322 322 322 321 319 319 318 319 319 318 317 328 327 326 327 327 328 329 330 330 333 335 334 333 332 331 329 327 326 325 323 325 326 325 325 325 324 322 322 324 325 324 323 323 321 319
325 324 324 322 322 320 319 318 318 318 317 316 316 319 326 327 326 328 329 328 328 329 330 330 330 332 333 332 332 330 329 327 327 326 325 323 325 325 324 324 323 322 323 324 325 323 322 321 319
324 324 323 319 318 318 319 319 318 319 316 316 316 317 321 327 327 327 327 328 329 329 329 330 331 330 329 331 332 331 330 329 327 326 325 323 323 325 324 324 325 324 324 323 324 323 322 321 321
322 323 320 319 320 319 319 320 318 317 314 314 313 313 314 317 323 325 328 328 328 329 330 330 330 331 330 329 329 331 330 330 329 326 324 325 324 326 326 325 325 326 325 325 324 323 322 321 321
319 319 322 319 319 318 319 322 319 317 316 315 313 312 310 311 312 315 317 317 317 318 325 328 328 328 330 330 330 330 330 330 330 328 326 325 325 325 326 325 325 325 325 325 324 324 323 322 321
320 321 320 318 316 318 319 320 318 316 315 314 313 311 313 314 314 316 318 318 318 319 320 320 325 327 328 330 330 330 330 330 330 330 329 327 326 325 325 325 325 325 325 324 324 324 323 322 320
324 322 319 318 317 318 318 317 318 316 315 312 310 312 313 314 313 314 316 317 318 318 319 320 323 325 325 328 329 330 331 331 331 331 330 328 329 328 327 326 326 326 325 324 324 324 323 323 321
320 319 319 315 314 316 316 317 317 315 313 310 311 312 314 314 313 314 314 315 317 318 319 319 321 324 323 326 328 329 330 331 331 332 332 332 332 331 330 330 329 329 327 327 325 324 323 322 322
319 319 319 317 317 316 317 317 315 313 312 311 312 313 314 314 312 312 314 314 314 315 316 318 320 322 325 323 327 329 330 330 331 330 330 330 331 331 331 331 330 330 328 327 327 325 323 322 323
319 320 319 318 318 317 318 319 318 314 315 314 314 314 314 314 313 312 312 313 314 314 314 314 315 317 319 325 326 328 328 326 321 320 319 319 319 319 319 319 321 324 327 327 327 326 324 324 325
331 317 318 318 320 322 317 322 316 314 316 315 313 312 313 312 312 312 311 312 313 313 314 314 314 314 314 314 315 314 314 315 313 313 313 313 313 312 312 312 312 312 316 323 326 327 326 325 324
325 316 317 318 318 317 318 319 317 313 316 315 312 311 311 312 312 312 311 313 313 314 313 313 313 313 314 314 314 314 313 313 313 313 313 313 312 310 309 307 307 306 307 308 309 313 322 326 326
317 316 315 315 315 320 317 319 319 314 316 314 313 310 311 311 311 311 312 312 312 313 313 313 313 312 312 313 313 312 312 312 311 311 310 309 308 307 306 305 305 305 305 306 306 306 307 311 318
315 317 322 323 323 323 316 317 320 316 312 315 313 310 310 311 311 310 310 311 311 311 312 312 312 311 311 311 311 311 310 309 308 306 305 305 304 304 303 303 303 303 304 305 306 305 305 307 308
314 318 321 326 325 321 314 319 318 312 310 312 312 309 309 310 310 310 310 310 310 310 310 311 310 310 310 310 309 308 307 306 305 304 303 302 302 301 301 301 301 302 302 304 304 304 305 306 307
314 318 316 321 319 321 319 317 315 313 313 312 311 310 310 310 310 309 309 309 308 309 309 309 308 307 307 306 305 305 304 303 302 301 299 298 298 298 298 298 299 300 301 302 301 303 304 305 305
314 313 320 317 326 325 318 317 319 317 316 313 312 311 310 309 310 309 308 307 308 309 308 307 305 304 304 304 303 302 300 299 298 297 296 295 295 295 295 296 297 298 299 298 300 302 302 304 304
312 313 312 315 316 320 320 318 312 314 314 314 312 311 310 309 309 308 306 307 308 307 305 305 304 303 302 301 300 299 296 295 293 292 291 290 290 291 292 293 294 294 295 296 299 298 300 303 300
313 313 312 316 317 313 313 317 309 311 312 313 313 312 310 309 308 306 306 307 306 305 303 302 301 300 299 298 297 294 293 291 289 288 288 288 288 289 289 290 291 291 292 294 296 295 300 297 297

GFSSGP_925_thetae_006.txt.gz
Theta_e
325 322 317 319 322 323 328 330 328 329 330 322 317 320 322 322 322 322 330 334 333 334 334 338 341 341 341 340 339 336 334 330 330 329 328 330 329 330 330 330 328 327 327 326 328 327 328 326 328
324 319 318 316 324 327 327 325 330 328 327 324 318 321 321 323 327 329 331 334 334 334 335 335 338 339 339 336 337 337 334 333 330 330 330 332 332 328 328 328 328 328 326 326 327 327 327 326 327
323 317 314 319 321 326 326 325 327 322 317 321 320 319 320 322 323 327 331 333 333 335 335 333 337 341 339 338 337 337 334 333 331 330 331 333 333 328 329 327 328 327 327 326 326 326 325 325 326
320 311 308 315 322 322 324 322 318 316 320 319 318 322 320 321 324 329 332 333 333 335 334 332 336 340 341 339 338 336 334 333 331 331 333 334 334 331 328 328 327 327 326 325 325 326 326 325 326
315 308 311 313 316 316 316 315 314 318 320 323 319 321 323 323 329 328 332 333 332 334 334 333 335 339 340 338 337 336 334 332 331 331 331 333 333 332 329 329 326 326 326 326 325 324 324 326 326
317 310 315 316 313 313 312 312 315 319 319 323 319 322 323 324 330 331 332 332 334 334 334 333 335 338 339 338 337 336 332 332 331 331 330 331 331 332 329 328 328 327 327 327 327 326 324 324 325
319 316 319 315 315 314 314 315 318 320 319 324 318 323 322 324 329 331 331 333 334 335 335 333 336 337 338 336 336 335 333 331 330 329 328 329 329 330 330 330 330 329 327 327 328 328 327 325 324
315 317 319 317 316 315 314 318 318 319 320 316 319 322 324 323 329 330 330 332 334 335 336 335 336 337 337 337 336 334 334 332 328 327 326 329 329 329 329 329 329 328 328 328 327 328 327 326 324
313 319 321 320 316 316 316 319 318 318 319 318 320 323 323 327 328 329 329 330 333 334 336 336 335 336 337 337 336 334 333 332 330 325 328 328 328 327 325 325 325 324 325 328 327 328 327 326 324
318 320 322 318 314 316 318 320 319 319 317 319 320 325 327 326 328 327 327 327 328 332 334 335 336 336 336 336 336 335 334 333 330 325 327 327 327 327 326 324 323 323 323 325 327 327 327 326 325
318 322 319 320 317 316 321 321 319 319 319 319 319 318 322 327 327 327 327 327 328 329 332 334 334 336 336 335 335 334 333 332 330 328 324 326 326 325 326 325 325 323 323 322 324 324 324 324 323
323 320 320 321 321 322 322 319 319 318 318 317 316 316 317 325 325 326 326 326 327 328 329 331 333 335 335 335 333 332 332 330 328 326 324 323 324 324 324 324 324 323 322 322 323 323 324 324 323
324 324 323 321 321 321 320 318 318 317 316 315 313 313 314 320 324 326 327 328 328 327 328 329 330 333 334 334 333 332 331 329 327 326 325 324 323 323 323 324 323 323 323 323 322 322 323 323 323
323 324 323 322 321 318 319 319 317 317 316 314 313 313 312 317 324 327 327 328 328 328 328 328 329 329 330 331 332 332 331 330 329 328 326 326 326 324 322 323 324 324 324 325 325 324 324 323 323
324 325 322 319 319 320 316 320 318 316 315 314 312 309 312 311 314 315 318 318 318 319 319 324 328 329 329 330 329 330 330 330 330 329 328 327 326 325 324 324 325 325 325 325 325 325 324 323 323
321 319 323 321 318 318 318 319 316 315 316 315 312 309 312 313 313 315 317 317 318 318 320 320 322 327 328 329 330 329 329 329 330 329 329 329 327 326 325 325 325 325 325 325 324 324 323 323 322
319 324 319 319 316 317 318 318 315 315 314 314 312 313 313 313 312 313 315 317 317 318 319 321 321 323 326 327 328 329 329 329 329 329 329 328 328 326 325 324 325 325 324 324 323 323 322 321 321
327 323 320 319 318 316 317 316 316 315 315 313 311 313 313 312 311 312 313 315 317 318 319 321 323 323 324 325 327 328 329 329 329 329 329 329 329 328 327 327 327 327 326 326 326 324 324 322 323
322 320 323 317 315 315 314 314 315 314 313 312 310 313 313 312 311 312 313 314 315 316 318 320 323 325 323 325 327 328 328 329 329 329 329 329 329 329 329 328 327 327 326 326 326 324 323 323 323
320 321 319 318 316 315 315 316 314 313 313 311 310 312 314 312 311 311 312 313 313 313 314 316 318 323 325 325 327 328 329 325 318 316 317 317 315 315 314 314 314 315 319 322 324 325 323 323 323
321 322 322 322 316 316 315 317 316 313 313 311 311 312 313 312 312 310 310 311 312 312 313 313 314 315 317 322 323 323 315 313 313 312 312 312 311 310 310 308 307 307 307 308 310 317 322 323 323
331 319 320 319 319 321 316 321 316 313 314 313 312 312 312 312 312 311 310 310 311 311 312 313 313 313 313 314 313 313 312 311 311 311 311 310 309 307 306 305 304 304 304 305 306 306 307 312 320
330 319 320 319 317 316 317 318 316 312 315 314 311 311 311 311 310 310 309 310 311 312 311 312 312 312 312 312 312 312 311 310 309 308 307 306 305 304 304 303 303 302 303 303 304 305 305 305 309
320 318 316 314 314 320 317 318 317 315 313 314 312 309 310 310 310 309 310 310 310 311 311 311 311 310 310 310 309 308 307 306 305 304 304 303 302 302 301 300 300 300 300 301 302 302 302 303 305
318 320 326 324 322 323 315 316 317 315 312 313 312 309 309 309 309 309 308 308 309 310 310 310 310 308 308 307 306 305 304 303 302 300 299 299 298 298 297 297 297 297 298 299 299 299 301 302 303
320 319 321 327 324 321 313 319 317 313 310 309 311 309 309 309 308 308 307 307 308 309 309 308 307 306 306 304 303 302 302 300 298 297 296 294 294 294 293 292 292 293 293 294 297 299 299 300 302
315 320 316 319 317 321 319 315 314 313 311 310 310 309 309 309 308 308 306 306 307 308 307 306 305 304 303 302 302 300 298 297 294 292 291 290 290 290 290 290 290 290 290 291 293 297 297 297 300
314 313 320 317 327 326 320 316 319 315 316 312 309 309 309 309 308 307 305 306 307 306 304 303 303 302 301 300 299 296 294 292 290 289 288 288 288 288 288 288 289 289 289 289 290 295 292 296 299
312 314 312 315 316 321 320 318 311 312 312 312 310 309 308 309 308 306 304 306 306 304 302 301 301 300 298 297 295 293 291 289 288 288 287 287 287 287 287 287 288 287 288 288 289 291 292 293 294
311 312 313 318 317 312 313 317 310 309 309 311 311 310 307 308 307 305 304 305 303 301 300 299 298 297 295 295 293 289 288 287 287 287 286 286 286 287 287 287 287 287 287 287 288 289 289 292 291

GFSSGP_925_thetae_009.txt.gz
Theta_e
325 321 317 320 328 328 331 332 328 330 330 325 322 321 323 323 324 329 327 333 332 332 332 337 343 342 341 340 338 334 334 332 331 329 328 328 329 329 329 329 328 327 327 326 327 327 328 327 327
326 319 318 320 328 330 330 326 330 328 324 324 320 321 322 325 326 328 331 333 332 333 333 335 342 341 338 335 336 335 335 332 330 329 328 330 330 329 329 328 328 328 327 327 327 327 327 327 326
324 316 319 323 324 329 329 326 325 321 317 319 322 319 321 324 322 327 330 333 333 333 334 333 337 336 338 337 335 335 335 335 332 330 332 332 334 330 329 327 327 328 327 327 326 327 327 326 325
320 313 312 318 321 324 325 324 319 317 322 320 319 322 321 320 325 328 331 332 333 334 334 332 335 336 341 338 336 335 336 334 332 330 331 333 333 333 328 329 325 325 326 326 326 325 327 326 326
315 312 317 316 316 317 317 317 315 319 320 322 319 323 324 322 328 327 331 332 332 334 334 331 333 340 339 337 336 335 336 334 332 331 332 333 332 333 329 329 327 327 327 327 326 326 325 324 325
322 315 322 325 317 315 314 313 316 319 320 322 320 321 324 323 329 328 332 332 332 333 333 331 332 340 338 337 337 337 335 333 332 331 329 332 334 332 330 329 328 328 327 326 326 326 327 326 325
323 322 324 319 319 318 315 316 319 320 320 323 319 323 323 325 328 330 332 333 334 334 334 332 332 339 338 338 336 336 335 332 331 329 330 328 330 329 331 330 330 331 329 327 326 326 327 327 326
318 321 320 319 322 321 315 318 319 320 322 318 319 324 326 324 327 330 330 333 334 335 335 334 333 337 338 339 336 335 333 332 331 328 324 328 329 328 329 328 328 329 329 328 327 326 326 326 326
314 323 324 323 318 322 315 321 320 318 320 319 319 323 324 326 326 328 328 330 333 335 335 335 334 335 337 338 337 336 334 333 332 330 325 326 328 328 327 327 325 324 325 327 327 327 327 326 325
321 324 324 320 317 318 317 320 322 322 320 320 320 320 324 324 327 328 328 328 328 332 334 335 335 335 335 337 336 336 335 334 334 331 327 326 328 328 327 326 325 324 323 322 322 323 325 325 326
319 325 321 321 319 317 319 322 321 321 324 320 322 320 318 323 326 328 327 327 327 327 330 332 334 334 335 336 335 335 336 334 333 332 329 325 325 326 326 325 324 324 323 323 321 321 322 323 324
323 320 320 322 321 322 323 321 323 320 323 320 318 316 315 317 320 324 327 327 327 326 327 328 331 333 334 335 335 334 334 333 331 330 328 327 324 323 324 324 324 324 323 322 322 322 322 322 322
322 323 322 320 321 321 321 323 323 320 319 318 315 315 316 315 317 323 326 327 328 328 327 327 328 330 333 335 334 334 332 331 330 328 327 326 325 324 324 324 322 323 324 323 323 324 324 324 324
323 324 324 323 324 320 321 323 318 324 317 317 315 315 313 312 317 325 325 326 326 326 325 326 327 328 329 332 333 333 332 331 330 329 328 327 326 326 326 325 324 323 324 325 325 324 324 323 323
323 326 323 322 322 323 319 322 320 321 316 317 316 312 313 314 315 315 315 315 316 317 318 319 319 326 328 328 330 331 331 331 331 330 329 328 328 327 326 325 325 325 325 324 324 324 323 323 323
325 322 330 324 318 318 319 326 319 314 315 317 314 313 315 314 313 313 315 316 317 318 320 321 319 322 327 328 328 328 329 329 329 329 329 328 327 327 326 326 325 325 324 325 325 324 323 322 322
322 330 325 326 319 320 319 321 318 314 315 316 313 314 315 315 313 312 313 315 316 318 321 322 322 322 325 326 326 327 327 327 327 327 327 327 327 327 326 327 328 327 326 326 325 323 322 322 323
324 327 321 322 318 316 317 318 316 314 315 316 313 314 315 314 313 311 312 314 316 318 321 324 323 322 324 325 326 327 328 328 328 328 329 329 329 329 328 327 326 324 323 323 323 322 323 322 323
321 324 325 322 316 316 317 316 317 316 314 314 311 314 315 314 312 311 311 313 314 316 318 322 324 323 325 326 327 328 325 321 319 317 316 315 314 313 311 311 310 310 315 316 317 319 320 321 322
321 323 322 319 315 316 319 319 318 315 315 313 312 314 315 314 313 311 310 311 312 312 313 315 319 324 326 328 328 325 316 313 312 311 310 309 308 307 306 305 305 305 305 307 309 312 312 314 316
324 324 322 324 318 316 316 320 317 314 312 311 311 313 313 314 313 312 311 310 311 311 312 313 313 314 318 321 315 313 313 312 311 309 307 306 306 305 304 304 303 303 303 304 305 307 308 308 309
331 320 323 321 325 329 316 325 318 317 313 313 313 314 314 313 312 312 311 310 310 310 312 312 313 313 313 313 313 312 309 308 306 305 304 304 304 303 302 301 300 300 301 302 303 303 304 305 306
329 323 325 322 321 316 317 321 319 312 314 315 313 313 313 313 313 311 310 309 309 310 311 311 311 311 310 310 309 307 305 304 303 303 303 302 300 299 297 296 296 296 299 299 300 301 302 303 304
315 320 320 316 316 322 318 321 321 317 315 313 312 312 313 312 311 310 308 309 309 309 309 309 308 307 307 307 305 305 303 302 301 300 298 297 296 296 293 292 293 295 295 296 297 298 300 301 301
320 327 332 328 324 326 314 317 320 315 312 314 314 312 312 312 311 310 309 308 308 308 308 307 307 304 304 303 302 301 300 298 296 295 294 293 293 293 292 290 291 292 292 293 293 294 297 297 298
326 327 329 331 326 323 313 321 320 313 312 310 312 311 312 312 311 310 308 308 307 307 306 305 304 303 302 301 299 298 296 294 292 291 290 290 291 291 289 289 289 289 289 289 291 292 295 293 296
320 328 318 319 316 322 321 318 316 313 312 310 311 311 313 311 310 309 307 307 306 305 304 303 302 301 300 298 296 295 293 291 289 289 288 288 288 289 288 288 288 288 288 289 289 290 292 292 292
320 318 326 319 327 327 321 317 322 316 314 311 310 313 311 310 310 308 306 306 304 303 302 301 300 299 297 296 294 292 290 289 288 288 288 287 287 287 287 287 287 288 287 288 288 289 290 290 290
316 321 316 317 318 324 322 321 312 313 311 313 311 311 311 310 310 308 306 305 302 301 300 299 298 297 296 294 292 290 288 288 287 287 287 287 287 286 286 286 286 286 287 287 287 287 288 288 290
312 316 317 321 318 313 315 320 310 309 308 310 310 309 310 310 309 306 305 303 300 298 298 297 296 295 293 291 289 288 288 287 287 287 286 286 286 286 285 285 285 285 285 286 286 286 287 288 289

GFSSGP_925_thetae_012.txt.gz
Theta_e
326 323 318 324 328 330 328 330 332 332 332 327 326 327 329 328 329 333 333 337 335 336 335 343 343 340 343 342 339 335 333 332 331 330 329 328 329 329 329 329 329 328 327 327 328 329 331 329 328
324 318 320 326 325 327 326 331 334 331 326 325 325 326 327 330 327 331 333 335 336 335 335 339 341 341 340 339 333 334 333 333 331 330 329 329 331 330 329 328 328 328 328 328 326 326 328 328 327
321 316 323 324 326 325 328 331 327 325 325 325 328 324 326 328 326 329 333 335 336 335 336 339 342 339 337 336 334 334 334 335 333 330 331 332 334 330 330 328 327 326 327 327 327 326 328 328 327
322 322 320 322 320 324 327 327 321 325 327 325 326 329 325 325 328 331 333 335 335 336 337 339 338 334 337 339 336 335 335 335 335 332 330 332 334 333 332 328 327 324 326 327 326 326 325 326 327
321 322 326 326 325 319 320 321 320 324 326 327 326 330 328 328 331 331 335 335 335 336 337 336 334 336 340 338 336 335 334 334 334 332 332 333 334 335 333 330 329 327 327 328 327 327 327 326 325
327 324 327 330 328 325 324 321 322 324 325 326 327 326 329 328 331 332 336 335 335 337 338 336 334 338 341 337 336 335 334 335 334 331 330 330 334 336 333 332 329 328 329 328 326 325 327 327 327
328 327 328 328 327 327 323 320 323 324 325 327 324 327 327 329 331 333 336 335 336 337 338 337 337 341 338 336 336 334 335 332 333 332 331 329 329 330 330 330 329 328 328 328 327 326 327 327 326
326 326 327 326 327 328 323 320 325 324 325 323 323 328 329 329 328 332 334 335 337 337 338 338 338 340 341 341 337 335 335 332 331 330 327 325 328 329 328 329 329 328 327 327 328 328 326 326 327
321 328 328 328 327 327 321 325 326 324 325 324 324 325 325 327 328 331 332 334 335 336 337 338 338 339 340 339 339 336 334 333 332 332 330 324 327 329 328 328 327 324 322 322 325 326 328 326 326
327 329 328 326 326 326 324 326 327 327 326 326 324 324 323 322 326 329 331 331 332 334 336 337 338 338 339 339 338 337 336 335 334 333 331 328 327 328 329 328 326 325 324 323 322 321 321 323 327
328 329 327 326 325 323 325 327 326 328 329 326 325 324 323 322 322 325 327 330 331 330 332 335 337 338 338 339 338 337 336 336 334 333 332 329 327 327 328 327 327 327 326 326 326 326 326 326 326
328 327 326 326 325 326 327 326 327 328 329 327 326 325 322 323 323 323 324 328 330 330 330 331 334 337 338 338 338 337 336 336 335 334 332 330 329 327 327 326 326 327 327 327 327 326 327 327 327
328 327 326 326 325 325 325 327 328 328 327 327 326 324 322 322 321 321 326 329 330 331 331 330 330 334 336 337 337 337 336 335 334 333 332 330 329 329 328 328 327 327 327 327 328 328 328 328 328
328 328 327 327 327 327 327 328 325 327 327 327 325 323 322 319 319 323 326 328 329 328 327 327 329 330 333 336 337 336 336 334 333 333 332 331 330 330 330 329 329 328 328 328 328 328 328 328 328
329 329 329 328 328 328 327 329 328 327 323 321 321 321 319 320 320 321 321 321 321 321 321 321 321 326 331 334 335 335 335 333 333 332 331 330 330 330 330 329 329 329 329 328 329 329 329 328 329
330 331 333 328 328 328 325 330 327 323 320 321 320 320 321 319 319 319 318 319 320 321 323 323 321 323 328 331 333 333 332 332 332 331 330 330 329 328 329 329 329 329 328 328 328 328 327 327 327
332 334 332 329 327 327 325 328 324 320 320 321 321 320 320 320 319 318 317 318 319 321 323 324 324 326 328 329 330 329 329 329 329 328 329 328 328 327 328 328 328 327 326 325 325 325 325 325 324
331 331 329 331 326 322 326 326 324 323 321 322 321 320 321 320 318 317 316 317 318 320 323 325 327 327 328 329 329 330 330 329 327 326 324 325 322 321 322 319 316 317 318 317 316 317 318 318 320
325 327 329 327 324 323 327 328 324 325 323 322 321 320 320 320 317 316 316 317 317 318 321 324 327 328 329 330 330 327 322 319 315 313 312 311 310 310 310 310 310 310 310 310 310 310 310 311 311
329 328 328 326 321 322 327 329 327 326 323 321 321 321 320 319 317 316 315 315 315 316 316 319 323 327 329 330 325 320 316 314 312 311 310 309 308 307 307 307 307 307 308 308 307 308 308 308 308
328 327 327 328 325 325 324 329 327 320 317 316 317 320 320 319 318 317 316 315 315 315 315 315 316 317 317 317 316 315 314 313 312 310 308 306 306 304 304 304 304 304 304 305 304 304 305 305 305
331 327 327 328 331 334 325 334 328 325 321 318 319 320 319 318 317 317 316 315 315 314 314 313 313 313 314 314 314 313 312 310 308 307 306 305 303 301 299 300 300 300 300 300 300 300 301 302 302
329 327 328 329 330 328 331 330 328 320 322 319 320 320 319 318 317 317 315 314 313 313 313 312 311 310 310 310 310 309 308 307 305 304 303 302 301 299 296 296 296 297 296 297 297 297 298 299 299
324 325 326 325 325 333 329 328 328 325 321 320 319 320 319 318 317 316 314 313 313 312 311 310 309 308 307 306 306 305 304 303 303 301 300 299 297 297 295 294 294 294 294 294 294 295 296 298 297
326 330 336 336 335 333 320 324 327 322 318 319 319 320 318 318 316 315 315 314 313 312 310 308 307 305 304 303 302 302 301 300 298 297 296 295 295 294 293 293 293 292 292 292 292 293 294 296 295
326 329 331 334 333 330 319 327 325 318 317 316 319 319 319 318 317 316 315 314 312 311 309 307 306 304 302 301 299 298 297 296 295 294 294 293 292 292 291 291 291 291 291 291 291 292 292 293 293
327 331 323 324 322 327 326 324 322 318 317 316 317 319 319 318 317 315 314 313 311 309 307 306 305 302 300 298 297 295 294 293 293 292 292 291 291 290 290 290 290 290 290 290 290 291 291 291 292
327 326 328 325 331 330 327 326 326 321 319 316 317 319 319 317 316 315 313 312 309 307 305 304 303 300 298 296 295 293 292 291 291 291 290 290 290 289 289 289 289 289 289 289 289 290 290 290 290
328 329 328 325 324 329 328 326 320 319 318 317 317 319 319 317 316 314 313 310 307 305 304 302 300 298 296 294 293 292 291 290 290 290 289 289 289 288 288 288 288 288 288 288 288 288 288 289 289
325 326 326 330 326 322 323 325 316 316 316 315 317 317 317 317 316 313 312 309 306 304 302 300 299 297 295 293 292 291 290 290 289 289 288 288 288 288 287 287 287 287 287 287 287 287 288 288 289

GFSSGP_925_thetae_015.txt.gz
Theta_e
327 325 320 325 328 326 328 328 333 335 335 329 328 329 331 330 332 335 335 336 335 335 338 341 342 344 344 341 340 337 333 331 331 330 329 328 329 326 329 329 329 329 329 328 329 331 331 329 329
327 324 323 324 323 328 325 327 331 333 330 328 328 328 330 332 329 334 337 336 335 335 338 342 342 340 340 341 337 334 334 333 331 330 329 329 331 330 330 329 329 328 329 328 328 325 330 328 329
326 323 325 327 324 323 329 329 331 328 329 328 330 328 329 331 329 332 334 335 335 335 336 342 339 341 337 338 334 334 334 334 333 330 331 333 333 333 331 329 329 327 326 327 327 326 327 328 328
325 325 325 327 328 323 325 329 325 326 329 328 329 331 329 329 332 334 335 335 335 335 337 342 340 340 336 336 337 335 335 337 336 333 332 332 334 336 332 329 328 326 327 328 328 327 327 326 326
326 325 327 330 329 324 321 323 322 325 327 328 329 332 331 330 332 332 335 335 335 336 338 339 338 337 338 340 337 336 336 334 335 333 331 332 335 336 335 332 329 329 328 328 327 327 327 327 327
328 326 329 330 330 329 325 323 323 326 328 328 328 328 331 331 333 334 335 334 335 337 337 337 334 335 338 340 336 336 334 332 333 332 330 332 333 334 336 335 331 329 327 327 327 327 328 328 328
328 329 330 328 329 329 328 321 323 326 326 329 326 329 331 330 331 334 336 335 336 337 337 337 337 338 339 336 336 335 333 331 331 333 329 328 330 329 329 330 329 328 328 328 326 328 330 330 330
329 329 330 329 329 328 328 323 322 325 326 326 326 330 331 330 329 333 335 335 336 338 338 337 338 340 342 340 336 335 334 333 331 330 329 323 327 327 327 328 329 329 328 324 325 326 327 329 327
327 329 330 328 328 327 326 326 325 326 327 326 326 326 327 325 329 332 334 335 335 337 338 338 338 339 340 340 341 336 334 333 332 332 331 329 326 329 330 328 327 325 322 322 323 326 326 324 325
329 329 328 327 327 327 326 326 328 328 328 328 328 326 325 324 324 327 329 332 334 335 336 337 338 338 339 339 339 338 338 336 336 334 332 332 327 328 329 328 325 325 323 323 323 325 325 325 327
330 330 327 327 327 326 326 326 327 329 329 329 328 327 326 325 324 324 326 328 331 332 334 335 337 338 339 339 338 338 337 336 334 333 332 331 328 327 328 328 328 328 327 327 327 328 328 328 327
331 328 327 327 327 326 327 326 327 328 329 328 328 328 328 326 324 324 324 326 330 332 332 333 335 337 338 338 338 338 337 336 335 334 333 331 330 329 328 327 328 328 328 328 328 329 329 329 329
330 328 327 327 327 327 327 327 327 328 328 328 328 328 328 327 325 323 323 328 330 332 332 332 332 335 337 338 338 338 337 336 335 334 334 332 331 330 330 329 329 329 329 329 330 330 330 331 330
329 329 328 327 327 327 327 328 327 327 328 328 328 328 327 326 324 323 326 328 330 331 332 332 332 332 335 337 337 337 337 335 335 334 334 333 332 332 332 331 331 331 331 331 330 331 331 330 330
328 330 328 328 328 328 327 329 328 327 327 327 322 322 323 323 323 323 324 324 324 325 324 324 324 328 332 335 337 337 337 335 335 334 333 333 332 332 332 332 332 331 331 330 330 330 329 329 328
328 331 334 329 328 327 328 331 327 327 326 323 322 322 323 323 322 322 322 323 323 324 325 326 324 322 329 333 336 336 335 335 334 333 332 332 331 330 331 331 330 329 329 328 327 326 325 324 323
330 334 333 332 328 328 329 330 326 326 323 323 323 322 323 323 322 321 321 322 322 324 326 327 327 328 330 333 334 333 332 332 331 331 331 331 329 329 330 325 321 321 321 319 316 315 316 316 315
333 333 329 332 328 329 329 328 327 326 325 325 323 323 323 323 322 320 321 321 323 325 327 329 329 330 331 331 331 332 331 326 322 319 317 316 314 314 315 314 313 313 313 312 311 311 311 311 312
327 330 330 329 327 328 329 327 327 325 326 326 324 323 323 323 320 320 320 321 322 325 328 330 330 331 332 332 331 326 321 318 315 313 312 311 311 310 310 310 310 309 310 310 309 309 309 309 308
331 329 329 327 327 326 326 327 327 327 327 327 324 323 323 322 320 320 319 319 319 320 324 327 329 331 330 326 323 320 318 315 313 312 310 309 307 306 306 306 306 306 306 306 305 304 304 304 304
330 330 327 328 327 325 327 330 329 328 328 325 323 323 323 321 320 319 319 318 318 318 319 320 320 320 319 319 318 316 315 314 312 310 308 306 305 302 302 302 301 302 301 301 301 300 301 302 302
333 327 327 328 330 332 328 331 328 328 323 321 321 323 323 321 320 319 319 318 318 317 317 316 317 317 317 317 316 316 313 311 309 308 307 305 303 300 298 298 298 299 298 298 298 298 298 299 301
330 327 327 329 331 332 332 333 329 328 326 324 322 323 322 321 319 319 319 317 317 317 315 314 313 313 313 312 312 311 309 308 307 306 305 303 301 299 297 296 296 296 296 296 296 296 297 298 299
328 328 329 328 329 333 330 331 329 328 325 324 322 322 321 320 319 318 317 316 316 315 314 312 311 310 309 309 308 308 307 306 305 303 302 300 299 298 296 295 295 295 294 294 294 294 295 296 297
330 331 335 335 336 331 327 330 329 322 321 322 322 322 321 320 319 318 317 316 315 314 312 310 309 308 306 306 305 304 303 302 300 300 299 298 297 296 294 294 293 293 293 293 293 293 293 294 294
329 331 330 331 331 329 324 328 327 322 320 321 321 321 320 320 319 317 317 316 315 313 311 309 307 306 304 303 302 301 300 299 298 296 296 295 294 293 292 292 292 292 292 292 292 292 292 292 292
327 332 325 328 327 330 328 327 322 321 320 319 321 321 321 320 319 318 317 316 314 312 311 309 306 304 302 301 300 298 297 296 296 295 294 293 293 292 291 291 291 291 291 291 291 291 291 291 291
328 328 330 328 331 331 329 327 327 323 322 320 320 322 321 320 319 318 317 315 313 311 309 307 305 303 301 299 298 297 295 294 294 293 292 292 291 291 291 290 290 290 290 290 290 290 290 290 290
329 331 329 328 328 331 331 328 324 322 320 320 320 321 321 320 319 317 316 314 311 309 308 306 303 301 300 298 297 296 294 293 293 292 291 291 290 290 290 290 289 289 289 289 289 289 289 289 289
326 329 328 330 329 327 326 326 319 320 320 319 320 320 321 320 318 317 316 313 310 309 306 305 303 301 299 297 295 294 293 293 292 291 290 290 290 289 289 289 289 289 289 289 288 288 288 288 289

GFSSGP_925_thetae_018.txt.gz
Theta_e
325 326 325 324 330 328 330 326 327 334 334 327 327 327 327 328 331 338 335 335 336 338 341 342 343 342 341 340 339 335 333 331 331 329 329 328 329 329 330 330 329 330 330 329 329 330 331 331 329
326 326 324 326 325 327 326 323 332 331 328 327 327 327 328 330 332 334 336 335 335 338 340 341 342 342 336 340 339 334 333 332 332 329 329 329 331 331 330 328 329 328 328 328 327 327 328 329 328
327 326 325 329 328 323 325 328 326 324 325 329 329 328 328 330 332 334 336 334 335 336 341 344 339 337 340 339 333 333 335 333 332 327 330 333 332 333 330 330 328 324 325 326 327 327 326 326 327
327 325 324 326 328 328 323 324 323 323 325 328 328 328 329 331 333 334 335 335 335 336 341 343 337 338 339 336 336 335 334 336 335 332 328 332 334 334 334 329 328 326 327 326 328 327 327 326 325
326 326 327 328 329 328 321 321 322 322 325 327 327 329 331 332 332 335 335 335 335 337 341 338 338 337 337 337 337 335 334 334 335 332 329 333 335 336 335 332 329 329 327 326 326 326 326 328 329
328 327 328 329 327 327 325 322 323 323 324 327 327 325 331 331 334 335 334 335 336 337 338 332 337 333 337 339 337 334 333 331 332 330 330 333 332 334 336 335 332 329 328 329 327 326 329 330 331
329 329 330 328 327 327 329 320 321 322 325 326 326 327 328 327 332 335 335 335 336 337 337 337 332 335 337 339 335 334 333 331 328 329 323 330 329 329 329 332 330 328 327 326 326 327 328 330 330
329 329 329 328 329 329 327 325 322 322 324 324 325 327 328 327 331 335 335 335 336 338 337 337 337 336 338 334 336 335 334 333 331 330 328 322 324 328 326 327 328 328 328 326 320 322 325 327 329
329 331 331 330 329 328 326 325 325 325 326 325 324 324 325 326 330 332 334 335 336 337 338 338 338 340 342 340 338 335 334 333 332 330 330 330 322 326 330 329 328 327 323 322 321 321 322 322 321
331 332 330 327 326 326 326 326 326 327 327 325 326 325 325 324 325 326 331 334 335 336 337 338 338 339 340 340 341 339 337 335 334 334 333 332 328 328 329 329 327 326 326 326 326 327 327 327 327
331 333 329 326 325 325 326 326 325 325 328 327 326 326 326 326 325 323 325 327 333 334 335 337 338 338 339 339 338 340 338 337 336 336 333 331 329 327 327 328 328 327 328 327 328 328 328 328 328
332 330 328 328 326 327 326 325 325 325 325 326 325 326 326 325 325 322 323 324 329 333 333 335 336 338 338 339 339 338 337 336 335 334 333 331 330 329 328 328 328 328 328 328 328 329 329 329 330
331 331 328 326 326 326 326 326 326 325 324 324 325 326 325 325 324 325 323 326 328 332 332 332 334 336 338 338 339 338 337 336 335 334 333 332 331 330 330 330 330 330 330 330 330 330 330 330 330
328 329 330 328 327 326 326 326 325 325 324 324 325 325 324 324 324 323 323 326 329 331 332 332 332 333 336 338 338 338 337 336 335 334 334 333 332 332 332 331 331 331 331 330 330 330 330 329 328
324 328 329 329 328 327 325 327 327 325 324 325 324 323 320 321 323 322 324 324 324 325 326 326 327 332 333 336 337 337 336 335 335 334 333 332 332 332 331 331 331 330 330 329 328 326 324 323 323
328 327 331 329 328 327 326 329 327 325 325 325 323 319 320 322 322 322 322 323 323 324 325 326 325 325 331 335 337 337 336 335 334 333 332 331 330 330 330 328 324 322 322 318 318 313 313 313 312
328 330 329 330 328 328 327 328 326 325 324 324 321 319 320 320 320 321 321 322 323 325 327 327 325 324 330 335 335 334 333 331 331 330 327 325 323 321 319 316 314 313 313 312 311 310 310 310 310
327 331 328 331 329 328 329 327 326 325 323 320 319 319 319 320 319 320 321 322 325 327 329 328 330 331 333 333 331 330 326 319 320 316 314 312 312 312 312 310 309 309 310 309 308 307 306 306 306
323 326 330 327 328 328 328 327 326 325 324 323 322 321 319 319 318 320 321 323 327 329 330 330 330 331 331 332 325 320 316 314 312 311 310 308 308 307 307 307 306 305 305 305 303 302 301 302 301
323 326 329 328 327 327 327 328 326 324 324 323 322 321 319 318 317 318 320 321 325 328 330 331 331 328 328 325 322 318 315 313 310 308 307 305 304 303 302 301 301 300 301 300 299 299 300 300 300
320 326 328 331 329 326 326 327 325 323 323 322 323 322 319 318 317 317 317 319 320 321 321 322 325 323 322 319 317 314 313 311 309 308 306 304 302 300 299 298 298 298 298 298 297 297 297 298 299
321 321 325 331 330 333 324 328 325 325 325 325 322 319 319 318 316 316 316 317 318 318 318 318 319 318 318 317 315 315 311 309 308 306 305 302 300 299 297 296 296 296 296 296 295 295 296 296 298
321 323 326 328 333 333 332 329 328 325 326 325 318 317 319 317 316 316 316 317 317 316 315 314 314 314 313 313 312 310 308 307 306 304 302 300 299 297 296 295 295 294 294 294 294 294 294 294 295
316 322 327 330 332 336 330 331 328 326 324 320 318 318 319 317 316 315 317 317 315 314 312 311 310 309 309 309 308 307 306 305 302 301 299 298 297 296 294 293 293 293 293 293 293 292 292 293 293
319 324 331 336 336 332 325 328 327 320 320 321 319 319 318 317 316 315 315 315 315 313 311 309 308 307 306 305 304 303 302 300 299 298 297 296 295 294 293 292 292 292 292 292 291 291 291 292 292
323 319 329 336 333 328 325 329 326 320 318 319 319 319 318 317 316 315 314 315 314 312 310 308 306 304 303 302 301 300 299 298 296 295 295 294 293 292 292 291 291 291 291 291 290 290 290 290 291
325 320 323 330 322 327 325 325 319 318 318 318 319 319 318 317 316 315 314 315 314 311 309 307 304 303 301 300 298 297 297 296 295 294 293 293 292 291 291 290 290 290 290 290 290 290 290 290 289
327 323 332 330 331 332 328 326 324 319 318 317 319 319 318 316 316 315 314 314 313 311 308 305 303 301 300 299 297 296 294 294 293 293 292 291 291 290 290 290 289 289 289 289 289 289 289 288 289
325 329 331 329 328 331 329 325 320 319 318 317 317 319 318 317 316 315 313 313 311 309 307 305 302 300 299 297 296 295 294 293 293 292 291 290 290 289 289 289 289 289 289 288 288 288 288 288 288
323 329 328 329 330 327 325 322 317 317 317 316 316 319 318 317 316 314 312 311 309 308 306 303 301 299 298 296 295 294 293 293 292 291 290 290 289 289 289 289 289 288 288 288 288 287 287 287 286

GFSSGP_925_thetae_021.txt.gz
Theta_e
323 324 326 323 322 322 326 327 322 329 329 325 325 326 325 325 329 337 334 337 338 339 340 344 342 341 338 341 338 334 332 330 329 329 328 329 330 331 330 329 330 329 329 328 329 329 331 330 329
324 326 325 320 319 320 323 322 323 322 324 324 325 326 326 329 332 333 334 336 337 337 338 342 341 341 336 339 338 334 331 331 330 329 328 329 330 331 330 329 330 327 326 326 327 325 325 328 327
327 326 321 323 323 321 321 324 322 321 321 326 326 325 326 331 332 333 334 335 338 340 334 338 342 337 339 340 333 331 332 332 330 328 329 332 330 332 329 330 327 326 326 324 324 325 321 321 322
328 322 318 322 324 324 323 317 322 321 322 323 325 327 329 330 332 335 334 334 338 340 341 338 338 334 341 336 333 333 333 334 332 326 328 331 332 333 332 328 328 328 327 325 325 325 325 325 326
326 320 323 324 325 323 321 318 321 321 323 325 325 326 330 330 334 334 334 335 335 340 343 340 337 335 340 335 336 335 335 336 335 328 329 332 335 333 335 330 330 329 327 326 326 326 326 327 329
325 320 325 326 324 324 322 321 321 321 320 322 325 325 329 332 334 334 334 335 336 339 340 338 338 336 339 337 337 334 333 330 333 330 330 333 331 332 335 334 332 328 327 329 329 327 327 330 331
327 325 326 325 325 325 325 318 319 321 322 324 321 326 326 330 334 334 334 336 337 338 337 330 338 333 336 338 336 333 332 329 327 325 328 330 329 329 329 336 333 329 328 328 327 327 328 328 330
325 325 329 325 327 327 325 323 320 320 322 323 323 324 327 326 334 335 334 335 337 337 337 335 332 334 336 337 335 334 333 331 328 327 324 320 324 327 327 325 327 328 328 327 322 320 321 322 321
328 328 331 329 327 326 324 323 323 322 324 324 323 322 324 329 332 335 334 335 336 337 337 337 336 335 336 334 335 336 334 333 331 329 328 329 319 322 327 329 328 328 325 322 322 323 326 326 327
329 330 331 326 324 324 324 323 324 325 325 325 323 323 324 328 330 331 332 333 335 337 337 337 337 339 340 339 337 336 335 333 332 332 332 331 327 327 327 329 327 327 327 327 327 327 327 327 328
330 334 328 326 325 324 323 324 324 324 325 325 325 323 325 324 324 323 323 332 334 336 337 337 337 339 340 341 340 338 337 337 335 335 334 332 328 326 327 327 327 327 327 327 327 328 328 329 329
331 330 330 328 327 326 325 324 324 323 323 323 322 322 323 323 323 323 322 322 325 334 335 337 337 338 339 339 338 338 338 337 336 335 332 331 330 328 328 327 327 328 328 329 329 329 329 329 329
327 328 328 328 327 326 324 324 323 324 322 322 321 322 321 322 322 324 323 325 327 333 334 336 337 337 338 339 338 338 338 336 334 333 332 331 330 330 330 330 330 330 330 330 329 330 329 329 328
323 324 326 328 329 327 325 324 323 323 321 321 321 321 321 321 321 322 322 322 326 329 333 335 335 336 337 338 338 337 337 335 335 333 333 332 332 331 331 331 330 331 329 329 328 324 321 320 319
323 326 323 324 328 329 326 326 325 322 321 322 322 320 321 318 320 320 323 323 324 327 330 331 332 333 336 337 337 337 336 335 334 333 332 332 332 331 331 329 327 323 321 320 320 319 317 315 313
323 326 327 324 325 328 327 331 325 322 322 321 321 318 317 319 319 321 322 323 323 324 324 325 327 331 334 337 337 336 335 334 333 332 331 330 329 329 327 323 316 314 315 315 313 310 310 309 307
323 325 326 326 324 327 327 329 325 322 322 323 319 317 316 318 317 320 321 322 323 324 326 326 325 325 332 336 336 334 333 332 331 329 327 325 319 316 319 313 311 311 310 309 308 306 304 302 303
320 324 324 326 324 325 328 329 325 322 322 322 319 316 315 317 317 319 321 322 324 326 327 327 324 324 334 334 330 329 326 322 320 320 317 315 313 312 311 308 307 306 306 304 302 300 299 301 299
318 320 322 323 324 327 327 328 327 325 323 320 316 315 316 317 315 320 321 324 326 329 329 330 332 332 332 329 324 321 314 313 312 311 310 308 307 306 305 304 302 301 301 299 298 298 297 297 298
319 320 321 321 323 325 327 328 326 325 323 321 320 318 316 316 316 316 320 325 328 328 329 330 331 331 329 327 322 317 312 310 309 307 305 304 303 301 301 300 299 298 298 297 297 296 296 297 297
319 320 319 321 323 325 326 329 326 323 323 321 319 319 318 317 316 314 315 320 321 323 325 326 328 327 324 322 317 313 310 308 306 305 304 301 301 299 298 297 297 296 296 295 294 294 295 295 295
317 316 318 319 324 330 327 334 326 324 321 319 317 316 318 316 316 315 313 315 318 318 320 322 322 320 319 318 314 311 309 308 306 304 302 300 299 298 297 295 295 294 294 293 293 293 293 293 294
315 315 317 318 322 324 328 334 325 321 324 323 320 314 316 316 316 315 314 315 316 316 316 317 317 317 315 314 313 310 308 306 304 302 300 298 297 296 295 294 293 293 293 292 292 292 292 291 292
314 315 316 320 323 328 326 332 326 324 323 322 320 316 316 315 315 315 314 315 313 313 312 312 311 311 312 311 309 307 305 303 301 299 298 297 295 294 293 292 292 292 292 291 291 291 291 291 291
315 316 316 323 324 326 326 330 329 321 318 322 316 317 316 315 316 315 314 312 311 310 309 309 308 306 307 307 306 304 302 300 299 297 296 295 294 292 292 291 291 291 290 290 290 290 290 290 290
316 314 317 319 325 326 328 334 326 323 316 318 317 317 315 316 315 314 313 311 310 309 308 306 305 304 304 303 301 300 299 298 297 296 295 293 292 292 291 291 290 290 290 290 289 289 289 289 288
315 316 314 324 325 329 329 322 317 316 317 318 317 317 316 315 315 314 312 311 310 308 306 305 303 302 301 300 299 298 297 296 295 294 293 292 291 291 290 290 289 289 289 289 289 288 288 288 288
317 317 319 320 330 333 327 322 321 318 317 319 318 317 316 315 314 313 312 311 309 307 305 303 302 300 299 298 297 296 295 294 294 293 292 291 290 290 290 289 289 289 289 288 288 288 287 287 287
319 319 321 322 322 331 328 325 317 317 317 319 318 316 315 315 314 313 312 310 309 306 304 302 301 299 298 296 295 295 294 293 293 292 291 290 290 289 289 289 289 289 288 288 288 287 287 287 286
318 320 320 322 330 328 321 320 314 314 314 316 317 316 315 314 313 312 311 308 306 305 303 301 299 298 297 296 295 294 293 293 292 291 290 290 289 289 288 289 288 288 288 288 287 287 287 286 286

GFSSGP_925_thetae_024.txt.gz
Theta_e
324 323 326 321 319 320 324 325 319 322 326 324 324 325 325 325 327 331 334 338 338 339 344 344 340 343 338 340 338 333 332 329 330 328 329 332 332 332 330 330 330 329 328 327 328 330 331 330 329
324 327 324 317 318 319 321 320 323 322 322 320 323 323 324 332 332 331 336 338 337 338 343 343 341 340 336 339 339 335 331 330 329 328 328 329 331 331 330 330 329 327 325 325 325 324 327 328 327
324 325 320 320 320 321 319 321 321 323 321 323 326 323 327 331 332 332 334 338 337 336 340 342 341 340 337 341 338 332 330 332 330 329 330 330 330 332 330 330 327 327 326 324 325 325 321 320 323
328 321 316 322 323 322 321 321 318 320 321 323 324 327 329 329 331 335 334 337 338 336 336 340 341 339 340 340 334 332 331 333 331 328 329 332 332 331 330 329 328 328 326 326 325 324 325 326 326
325 317 323 323 323 321 321 320 317 320 322 323 322 325 330 331 334 334 335 337 338 338 336 340 341 337 341 336 334 335 334 335 333 330 331 332 334 333 333 331 329 329 326 326 327 326 326 327 329
325 318 324 324 322 321 320 320 317 320 320 322 323 327 329 331 333 334 333 335 337 339 340 339 338 337 340 335 336 335 336 336 335 330 331 333 331 331 335 332 331 328 326 326 327 329 328 328 330
327 323 325 324 323 323 323 322 318 319 321 324 322 328 326 328 333 333 333 334 337 340 342 339 338 336 339 336 336 335 334 329 331 328 331 331 330 329 332 335 334 329 328 329 328 325 326 326 326
324 324 327 324 327 326 323 323 318 319 320 322 321 327 328 324 334 333 334 335 338 339 338 335 337 336 336 337 337 334 333 329 326 323 323 328 327 327 328 330 329 328 328 327 323 320 320 323 325
326 329 330 329 326 326 322 324 321 320 322 323 322 320 321 327 333 333 333 337 339 338 336 334 334 334 334 337 336 334 334 331 330 328 326 326 321 322 327 328 328 327 326 325 325 326 326 327 327
329 332 331 325 325 324 323 323 321 324 324 325 324 322 325 329 332 332 332 332 335 337 337 336 334 333 335 336 334 335 334 333 330 328 329 328 325 323 326 327 328 327 327 327 327 327 327 328 328
329 334 327 326 325 323 323 322 321 323 324 323 325 323 322 324 327 329 331 333 334 336 336 337 336 336 337 337 335 337 336 334 333 332 332 331 330 327 327 327 327 327 327 327 328 328 329 329 328
326 328 329 329 327 327 326 323 323 322 321 321 321 321 322 321 320 320 321 327 332 334 336 337 337 337 338 340 340 339 337 336 335 334 334 332 329 326 327 327 327 327 328 329 329 329 329 328 328
322 325 326 327 328 327 326 326 323 322 320 319 320 320 320 319 319 322 324 322 322 328 334 336 337 337 338 340 340 338 338 337 336 335 334 331 328 328 328 330 330 330 329 329 328 328 326 323 322
319 321 323 324 325 326 328 327 322 322 320 319 320 321 319 319 319 321 322 321 325 327 331 335 337 337 338 339 338 338 337 337 334 332 331 331 331 331 331 331 329 328 326 323 321 317 317 317 316
320 322 322 321 322 325 326 329 329 322 319 320 320 319 318 318 319 319 321 321 324 326 331 333 336 337 337 338 338 337 336 335 333 332 332 332 331 331 330 328 325 318 321 316 317 316 311 310 309
321 320 324 321 322 323 327 332 327 322 319 320 319 318 317 317 317 319 321 322 324 326 329 332 334 336 337 337 337 337 334 333 333 332 331 330 329 327 326 323 318 315 315 313 310 308 305 302 301
320 321 321 324 321 324 326 328 325 322 320 320 319 317 316 315 315 318 321 322 322 323 325 325 328 332 336 336 336 334 332 331 330 328 326 326 324 323 322 315 311 309 309 307 304 301 299 299 297
321 318 319 321 322 322 325 326 324 323 320 321 321 321 314 315 316 318 320 321 323 324 325 325 325 326 335 334 332 328 328 325 323 323 322 320 316 313 310 307 305 304 303 301 299 298 296 298 296
316 317 318 318 319 321 324 324 323 323 323 321 318 316 313 314 315 317 320 322 325 326 327 326 323 327 332 328 324 322 318 316 317 314 313 311 308 306 304 302 301 300 299 297 296 295 295 296 295
318 318 318 317 316 319 323 324 323 323 323 323 323 319 313 315 315 315 321 324 327 327 329 328 327 325 326 327 323 321 315 311 310 307 305 304 303 302 301 300 298 297 296 294 294 294 294 294 294
318 319 317 318 317 316 317 319 322 323 322 322 321 320 314 317 316 315 318 322 325 326 328 329 327 326 325 324 320 313 310 306 304 303 301 300 300 300 298 297 296 295 294 293 293 293 292 292 293
317 316 318 318 318 319 321 325 321 323 323 322 322 318 316 317 315 314 315 316 321 323 326 327 326 325 323 322 317 313 307 304 303 302 300 299 298 297 296 295 294 293 293 292 292 292 291 291 292
315 313 314 316 318 319 318 322 321 321 324 324 322 319 316 316 315 316 315 315 318 320 321 323 323 321 319 319 316 310 307 305 302 300 299 297 296 295 294 293 293 292 292 291 291 291 290 290 290
313 314 314 314 316 320 315 321 321 324 324 323 322 316 315 316 315 314 314 313 313 316 317 317 317 316 315 313 310 308 305 303 300 298 297 296 295 294 293 292 291 291 290 290 290 290 289 289 289
312 314 315 318 316 315 313 318 318 320 321 320 321 315 315 315 314 314 312 310 308 309 312 313 314 312 312 310 308 306 303 301 299 298 297 295 294 293 292 291 290 290 290 289 289 289 289 288 288
314 314 314 313 315 312 321 323 322 320 318 318 317 316 315 314 315 314 311 309 307 306 307 308 309 307 307 306 304 302 301 300 298 297 296 295 293 291 290 290 289 289 289 289 289 288 288 288 287
314 316 311 312 316 322 323 324 321 321 315 315 315 315 315 315 315 313 310 308 306 305 305 305 304 303 303 302 300 299 299 298 297 295 294 293 291 290 290 289 289 289 289 289 288 288 287 287 287
313 312 315 315 315 318 325 325 325 321 318 316 316 316 316 315 314 312 310 307 305 304 304 304 303 301 300 299 299 297 297 296 295 294 293 291 290 290 289 289 289 289 289 288 288 287 287 287 286
315 315 315 313 315 320 323 327 320 319 319 317 317 317 316 315 314 312 309 307 304 303 303 302 300 299 298 297 296 296 295 294 293 293 291 290 289 289 289 289 289 288 288 288 287 287 287 286 286
314 314 315 316 315 323 323 322 315 314 316 317 317 315 315 314 313 311 309 305 303 301 301 300 298 297 296 296 295 294 293 293 292 291 290 289 289 288 288 288 288 288 288 287 287 286 286 286 286

GFSSGP_925_thetae_027.txt.gz
Theta_e
328 325 326 319 319 319 322 324 320 322 325 323 321 322 325 325 327 329 333 338 338 339 344 344 340 343 343 343 340 335 331 329 331 331 334 333 331 331 331 331 330 329 328 326 328 331 333 332 329
325 325 322 315 319 317 319 319 323 321 321 319 322 322 325 333 331 331 337 338 339 340 344 344 340 343 340 340 339 335 333 330 330 329 331 333 332 331 330 329 328 327 327 327 326 326 329 328 327
324 324 318 318 317 321 318 319 320 319 318 323 324 324 327 333 332 331 333 337 340 339 342 342 340 342 338 340 339 336 334 331 330 328 329 329 331 331 330 330 327 328 326 325 325 324 321 320 321
327 320 315 321 322 321 317 319 320 318 319 322 323 329 328 328 330 333 335 337 338 336 340 341 340 340 338 341 338 335 335 334 330 330 331 332 329 333 332 330 328 328 325 324 324 323 323 324 326
322 316 322 323 323 320 318 320 319 318 319 322 321 326 330 329 332 333 336 336 336 335 338 341 340 339 338 341 336 336 335 335 331 330 331 332 332 333 333 331 329 329 324 325 327 326 326 327 328
325 317 323 324 321 320 318 319 319 317 317 322 322 328 328 330 332 333 336 336 337 335 337 340 341 340 339 340 335 336 336 335 334 330 332 333 331 331 333 333 329 329 326 326 326 328 328 328 329
325 321 324 323 321 322 321 319 322 320 319 322 320 328 326 326 333 332 335 337 337 337 337 339 341 338 340 338 335 336 335 336 335 331 332 333 330 329 334 333 333 331 327 328 328 326 325 326 328
323 323 327 323 324 324 323 323 319 317 317 320 320 327 328 324 331 331 332 336 337 338 340 339 339 337 339 337 336 335 334 330 328 326 329 329 329 328 328 333 331 328 327 328 326 324 323 325 326
322 328 329 327 325 324 322 323 321 320 320 322 321 322 321 325 332 331 332 337 340 340 341 340 338 338 337 338 336 336 333 331 327 325 322 324 324 325 326 327 327 327 327 326 326 326 327 327 327
329 331 329 324 323 323 323 322 320 321 321 323 323 321 325 330 332 330 331 335 339 341 341 338 336 337 336 337 338 336 334 332 330 328 327 327 323 319 325 327 328 327 327 326 327 327 327 328 328
328 332 327 327 325 323 323 322 322 323 322 321 323 322 322 327 329 330 330 332 337 338 338 337 335 335 334 336 337 335 335 334 331 329 328 329 328 326 326 326 327 327 326 327 327 328 328 328 328
324 325 328 328 327 327 327 323 323 321 320 319 319 320 321 320 323 326 329 331 331 333 335 336 336 335 333 335 336 335 336 334 333 332 331 331 331 328 326 326 326 326 327 328 328 327 327 326 324
321 323 323 324 326 326 326 327 325 323 320 319 318 318 318 318 318 320 322 323 324 328 332 335 336 335 335 336 337 337 337 336 335 334 333 333 332 327 326 328 329 329 328 328 325 323 321 319 318
318 318 319 320 322 323 326 326 325 322 320 318 318 318 318 317 316 319 320 320 321 322 321 332 335 336 336 336 339 339 338 337 336 335 334 332 329 329 329 329 328 325 323 322 318 317 315 313 311
318 320 319 320 320 321 323 325 326 324 322 320 319 317 318 317 318 317 321 321 322 323 324 326 333 336 336 337 339 339 338 337 336 333 330 330 330 330 328 327 326 322 316 316 313 310 307 306 304
320 319 322 319 320 320 322 325 324 322 324 321 318 316 316 316 316 319 320 321 321 321 324 327 331 335 336 336 339 338 335 335 331 331 331 330 329 327 326 324 319 313 313 310 306 304 301 300 299
319 320 320 320 319 322 323 324 322 322 322 321 319 317 317 316 314 318 319 320 321 324 326 329 331 334 335 337 337 334 333 332 331 330 328 326 326 325 324 316 312 308 306 303 301 299 297 297 296
318 319 318 319 320 319 321 322 320 320 321 319 318 317 317 316 315 317 318 320 321 322 325 328 331 334 335 334 332 329 329 325 322 323 323 323 322 316 312 306 304 302 301 300 298 296 295 296 294
316 316 316 317 316 316 317 319 320 319 319 321 319 318 319 314 313 316 318 319 321 323 324 324 325 331 334 330 322 320 319 318 316 317 316 318 313 306 304 302 301 300 299 296 294 294 293 294 293
315 317 317 315 315 315 315 316 315 314 315 320 320 320 320 314 314 314 317 320 324 324 325 324 323 329 328 327 323 321 314 312 310 307 306 305 303 302 302 300 299 297 295 294 293 292 292 292 293
314 315 314 316 314 314 315 316 313 313 315 318 320 320 319 316 314 314 315 321 324 325 326 324 322 324 324 325 321 314 310 305 302 302 301 300 301 300 299 298 297 295 294 293 292 291 291 291 291
314 313 315 317 318 316 315 316 314 314 315 317 319 320 319 313 314 315 316 318 322 325 326 324 322 322 322 321 320 318 309 302 300 300 299 299 299 298 297 296 294 293 292 291 291 290 290 290 290
314 313 315 316 315 315 315 316 313 314 315 317 318 319 317 314 314 315 317 318 322 323 325 323 321 320 319 320 321 317 308 304 300 299 298 298 297 296 295 293 292 291 291 290 290 290 290 289 289
312 313 314 315 315 316 312 314 313 310 313 318 318 317 316 315 314 315 314 316 316 319 322 320 319 317 318 319 317 316 308 302 299 297 297 296 295 294 293 292 291 290 290 290 289 289 289 288 288
313 315 316 317 317 313 310 312 312 310 313 317 318 317 315 313 314 314 313 311 310 313 316 316 317 314 315 314 312 308 305 302 300 298 297 295 294 293 291 290 290 289 289 289 289 289 288 288 287
313 314 316 314 313 310 310 315 313 311 311 311 312 314 312 313 314 315 314 311 309 309 312 313 313 311 310 309 307 305 304 301 299 298 296 295 294 292 290 290 289 289 289 289 289 288 288 287 287
315 315 312 314 311 315 316 314 315 311 316 315 314 313 313 313 315 315 311 308 307 306 308 310 309 307 307 306 304 301 300 298 297 296 295 294 292 290 290 289 289 289 289 288 288 288 287 287 287
313 311 315 315 314 311 308 313 321 315 313 312 311 314 313 313 315 312 309 306 304 304 306 307 307 305 303 302 300 299 298 297 296 295 293 292 290 289 289 289 289 288 288 288 287 287 287 286 286
314 314 313 312 311 309 312 308 307 315 316 314 313 313 314 314 313 310 307 305 302 302 302 302 302 301 299 298 297 297 296 295 294 293 292 291 289 289 288 288 288 288 288 287 287 286 286 286 286
311 312 313 313 312 311 312 314 313 312 312 314 315 316 315 314 311 309 305 302 301 299 299 298 298 298 297 297 296 295 294 293 293 292 290 289 289 288 288 288 288 287 287 286 286 286 286 286 286

GFSSGP_925_thetae_030.txt.gz
Theta_e
326 324 325 317 319 316 319 320 319 320 324 321 319 322 324 324 328 330 333 337 337 339 343 343 340 342 343 342 339 333 331 331 332 332 333 337 334 330 331 331 330 329 327 327 327 330 332 332 330
326 325 320 313 319 319 317 318 321 321 320 317 319 322 324 332 330 331 336 337 338 339 343 342 341 342 343 342 339 333 332 332 330 331 336 332 331 331 330 329 328 327 327 326 325 327 329 329 327
326 323 317 317 316 320 319 316 320 319 316 320 324 324 326 332 331 331 333 337 339 340 343 343 340 344 342 342 339 334 334 332 330 328 331 332 331 331 331 329 327 328 325 324 323 321 320 320 318
326 318 313 320 321 319 316 316 319 318 318 320 323 329 326 328 330 332 333 337 339 341 343 343 340 342 341 340 338 337 335 332 330 329 330 329 331 331 331 331 328 328 323 322 323 321 321 321 324
321 316 321 322 321 319 317 318 319 318 316 319 320 326 329 328 331 332 335 336 338 340 343 342 340 341 339 341 339 337 336 335 331 331 332 331 331 333 333 332 329 329 322 323 326 326 326 327 328
323 316 322 323 321 320 318 318 319 317 316 316 321 327 328 328 332 335 336 335 336 335 340 341 341 339 338 341 339 335 335 335 333 330 332 332 332 332 333 333 330 329 326 326 327 329 330 329 329
324 320 323 322 320 320 319 317 319 320 317 319 320 326 325 325 331 334 336 336 336 335 337 340 341 339 338 341 338 335 335 334 334 331 331 332 331 329 333 333 331 332 329 329 331 331 330 328 329
321 321 326 321 324 323 321 322 320 316 317 318 320 325 327 324 331 332 337 337 338 337 337 338 340 340 337 341 337 335 335 333 331 328 330 331 330 328 331 332 332 330 329 329 331 329 328 327 327
319 327 327 325 323 323 321 322 320 319 318 319 320 322 321 324 330 330 332 337 338 338 337 338 340 341 337 340 337 336 335 332 329 327 327 329 328 327 327 327 329 328 327 327 327 327 327 327 327
327 328 327 323 320 323 321 322 320 322 321 321 321 321 324 327 329 330 331 334 338 338 339 339 339 340 337 339 337 336 335 333 329 327 325 324 323 321 324 327 327 327 327 326 326 327 327 327 328
326 329 325 325 325 324 323 322 321 322 323 320 321 318 320 327 329 328 330 333 336 337 339 340 340 338 338 338 337 337 334 333 331 329 328 328 326 323 323 325 325 326 326 326 327 327 327 327 325
324 323 326 327 327 327 327 324 324 321 320 318 319 318 318 319 325 328 329 330 332 335 337 339 339 338 337 337 336 336 334 334 332 330 328 329 329 328 327 326 326 326 327 328 327 326 325 322 321
322 321 321 320 320 323 324 326 326 324 321 320 319 318 317 316 316 321 326 327 328 330 331 334 337 337 336 337 335 336 334 335 333 332 331 331 331 330 325 326 328 329 327 326 324 321 319 316 315
317 317 317 318 319 319 322 323 323 323 321 319 318 319 317 315 316 318 319 320 320 322 322 323 331 335 336 335 334 336 336 336 335 333 333 333 332 328 327 328 326 321 322 319 317 315 314 309 305
317 319 317 317 318 318 319 322 322 320 320 322 322 319 318 317 317 316 320 320 322 322 322 321 321 331 336 335 335 337 337 337 336 335 334 331 329 330 328 322 319 320 315 313 311 307 303 302 301
320 318 320 316 317 318 320 323 319 319 320 322 321 318 317 317 317 318 319 320 322 321 321 321 322 327 334 335 335 337 338 337 336 334 330 330 330 325 324 323 317 313 310 306 303 301 300 299 298
320 320 318 318 317 319 321 322 322 317 319 319 318 316 315 315 314 318 319 320 321 320 320 321 324 328 333 335 335 337 337 335 333 329 330 327 323 323 325 321 313 305 303 302 300 298 297 296 296
317 318 317 317 317 315 317 318 316 316 317 317 317 317 315 315 316 318 318 319 319 320 323 325 327 330 332 334 335 334 331 329 328 327 323 321 320 322 321 314 303 301 301 300 298 296 294 294 293
316 316 318 315 314 314 315 315 314 313 314 316 317 318 316 316 316 316 317 317 319 320 323 325 328 331 332 332 328 323 322 320 321 318 317 316 314 314 307 303 301 299 300 296 295 294 293 292 292
315 317 316 314 312 314 314 314 313 312 313 314 316 317 317 317 313 312 315 317 319 321 322 322 328 329 329 328 325 322 318 313 315 313 310 306 305 303 302 301 299 298 296 294 293 292 292 291 291
312 312 312 312 311 312 312 313 310 309 310 311 311 312 315 317 316 312 312 316 320 322 323 322 325 327 326 326 322 315 311 306 303 303 302 300 301 301 300 299 297 295 293 292 291 291 291 290 290
313 311 312 313 314 314 313 315 311 311 310 309 309 312 316 317 313 312 312 316 320 323 324 323 322 324 323 322 319 318 309 302 299 299 299 298 298 298 298 297 295 293 292 291 290 290 290 289 289
312 311 312 314 315 314 314 316 310 308 309 309 310 311 313 315 314 313 312 316 320 323 324 323 321 320 320 319 317 313 306 303 299 298 297 296 296 296 295 294 293 292 291 290 290 289 289 289 288
312 313 314 315 315 317 313 312 311 308 308 307 310 310 314 315 311 312 313 317 319 321 322 320 318 317 317 316 313 313 311 300 297 296 296 295 295 294 293 292 291 290 290 290 289 289 289 288 287
313 316 316 317 317 314 309 312 312 307 307 309 309 311 312 312 311 312 313 314 313 316 317 316 316 312 313 313 311 311 307 302 299 297 296 295 294 292 291 290 290 289 289 289 289 289 288 288 287
313 314 316 316 314 308 308 311 310 307 308 308 308 309 310 312 310 313 314 315 313 313 315 314 313 311 311 311 310 308 305 301 299 298 296 295 294 292 290 290 289 289 289 289 288 288 288 287 287
315 315 312 316 314 316 312 310 310 310 308 311 309 308 307 308 311 313 314 314 312 311 311 313 311 310 309 308 306 303 301 299 297 296 295 294 292 290 289 289 289 289 289 288 288 287 287 286 286
313 312 315 315 316 316 309 307 309 308 306 307 307 307 309 310 312 313 313 310 309 308 308 309 310 307 305 304 302 300 299 297 296 295 293 292 290 289 289 289 289 288 288 288 287 287 286 286 286
315 314 315 313 313 308 309 306 303 304 305 309 312 309 307 311 313 312 309 306 303 303 304 304 304 303 301 300 298 297 295 295 294 293 291 290 289 288 288 288 288 288 287 287 286 286 286 286 286
311 312 312 312 311 310 307 309 308 308 310 313 314 311 310 311 311 308 303 301 301 299 299 299 298 299 298 297 296 295 294 293 293 291 290 289 288 288 288 288 288 287 287 286 285 285 286 286 286

GFSSGP_925_thetae_033.txt.gz
Theta_e
324 324 324 318 326 322 322 321 320 323 324 322 320 323 326 325 332 336 333 337 337 341 344 346 342 342 343 340 335 331 331 331 329 332 334 339 334 331 329 331 329 328 326 326 329 332 333 332 331
325 324 319 318 325 325 324 319 322 322 322 319 320 324 326 332 331 332 337 337 337 342 344 345 341 341 342 340 336 332 332 333 331 332 335 336 331 330 331 329 328 328 327 324 322 328 330 329 327
326 322 322 322 322 325 325 318 322 321 319 319 324 324 327 332 332 332 334 337 338 342 343 342 340 340 342 341 337 333 332 330 330 331 335 332 329 331 330 328 328 328 323 323 323 321 323 322 319
325 320 317 324 324 321 320 317 319 321 321 319 322 329 327 327 331 332 334 337 338 341 343 342 341 343 342 340 337 335 334 332 330 329 330 332 330 331 331 330 328 328 322 323 323 322 321 322 324
320 319 324 324 323 320 319 318 319 321 319 318 320 326 330 328 330 330 335 336 338 341 343 343 340 343 341 340 338 337 335 333 331 330 331 330 331 333 333 331 329 328 322 323 327 327 327 327 328
325 319 325 326 323 320 319 319 320 319 318 318 321 326 329 327 332 335 336 337 338 338 342 342 341 342 341 340 339 337 336 335 332 331 332 330 332 333 333 334 331 329 326 327 329 329 330 330 330
325 324 326 323 322 321 320 318 320 320 320 319 321 327 326 326 332 336 337 338 338 337 339 341 343 341 339 341 339 336 334 334 332 331 331 330 331 330 332 333 331 331 329 330 329 329 331 329 329
322 324 325 324 325 324 321 320 321 317 319 316 320 326 327 325 331 336 337 337 338 337 338 340 341 341 340 341 339 335 334 333 331 328 329 331 331 328 335 333 331 330 329 330 330 330 330 328 327
319 330 330 326 323 323 321 322 321 319 320 320 320 321 321 324 330 335 336 337 337 337 337 339 340 341 340 340 340 335 335 333 330 328 328 330 329 328 327 329 329 328 329 327 328 327 327 327 327
328 330 328 324 321 323 322 322 322 323 323 323 322 320 322 326 328 331 333 336 338 338 337 338 340 341 340 339 340 336 335 334 330 327 325 326 327 326 325 327 328 327 327 326 326 327 327 328 327
326 330 325 325 324 325 325 324 322 323 325 323 323 322 320 327 329 329 330 332 335 336 337 338 339 340 341 338 339 337 336 333 331 328 326 325 324 321 321 324 324 325 326 326 327 327 326 324 322
324 323 325 326 325 326 327 325 328 323 324 320 320 320 319 321 322 329 329 330 332 334 335 337 339 339 340 338 338 337 336 334 332 328 327 328 327 327 326 326 326 326 326 327 326 324 323 321 319
323 321 321 321 318 319 322 325 326 326 324 322 323 322 322 321 319 319 324 328 329 330 332 335 338 339 339 337 338 337 336 334 333 330 328 329 329 329 326 325 327 328 326 324 322 319 317 315 311
317 318 318 317 318 318 321 321 322 322 322 324 322 323 321 320 320 319 318 319 321 323 322 325 332 337 338 337 336 335 336 334 334 332 331 331 331 330 326 327 327 321 320 320 317 315 312 308 303
317 320 318 318 318 319 318 321 321 320 320 322 323 322 323 322 322 319 320 320 320 321 321 321 321 323 335 336 335 334 335 335 335 334 333 333 332 327 328 328 322 318 318 315 311 306 302 301 300
319 319 320 316 317 317 319 319 319 317 318 320 320 321 322 322 322 322 321 321 321 321 321 320 320 320 327 336 336 334 336 336 336 335 334 333 328 329 327 324 320 316 311 306 302 301 299 299 298
319 318 319 317 316 318 320 322 319 317 316 318 319 320 320 320 321 320 320 320 319 320 320 320 320 322 325 333 336 334 336 336 336 335 333 328 329 326 323 322 318 308 303 301 300 299 298 296 296
316 318 316 317 315 315 316 317 315 314 315 316 316 316 317 318 318 318 319 319 319 320 319 320 320 324 329 332 334 334 336 336 334 332 329 328 323 320 320 316 311 301 301 301 299 297 295 294 294
314 316 317 317 315 315 316 315 315 314 314 314 314 314 315 316 317 317 318 319 318 318 319 321 323 327 330 331 331 328 330 327 326 326 324 321 318 313 312 308 302 301 301 298 296 295 293 292 292
316 317 315 313 312 313 313 314 312 312 312 312 313 313 314 315 316 316 315 316 318 319 319 321 326 328 329 328 325 321 320 315 317 315 314 313 312 305 302 302 302 299 297 295 294 293 292 291 291
312 314 314 313 311 311 311 312 310 309 310 310 311 312 312 314 316 317 315 315 317 318 319 321 326 327 326 326 325 319 314 310 307 305 305 303 302 300 301 301 300 296 295 293 292 291 291 291 290
313 310 312 312 313 314 311 313 310 310 310 309 309 310 310 311 312 315 316 315 316 318 320 321 324 324 324 325 323 320 313 307 301 301 300 298 299 299 299 298 296 294 293 291 291 290 290 290 290
312 310 311 312 314 313 313 314 312 309 310 309 309 308 308 311 312 314 316 315 316 318 321 321 321 322 321 320 321 314 310 304 300 298 297 296 296 297 296 295 294 292 291 290 290 290 290 289 289
310 311 313 314 314 318 314 314 314 311 309 308 309 308 309 311 312 314 314 314 316 318 321 321 319 318 317 317 314 313 310 301 298 295 296 294 294 294 293 293 292 291 290 290 290 289 289 288 288
312 316 316 317 318 316 310 314 313 309 310 309 307 308 307 309 312 313 314 316 316 317 319 318 316 314 314 313 311 310 306 303 299 295 295 293 293 292 291 291 290 290 290 290 289 289 288 288 287
313 313 316 316 314 311 307 314 312 308 309 308 308 307 309 309 312 312 313 316 316 316 315 314 312 311 309 309 308 306 302 299 296 296 295 295 294 292 291 290 290 290 289 289 289 288 288 287 287
314 315 312 315 314 317 313 309 308 307 307 307 308 309 309 308 309 312 313 315 315 315 314 312 310 307 308 306 306 304 302 300 297 296 295 294 292 291 290 289 289 289 289 289 288 288 287 286 286
313 311 315 315 315 315 313 311 310 307 308 307 306 311 311 308 308 311 314 315 315 314 311 309 308 306 306 306 305 303 300 297 295 295 293 292 291 290 289 289 289 289 288 288 287 287 286 286 286
314 313 315 313 315 315 312 310 305 306 305 306 312 312 312 311 308 312 314 312 310 307 306 304 304 304 301 301 300 298 296 295 294 293 292 291 290 289 289 289 288 288 288 287 287 286 286 286 286
310 313 313 315 314 314 312 312 307 305 307 311 308 313 313 311 311 311 308 304 305 303 302 301 299 298 297 297 296 295 294 294 293 291 291 290 289 289 288 288 288 288 287 286 286 285 286 286 286

GFSSGP_925_thetae_036.txt.gz
Theta_e
328 327 323 324 327 327 327 322 325 327 327 327 325 327 331 330 337 337 337 340 340 343 348 348 344 342 342 340 333 330 331 332 333 333 336 338 337 334 333 331 328 327 326 328 332 334 333 334 332
328 324 324 325 327 328 326 324 324 327 326 325 325 326 329 333 333 337 338 340 341 345 348 348 343 341 341 339 334 332 333 332 331 333 335 337 332 332 330 328 329 329 326 321 324 329 329 329 327
327 321 326 326 326 327 327 325 324 325 324 324 328 328 330 334 335 336 338 339 341 345 346 346 343 342 342 340 335 333 333 330 331 334 338 334 331 328 328 329 330 326 324 325 323 324 324 322 321
326 324 324 326 326 326 325 323 325 325 325 324 326 331 331 332 335 335 336 340 341 344 345 346 342 342 341 339 336 334 333 331 330 334 334 332 330 330 331 329 328 322 322 326 325 324 323 324 326
325 325 326 326 325 325 324 324 324 325 325 324 323 329 331 333 333 334 339 341 341 343 344 345 342 340 342 339 337 335 334 332 330 331 331 329 332 332 333 331 328 327 323 324 328 329 329 329 329
327 325 325 326 325 324 324 323 323 324 324 324 323 326 329 332 335 338 340 341 341 343 344 345 342 344 342 340 338 337 335 333 331 331 330 331 332 333 334 334 331 329 326 327 328 328 331 330 330
325 325 323 324 324 324 324 323 324 324 324 325 324 327 329 331 336 340 341 341 342 342 343 343 344 344 342 341 339 337 335 334 332 331 332 331 333 332 331 333 332 330 328 328 329 328 331 330 329
326 325 323 325 324 324 322 323 323 323 324 321 324 326 328 329 336 339 340 341 341 341 342 342 343 344 343 344 340 336 335 334 330 329 330 331 331 329 334 333 331 329 328 329 330 329 330 328 327
326 325 325 324 324 323 323 323 323 323 324 325 324 325 326 326 334 338 339 340 340 340 341 341 342 343 341 342 342 337 336 334 331 327 328 330 332 330 332 334 329 328 331 327 327 327 327 327 327
327 327 324 323 324 323 323 323 325 325 324 325 326 324 325 328 332 337 338 339 339 340 340 342 342 342 342 341 342 340 338 337 334 330 328 330 331 330 328 328 327 327 327 326 326 327 327 328 327
326 327 324 326 325 326 326 326 325 325 326 325 326 325 325 326 330 332 334 335 338 339 340 341 342 342 342 341 341 340 339 337 334 331 328 327 327 326 325 328 327 328 327 329 328 329 323 320 319
325 324 325 325 326 327 327 326 327 326 325 324 324 324 326 327 327 329 332 333 334 337 339 340 341 343 342 341 339 339 338 337 335 331 329 329 327 327 328 328 328 328 328 329 326 321 317 314 313
322 321 321 321 322 322 321 323 324 324 325 325 326 326 326 327 327 326 326 332 332 334 336 339 341 342 342 342 339 338 338 337 335 331 331 330 330 330 328 328 328 329 324 320 319 317 313 311 309
320 321 321 320 321 320 321 321 321 321 321 321 322 323 324 326 326 326 325 324 325 329 332 334 338 341 342 342 340 339 338 338 336 333 332 331 331 329 329 325 322 324 317 315 314 312 309 306 304
320 322 320 320 319 320 319 321 321 320 320 320 321 321 322 322 323 325 325 325 324 324 324 324 330 337 340 341 340 339 338 338 337 335 333 331 331 330 326 327 326 321 317 310 309 307 304 303 302
319 319 322 319 319 319 319 320 318 319 320 321 321 321 321 321 322 323 325 325 325 324 323 322 321 328 334 337 340 339 338 338 338 336 333 332 332 328 327 327 322 319 312 307 304 303 303 302 301
320 322 321 320 317 319 320 322 320 320 319 320 321 321 322 322 322 320 321 322 323 323 323 323 322 323 327 333 338 339 338 339 338 335 333 332 332 327 328 321 315 312 308 303 301 301 300 300 300
319 320 319 319 317 317 318 319 319 318 318 319 320 320 320 320 321 321 322 322 322 321 322 322 322 324 328 332 336 338 338 339 335 331 332 332 328 326 322 315 310 306 302 301 300 299 298 298 297
316 318 319 318 316 316 317 317 316 316 316 316 316 317 317 319 319 319 320 321 322 321 322 322 323 325 329 332 335 337 336 327 324 324 329 329 325 320 318 312 302 301 300 299 298 298 298 297 296
316 317 318 316 314 314 314 314 313 312 313 313 314 314 314 314 316 317 318 320 321 321 322 323 324 327 330 332 331 330 327 318 318 319 320 320 319 319 313 305 300 300 298 297 297 297 297 296 295
316 317 316 316 314 312 313 314 314 313 312 312 312 312 313 313 314 314 316 318 320 321 322 323 325 329 330 329 329 321 313 310 308 307 311 309 314 311 304 302 298 298 297 296 296 296 296 296 295
315 312 313 313 314 317 313 317 315 314 314 313 313 313 313 313 314 314 314 316 318 320 322 323 325 327 328 325 320 318 320 314 308 305 304 307 305 303 298 299 297 296 296 295 294 294 294 295 295
314 312 312 313 315 314 315 316 315 314 314 313 313 314 313 313 313 314 314 314 316 319 322 323 325 326 323 321 322 323 321 315 307 302 298 299 298 297 296 296 295 295 294 293 293 293 293 293 293
312 313 313 313 315 319 315 316 315 314 314 314 312 312 312 312 313 313 313 314 315 318 323 323 323 323 321 322 322 324 318 308 302 298 295 296 295 295 294 294 294 293 293 293 292 292 292 291 291
313 315 317 319 318 317 312 314 315 312 312 312 313 312 312 312 312 313 316 316 317 318 322 323 322 321 320 320 321 320 311 307 304 298 296 295 294 294 294 293 293 293 292 291 291 291 291 291 291
314 314 317 317 315 314 311 314 313 312 312 312 312 312 311 312 314 313 315 318 318 319 322 322 321 319 318 318 317 313 307 302 298 296 295 294 294 293 293 293 292 291 291 291 291 291 290 290 290
314 316 313 316 315 317 313 311 312 311 311 311 311 311 312 313 313 314 313 316 318 320 322 321 320 317 316 316 310 303 301 299 297 295 295 294 294 292 292 292 291 291 290 290 290 290 289 289 289
314 312 315 316 315 314 313 312 313 311 311 311 310 311 312 312 313 315 314 315 317 320 321 320 318 315 314 311 307 301 298 297 297 295 294 293 292 292 291 291 291 290 290 289 289 289 288 288 289
313 314 315 313 314 316 315 314 310 310 309 310 309 311 312 314 315 316 314 315 318 320 320 317 315 312 309 306 302 298 296 297 295 294 293 293 292 291 291 290 290 290 289 289 288 288 288 288 288
311 312 313 317 315 315 316 316 310 310 310 310 310 310 312 315 316 316 315 317 318 317 316 314 310 308 304 301 298 295 294 294 294 293 292 292 291 290 290 290 289 289 288 288 287 287 288 288 288

GFSSGP_925_thetae_039.txt.gz
Theta_e
329 328 326 326 328 328 329 328 324 327 326 327 328 329 332 333 336 340 339 341 341 346 347 346 343 342 342 343 339 332 332 335 336 338 341 340 338 335 333 330 328 327 329 332 335 335 335 333 332
329 326 326 327 328 330 329 327 324 325 327 327 327 328 330 334 334 340 340 340 341 345 347 350 343 341 341 340 334 333 334 333 333 334 339 336 334 334 330 329 330 328 326 325 329 329 329 329 328
328 325 327 328 328 328 329 327 324 326 326 327 328 330 333 335 336 338 340 340 342 345 348 350 343 341 342 339 336 336 336 332 333 335 337 333 331 328 329 331 328 324 323 325 322 326 325 323 322
327 325 325 328 328 327 327 326 325 326 326 327 329 331 332 334 336 337 339 339 343 345 347 348 342 341 341 338 336 336 332 331 333 338 336 333 331 330 330 331 327 322 326 326 326 324 323 324 325
326 326 328 326 325 325 326 325 325 325 326 326 327 330 333 335 335 338 340 339 342 344 346 348 342 341 340 339 336 336 333 331 332 335 334 332 331 332 333 331 328 323 324 327 329 330 330 328 327
327 325 327 327 326 325 325 325 325 325 325 326 326 329 332 335 336 339 340 339 341 342 344 346 343 340 341 339 337 336 335 332 332 332 332 332 334 334 334 333 330 327 325 326 329 330 331 330 330
327 327 325 325 325 324 324 324 324 325 325 325 325 328 331 333 338 340 340 339 340 342 343 345 346 344 342 339 338 337 334 332 330 332 333 332 332 332 333 334 332 330 326 327 329 328 330 330 329
326 326 326 324 323 324 324 324 324 324 324 324 325 325 328 335 339 339 339 340 340 341 342 343 343 346 345 343 339 337 335 333 331 330 332 331 331 330 332 332 332 329 328 328 329 328 329 328 327
327 329 327 325 323 324 324 323 324 323 324 325 325 325 328 328 338 339 339 340 340 340 341 341 342 343 344 344 342 338 335 334 330 329 330 330 332 331 334 334 331 328 330 327 327 327 327 327 328
328 326 324 322 322 324 324 324 324 324 324 324 326 325 326 329 334 337 338 339 340 340 339 340 341 341 341 342 343 340 338 336 333 329 328 331 331 331 331 332 327 327 327 326 326 327 328 328 328
325 327 323 323 325 325 325 323 324 325 326 324 324 326 326 328 330 335 337 336 338 339 340 341 341 341 340 339 341 340 338 337 335 332 328 330 330 330 327 328 328 329 326 330 329 329 326 323 322
325 324 324 324 325 327 327 325 325 325 325 324 325 327 327 327 328 330 332 334 335 337 339 340 342 342 341 341 339 340 339 337 336 332 328 328 326 326 327 328 328 329 328 329 328 324 321 318 316
323 323 321 322 323 324 324 324 325 325 325 324 325 325 326 327 327 327 328 331 332 334 337 339 340 342 343 341 339 339 338 337 337 333 330 329 328 328 329 329 328 329 329 325 323 321 318 316 313
322 322 322 322 322 322 323 322 321 321 321 321 322 324 324 326 326 327 328 327 331 332 334 336 339 341 342 342 341 339 338 338 337 334 331 331 331 331 329 330 328 323 323 321 319 317 314 311 307
321 323 322 322 321 321 320 322 322 321 321 321 321 321 321 321 323 325 326 327 327 328 330 332 335 339 340 342 341 339 339 338 337 335 333 332 333 331 330 327 322 325 320 315 314 311 307 306 305
321 322 324 321 320 320 320 323 320 320 321 321 321 321 321 321 321 321 323 326 327 327 326 326 327 333 337 339 341 340 339 339 337 336 334 333 333 330 326 324 321 320 315 312 309 307 306 305 304
322 324 323 322 320 320 321 324 321 321 321 321 321 321 322 321 321 320 321 323 326 327 326 326 324 325 330 335 338 339 338 338 338 336 335 334 331 328 325 322 317 314 311 309 305 305 303 303 302
324 323 322 321 320 319 319 320 319 319 320 321 321 321 321 321 322 322 321 321 322 325 326 326 325 324 325 328 333 337 338 338 338 338 335 333 326 327 321 317 312 310 307 305 304 303 301 300 300
318 319 320 319 318 318 319 318 318 317 318 318 318 319 319 319 321 320 321 321 322 322 324 325 325 325 325 328 332 336 338 338 339 337 334 327 321 323 322 317 310 307 305 304 302 301 301 300 298
318 319 319 318 316 316 316 316 315 315 315 316 315 316 316 317 317 318 319 320 320 322 324 324 324 325 326 330 333 336 337 337 334 328 324 319 315 318 320 315 306 304 302 301 300 301 300 299 297
317 317 317 317 316 315 315 316 317 316 316 315 315 314 314 315 315 316 316 317 320 321 322 324 324 325 327 330 333 335 330 324 319 316 314 311 315 316 315 310 305 301 301 300 299 299 299 299 298
317 314 314 314 316 318 315 320 316 316 316 316 315 315 314 314 314 314 315 316 316 319 322 323 324 325 329 332 333 332 324 318 312 310 308 306 307 308 306 304 301 300 299 299 297 297 297 297 298
315 313 314 314 316 316 316 318 317 315 315 315 315 315 315 315 315 315 315 315 315 316 321 324 324 326 330 331 331 328 321 320 310 307 305 305 305 306 303 300 299 299 298 296 296 296 296 295 296
313 313 313 313 314 319 316 317 316 315 314 314 315 315 314 313 314 313 314 314 315 315 319 324 325 327 330 330 326 323 325 316 306 303 301 302 300 300 299 298 298 297 296 296 295 295 295 294 293
313 315 319 321 319 318 314 315 315 314 314 313 314 314 314 313 313 312 313 314 315 316 317 323 325 327 328 326 325 325 325 313 307 303 301 299 297 297 297 297 296 296 295 295 294 294 294 293 293
313 315 318 319 315 316 315 315 314 314 313 312 312 313 312 312 312 314 314 315 317 317 317 322 325 326 325 325 325 327 318 312 307 303 300 299 298 296 296 296 296 295 294 294 294 293 293 292 292
314 315 313 315 314 316 313 313 313 313 313 312 312 312 312 312 313 313 314 315 314 318 318 322 324 324 323 324 325 321 314 310 306 302 298 297 296 296 295 295 294 293 293 293 293 293 292 291 291
314 313 315 317 317 317 315 315 315 314 313 312 312 311 312 313 313 314 315 316 314 317 319 322 323 322 322 323 320 315 308 300 297 297 296 295 295 294 294 294 293 293 292 292 292 291 291 290 291
314 315 314 314 316 318 318 317 312 311 312 311 311 311 312 312 314 315 316 317 315 317 321 322 323 321 320 317 309 305 301 297 296 294 295 294 293 293 294 293 293 292 292 291 291 290 290 290 290
312 313 313 316 316 316 318 318 313 312 311 311 311 312 311 311 312 316 316 317 317 320 322 322 320 319 316 310 304 299 296 295 295 295 294 294 294 293 293 292 292 291 291 290 290 289 290 290 290

GFSSGP_925_thetae_042.txt.gz
Theta_e
324 330 327 327 330 329 329 329 325 327 326 325 327 328 327 328 339 347 341 341 348 348 346 344 343 340 340 341 338 336 332 334 339 339 341 338 337 335 331 328 327 330 333 335 336 336 334 332 331
324 329 326 328 330 330 329 327 325 323 326 325 325 327 326 333 339 338 341 341 348 347 347 346 342 340 339 335 330 331 333 334 335 337 341 338 336 333 330 331 329 328 328 330 330 330 330 329 328
323 328 326 330 328 329 327 327 325 324 325 326 326 325 328 336 336 339 341 341 347 347 348 345 342 340 338 334 333 335 333 333 334 335 337 335 333 330 332 328 325 325 325 322 325 326 326 324 322
327 326 324 326 328 327 326 325 325 325 325 326 327 329 331 335 335 340 339 341 345 347 349 345 341 339 338 335 334 335 332 332 334 335 334 332 329 331 332 326 319 322 325 326 326 322 319 321 321
326 327 327 325 325 325 324 325 325 325 324 326 327 327 334 335 337 339 339 342 344 349 350 344 340 340 339 336 334 333 332 333 337 338 334 333 331 332 332 329 324 321 324 329 330 330 329 325 326
327 325 327 328 326 324 322 322 324 324 323 324 325 325 335 335 338 339 339 341 344 349 348 344 341 340 339 336 335 334 331 330 336 336 333 332 333 334 334 331 329 324 325 327 329 330 329 327 328
326 327 326 325 325 323 323 322 323 323 323 323 324 325 331 334 338 340 339 339 342 347 347 345 342 340 340 336 335 334 332 329 332 332 332 333 334 334 334 334 331 327 325 328 330 327 328 328 327
324 327 329 325 324 324 322 323 323 323 322 323 324 324 330 337 339 340 339 339 341 343 346 345 344 343 341 338 337 335 332 329 329 332 332 331 331 330 332 332 333 328 326 328 328 327 327 327 327
324 329 328 327 325 324 321 323 323 323 322 322 324 323 328 335 339 339 339 340 340 342 343 345 346 343 343 341 339 337 333 330 327 330 330 330 329 334 332 333 331 326 327 326 326 326 327 328 328
327 330 330 324 322 323 322 323 323 323 322 322 322 324 328 329 337 338 339 339 340 340 341 342 344 343 343 342 341 338 335 333 329 327 329 329 332 332 335 334 331 325 327 325 326 327 327 327 329
324 327 323 322 321 326 326 324 323 323 324 323 321 323 324 329 330 336 337 338 339 340 340 340 341 343 344 343 342 339 337 335 333 330 327 328 331 331 331 328 325 325 325 328 328 328 325 324 323
323 323 323 323 323 325 326 325 325 322 322 322 321 323 325 326 326 329 333 336 338 339 339 340 340 341 340 342 340 340 337 336 335 333 328 330 331 330 329 328 328 329 328 329 329 324 322 318 316
322 322 322 322 322 322 324 324 324 323 322 322 322 322 324 325 324 326 330 331 333 337 339 340 341 341 341 340 340 339 337 337 337 334 329 328 328 326 326 328 329 328 328 327 326 322 318 316 314
321 322 321 320 321 321 321 321 321 320 318 319 320 321 321 322 323 325 326 327 329 332 338 340 340 342 342 341 340 340 339 338 336 334 330 328 326 326 328 329 329 328 326 323 321 318 316 311 307
321 322 321 321 321 321 320 321 321 320 319 319 318 318 319 319 321 322 325 326 327 328 334 336 339 340 342 342 341 339 339 338 336 335 331 330 330 330 329 329 329 327 322 319 317 315 311 306 306
322 322 325 321 321 320 320 321 319 318 318 319 318 318 318 318 319 320 321 324 325 327 328 333 337 339 340 342 342 340 339 338 336 336 332 331 332 331 330 329 326 323 317 314 313 309 307 305 304
322 322 322 322 320 320 319 321 320 320 320 319 318 317 318 317 317 319 320 321 323 326 327 327 332 337 339 340 342 341 340 339 337 336 333 332 333 332 329 326 324 317 314 312 310 306 305 303 302
323 322 321 321 320 319 319 319 318 317 317 316 318 317 317 318 318 320 320 320 321 323 326 327 326 327 331 338 339 340 339 339 336 336 335 334 333 331 326 322 319 314 311 308 305 305 302 301 300
321 319 319 317 318 317 317 317 317 316 315 315 316 315 316 317 317 320 320 321 321 321 322 326 326 325 324 326 335 338 339 338 337 336 335 334 332 329 322 322 314 312 310 305 303 302 302 300 299
317 318 318 317 316 315 315 315 314 314 314 314 314 314 315 315 315 316 318 320 321 321 322 322 325 325 324 324 327 333 338 338 337 337 336 334 330 323 319 317 312 308 306 303 302 301 300 299 297
316 317 317 316 315 313 313 314 314 315 313 313 313 313 313 312 313 314 314 316 319 320 321 321 323 325 325 325 328 333 337 335 335 334 331 326 322 318 316 312 311 308 304 302 301 301 300 299 297
317 315 315 315 315 316 314 317 314 313 313 313 311 311 311 311 311 312 312 312 315 317 319 320 321 324 324 325 331 334 331 327 324 326 322 319 316 314 310 308 308 305 303 302 299 298 298 298 297
315 314 314 314 315 314 314 315 314 314 313 313 313 312 311 311 310 310 310 312 314 314 316 320 320 323 324 326 332 333 329 324 319 317 316 314 313 309 305 306 304 302 301 299 298 297 296 296 296
313 313 314 313 314 315 314 315 314 312 312 312 311 313 312 311 312 312 312 313 313 314 314 314 322 322 325 329 333 331 326 321 314 311 310 310 307 304 302 302 301 300 299 298 297 296 295 294 294
313 314 313 318 317 313 313 315 314 312 311 311 311 313 311 311 311 310 309 309 312 313 314 314 316 324 327 331 332 328 321 321 314 309 307 305 301 299 299 299 299 298 298 297 295 295 294 293 293
313 315 313 318 317 316 313 314 311 311 311 311 311 310 310 309 309 310 312 310 313 314 314 315 320 325 329 331 329 325 320 315 310 307 306 303 301 299 298 298 297 297 296 295 294 294 293 293 292
313 314 312 315 312 310 311 309 309 310 310 310 310 310 309 308 309 311 311 311 314 314 316 316 320 325 329 329 325 322 316 311 306 304 303 302 300 298 297 297 296 295 294 294 293 293 292 291 291
313 312 315 312 308 314 313 312 312 311 311 311 309 308 308 310 311 311 311 312 315 315 315 317 321 325 326 325 323 315 311 309 305 303 301 299 298 296 296 295 294 294 293 293 292 292 291 291 291
313 314 313 313 315 313 316 314 311 312 312 312 311 310 310 309 309 310 312 313 315 315 316 318 323 324 324 324 315 311 308 304 301 299 298 296 296 295 295 294 293 293 292 292 292 291 290 290 290
312 313 312 313 312 313 313 315 312 311 309 310 309 309 309 309 309 309 312 312 314 316 319 320 323 322 314 310 305 303 302 298 297 295 295 296 295 295 294 293 292 292 291 291 290 290 289 290 290

GFSSGP_925_thetae_045.txt.gz
Theta_e
322 323 329 325 324 323 326 327 324 322 323 322 324 324 325 327 335 342 339 341 344 342 342 343 342 340 342 343 341 340 339 339 340 341 339 338 336 332 329 328 332 336 337 337 337 338 336 334 333
321 323 327 321 326 327 325 323 324 320 324 322 323 324 324 341 337 338 343 345 345 342 344 344 340 338 338 338 336 332 332 335 338 340 339 338 335 332 331 329 329 332 334 334 333 332 331 329 329
323 326 322 324 323 326 325 323 320 322 322 324 324 323 326 335 336 339 343 348 346 343 344 343 340 338 332 328 327 329 329 331 334 340 339 337 333 333 329 327 326 327 328 329 329 328 328 326 324
327 322 319 322 325 323 323 322 322 323 322 324 324 326 331 334 336 340 345 348 346 344 345 342 340 337 332 330 331 330 331 333 334 338 336 332 331 332 328 326 326 326 326 326 326 324 321 319 323
325 321 323 323 321 321 320 320 319 323 323 324 325 325 334 337 340 339 344 347 346 346 345 341 339 337 334 333 334 332 333 334 337 336 333 331 332 333 328 324 326 327 329 329 330 329 325 324 324
323 319 324 328 323 321 319 318 320 322 322 321 323 323 334 338 338 339 342 346 347 348 345 341 339 338 336 333 333 328 329 338 337 336 334 332 333 333 329 327 322 323 326 329 330 329 326 326 326
322 320 323 322 322 321 321 319 319 321 322 321 321 323 332 334 338 338 340 345 348 348 344 341 339 339 337 334 333 329 324 336 336 333 332 331 334 334 333 330 327 325 326 328 326 326 327 326 326
319 322 326 322 323 321 319 319 320 319 320 321 322 322 338 337 339 338 338 347 348 348 345 342 341 339 338 335 334 331 325 328 333 333 332 333 333 333 335 333 330 326 324 328 326 326 326 326 327
320 323 325 326 325 323 320 320 321 321 321 320 321 324 329 338 339 339 338 344 347 347 344 342 341 340 339 337 336 333 329 326 330 331 330 330 331 333 332 333 331 325 325 325 325 326 326 328 325
321 325 326 323 322 321 322 322 320 321 321 321 321 325 330 338 338 337 338 338 341 345 345 342 341 340 341 338 337 335 331 327 327 329 328 330 329 333 331 332 330 325 327 325 326 327 327 327 326
321 325 324 325 322 322 324 323 322 321 322 319 320 320 324 330 335 336 338 339 339 341 345 344 343 342 342 341 339 337 333 331 326 325 328 328 331 333 334 333 331 324 325 326 327 327 324 322 320
321 321 322 323 321 323 325 323 324 322 320 318 319 320 322 323 326 333 335 338 339 340 341 343 345 342 342 342 340 338 336 333 330 326 322 328 330 332 333 328 326 325 325 328 328 326 322 318 316
320 320 320 320 319 320 320 322 322 321 319 317 317 318 321 321 322 326 331 334 338 339 340 340 341 343 343 342 341 339 338 334 334 332 327 325 330 330 330 327 327 328 328 328 326 321 319 316 315
318 319 320 319 319 319 320 319 319 319 317 316 315 316 316 318 320 323 324 325 329 337 339 339 340 341 343 342 341 339 338 336 335 335 329 328 329 329 325 327 328 328 328 324 322 320 317 315 311
320 321 320 319 319 319 319 320 319 317 317 317 317 315 315 315 318 320 324 324 325 326 338 339 340 340 340 341 340 339 339 336 336 336 330 328 328 326 325 327 328 327 324 324 321 319 316 312 306
321 321 323 320 320 319 319 321 318 316 316 317 317 317 314 315 315 318 320 321 323 324 326 339 339 340 341 340 340 340 340 338 337 334 332 328 327 326 328 328 328 326 323 321 319 316 311 306 305
321 321 321 321 318 320 319 320 318 316 316 314 315 316 316 316 315 317 319 320 321 321 323 335 339 339 341 342 341 341 339 338 337 335 332 329 329 329 329 329 328 325 320 316 316 311 307 305 303
322 321 319 319 318 318 318 317 316 315 314 313 312 313 312 314 315 316 318 319 319 320 320 323 336 338 339 341 341 341 340 338 337 336 333 331 331 331 330 329 327 324 318 314 312 308 304 303 302
320 319 317 315 316 315 316 316 314 314 313 314 314 311 313 315 315 317 318 318 318 319 320 321 325 336 338 339 340 340 340 339 337 335 334 333 331 332 331 328 324 319 317 314 310 304 303 301 300
319 316 316 315 314 313 312 313 312 312 312 312 313 311 312 313 311 312 316 317 318 319 320 320 322 328 337 338 338 339 339 338 338 336 334 334 332 332 332 325 320 316 313 309 305 304 302 300 298
315 316 316 315 312 310 311 313 311 311 310 311 312 311 311 311 311 311 310 314 316 316 319 320 321 322 325 331 333 335 337 337 336 335 335 334 333 332 330 322 318 314 313 308 304 303 303 300 297
317 313 314 314 313 313 310 315 310 311 310 310 308 308 310 309 308 308 308 309 313 314 316 318 320 320 322 323 324 329 334 333 335 334 333 332 331 328 324 318 313 311 308 304 303 302 302 301 298
315 313 313 313 312 311 311 312 310 309 312 310 309 306 306 308 308 309 308 310 312 313 313 314 318 319 320 323 324 326 332 333 332 329 329 327 324 323 319 313 309 307 305 302 301 300 299 299 298
312 312 312 312 310 311 311 312 309 310 311 311 310 310 309 307 307 308 308 310 311 312 313 313 314 317 318 320 325 327 330 329 324 319 317 316 316 316 310 307 307 305 302 302 300 298 297 296 296
314 312 306 318 317 311 311 313 311 310 310 309 308 308 309 307 308 308 309 308 311 312 313 312 313 314 315 320 327 329 329 329 327 319 313 311 309 307 305 306 303 302 301 298 298 297 296 295 294
313 312 308 316 315 313 310 314 311 308 310 307 308 308 307 307 305 307 310 307 310 313 314 315 312 314 315 324 328 329 327 323 320 316 313 310 307 305 304 303 301 299 298 297 296 295 295 294 293
313 313 310 313 308 302 308 306 306 307 309 307 307 306 305 305 305 308 309 310 312 313 313 314 315 314 319 328 326 325 323 324 321 315 312 310 306 304 302 301 299 298 297 296 295 295 294 292 292
309 309 309 304 303 311 310 309 310 310 311 309 308 307 306 306 308 308 310 311 313 313 313 315 315 315 326 326 324 319 319 321 316 312 308 307 302 299 299 298 299 296 295 294 294 293 292 291 291
312 315 312 310 309 309 314 312 307 309 311 309 308 309 309 308 306 305 310 311 312 313 314 316 314 318 324 322 316 317 315 313 310 308 305 302 299 298 298 297 295 294 293 293 292 292 291 291 290
310 311 309 304 307 309 306 313 309 309 308 310 311 312 309 305 306 310 311 311 312 312 316 318 316 321 317 316 315 311 308 307 305 303 300 298 297 297 297 295 293 293 292 292 292 290 290 290 290

GFSSGP_925_thetae_048.txt.gz
Theta_e
324 321 325 323 322 321 325 327 323 324 321 322 322 323 326 329 334 335 339 343 344 342 341 342 342 343 343 343 342 342 341 341 340 339 339 337 334 331 330 334 337 337 338 337 337 339 338 337 334
322 322 325 318 324 325 323 321 324 321 320 319 322 322 326 340 336 341 343 344 342 340 341 342 342 342 342 342 340 340 339 341 341 340 338 337 334 331 328 332 335 336 337 337 337 335 333 330 327
323 326 321 322 322 325 323 322 322 320 319 322 323 322 328 336 336 341 342 344 341 341 340 342 341 341 342 339 337 337 336 340 340 339 339 337 334 333 330 329 332 334 334 334 333 331 329 328 325
326 322 317 322 326 322 321 321 320 319 320 322 323 324 332 334 337 340 343 343 341 341 342 341 339 337 337 333 330 334 333 336 338 340 338 335 334 329 327 327 328 328 329 330 329 326 327 324 323
324 317 323 323 322 320 318 320 319 320 319 323 323 325 335 337 338 343 345 344 341 342 342 340 339 334 328 328 329 329 332 334 339 339 337 332 333 329 327 326 326 326 327 327 328 325 322 320 324
322 318 324 324 321 320 317 317 318 318 318 321 322 328 333 336 339 346 347 345 342 342 342 340 339 334 330 330 330 325 328 335 337 335 332 333 334 332 328 328 329 330 330 331 331 329 324 323 323
322 319 324 322 322 322 320 318 318 318 318 321 319 325 332 334 338 345 346 345 344 343 342 341 339 335 333 332 331 326 328 333 335 334 332 332 333 332 329 326 328 330 331 330 326 326 325 325 325
317 320 324 320 321 321 318 319 318 316 318 319 318 334 337 333 337 341 345 345 346 345 342 341 339 337 335 334 331 326 333 337 335 334 332 332 332 332 332 329 327 327 326 327 325 326 326 326 326
316 321 324 324 321 321 320 321 318 319 319 320 319 326 332 337 337 340 347 347 347 346 343 341 339 338 336 334 333 327 327 336 335 332 330 331 332 333 334 332 329 324 324 326 325 326 327 326 324
318 321 323 321 321 322 320 322 321 319 320 319 325 326 336 337 337 336 344 346 346 345 344 342 340 339 338 335 334 330 326 330 333 331 330 331 331 331 332 333 331 324 325 325 325 326 327 326 322
319 323 321 323 323 322 323 322 321 322 321 318 321 327 326 333 335 335 339 344 346 346 344 343 341 339 339 336 336 333 329 327 329 330 329 329 330 333 331 332 332 326 326 325 326 327 325 326 323
321 320 322 323 322 321 322 323 323 322 320 319 318 318 318 324 326 333 335 338 342 345 344 343 341 339 339 339 337 335 332 329 326 328 328 329 329 333 331 332 331 325 325 326 327 326 322 320 317
319 319 319 319 319 319 318 320 321 321 319 317 315 317 317 318 321 329 334 337 340 340 344 344 342 341 340 341 339 337 335 332 328 324 326 328 329 331 333 332 329 324 324 327 327 324 319 315 314
318 318 319 319 319 318 320 318 318 318 317 316 316 315 314 316 317 320 322 330 334 338 338 342 343 342 341 341 340 339 337 335 332 328 323 323 328 330 332 330 326 326 327 327 328 321 318 316 314
319 320 319 319 319 319 319 320 319 317 315 316 315 314 315 313 316 316 319 321 323 327 338 338 341 343 342 341 341 340 339 337 333 333 329 325 325 330 331 328 327 327 328 328 323 317 315 315 311
320 319 322 319 319 318 318 322 318 315 315 315 314 315 314 314 314 317 318 318 320 321 324 336 338 341 342 342 342 341 339 338 336 335 334 328 327 329 329 326 326 328 327 324 319 317 316 314 307
319 320 321 320 318 319 318 320 317 317 315 314 313 312 313 313 313 315 317 319 319 319 319 321 336 338 340 341 342 341 339 338 337 335 335 333 328 328 327 325 327 326 323 320 319 317 315 308 304
322 321 319 319 317 317 318 318 316 314 314 314 312 311 311 312 313 315 316 317 319 319 319 318 323 338 339 339 340 340 339 338 338 336 336 333 328 327 325 326 327 324 321 318 317 317 310 305 303
318 320 318 315 314 313 313 312 312 312 311 312 313 312 311 311 312 314 315 316 316 317 318 318 319 326 338 338 338 337 337 338 338 337 335 333 330 328 326 328 327 324 323 320 316 312 306 302 301
321 320 317 314 313 313 312 312 311 311 311 311 312 312 312 311 310 309 314 316 317 318 318 318 317 319 332 338 338 338 338 338 338 336 335 334 332 329 330 329 327 325 322 317 314 312 303 301 300
315 315 315 315 312 310 310 311 310 309 309 309 310 311 311 311 311 311 308 312 314 315 317 317 318 318 321 336 338 338 338 336 335 335 334 332 331 330 330 330 328 325 322 318 312 308 305 302 298
316 312 313 313 312 313 310 312 310 309 309 308 306 306 307 308 307 308 308 309 313 315 316 316 316 317 320 330 336 336 335 334 335 336 335 333 331 330 330 330 328 324 318 315 311 305 304 304 300
314 312 312 312 311 310 310 312 309 307 310 309 308 306 305 304 305 305 305 308 312 312 313 314 314 315 316 322 330 333 333 334 334 335 334 333 329 328 330 329 323 318 315 312 307 303 302 302 301
311 310 310 309 307 306 309 311 309 309 311 310 309 305 306 306 305 304 306 308 309 310 311 311 310 312 313 316 320 323 332 333 331 330 329 327 327 324 324 322 317 314 311 306 304 303 301 300 300
310 307 304 307 306 309 309 311 310 308 309 308 307 305 303 303 304 305 306 306 309 311 313 313 312 312 313 314 317 321 326 331 333 330 326 323 321 319 318 315 310 309 305 305 302 301 299 298 297
311 308 305 310 315 311 308 312 310 308 306 305 304 305 305 304 302 302 306 306 310 312 313 313 313 314 313 313 314 318 324 326 326 326 325 322 318 316 315 311 308 305 305 304 300 298 296 295 294
311 306 308 308 303 302 307 305 303 306 308 307 306 306 306 306 305 303 306 309 310 311 312 312 312 312 314 314 314 321 324 323 324 323 321 318 316 313 308 305 305 305 302 299 298 296 297 293 293
309 309 307 299 300 309 308 308 308 307 310 308 307 307 307 307 308 306 306 309 311 311 311 312 313 314 314 314 319 322 322 321 320 319 316 314 311 308 307 304 302 299 298 298 295 294 294 292 292
312 312 310 306 305 307 312 310 305 308 309 308 307 308 312 311 309 307 302 308 311 311 312 314 316 316 314 319 321 318 316 316 316 312 312 311 309 307 302 300 299 297 296 295 294 293 292 291 291
310 310 309 304 305 305 304 310 307 307 307 307 310 312 311 311 308 306 306 309 310 311 312 316 317 317 317 319 316 314 314 312 310 309 308 308 304 300 299 298 297 295 294 293 292 291 291 290 290

GFSSGP_925_thetae_051.txt.gz
Theta_e
325 322 322 322 321 320 324 324 321 322 323 321 319 322 326 328 331 332 338 344 344 345 346 341 343 343 343 344 343 343 342 340 339 338 338 337 334 333 333 337 337 339 336 335 338 338 338 336 335
323 322 323 316 322 323 321 320 322 320 320 318 319 321 330 338 336 340 342 343 344 344 342 341 341 342 342 343 343 342 341 340 339 338 338 336 333 331 333 336 337 339 337 335 337 336 334 331 327
322 325 320 321 321 322 319 319 320 319 317 318 321 321 327 334 335 340 341 344 345 341 341 340 341 342 343 343 342 341 341 341 341 339 338 335 334 331 330 334 335 334 335 335 334 332 329 328 326
324 322 316 323 325 321 320 320 318 318 319 318 321 330 331 333 337 340 342 344 342 340 340 340 340 341 342 342 341 340 340 340 340 338 338 335 334 331 329 331 333 333 333 333 331 329 328 326 321
323 316 323 324 323 321 318 318 318 319 318 317 320 327 334 335 337 340 344 343 341 341 340 340 340 339 340 339 337 334 336 339 339 340 338 335 331 328 327 328 328 329 329 329 327 324 323 318 324
321 317 322 324 322 319 317 316 317 317 316 316 320 331 333 333 341 344 344 343 341 340 342 340 340 338 334 331 329 329 332 335 339 339 337 334 331 328 327 327 327 327 328 328 327 324 322 321 324
322 320 324 321 320 318 319 317 318 318 316 316 318 332 332 333 344 344 344 343 342 342 342 340 338 333 328 330 330 327 329 332 339 337 333 333 331 327 327 327 329 330 331 331 330 327 326 325 326
316 318 321 320 320 320 318 317 317 317 318 316 320 331 337 332 343 345 345 343 342 342 341 339 338 334 331 332 331 326 328 334 336 333 331 332 330 328 327 323 326 330 330 329 327 327 326 326 326
315 321 323 321 320 320 318 321 319 317 316 318 318 328 329 336 341 344 344 345 344 344 342 340 339 335 333 332 331 326 327 332 334 333 331 331 330 330 330 327 324 325 327 327 327 327 326 326 325
318 319 322 320 319 321 319 321 320 320 317 318 324 329 333 334 342 344 344 344 343 344 343 342 340 337 336 333 332 327 330 337 335 334 332 331 331 332 333 332 328 324 325 326 326 326 327 325 322
318 320 319 322 322 322 321 320 321 321 320 317 319 320 323 332 333 343 344 344 344 343 343 347 340 338 337 335 333 330 325 335 335 333 330 328 331 332 332 333 332 326 325 326 327 326 327 325 323
321 319 321 321 321 321 321 320 322 321 320 319 318 316 316 325 329 333 342 344 344 343 344 345 341 339 338 336 334 333 328 326 332 332 330 330 331 330 331 332 332 330 326 325 326 326 324 323 321
319 319 319 319 319 319 318 318 320 320 318 317 316 315 315 314 316 327 335 340 343 345 344 345 342 340 339 338 335 335 332 328 325 328 330 330 329 329 332 331 331 330 325 325 326 326 322 319 315
318 318 318 318 318 318 319 318 317 317 315 316 314 315 313 313 314 316 323 333 337 343 344 344 343 341 340 338 338 336 335 332 328 325 326 327 329 329 331 332 331 331 325 325 326 326 320 315 312
318 320 319 318 318 318 317 319 317 316 315 315 315 313 313 312 315 314 317 320 330 337 340 343 343 342 340 339 339 338 337 335 332 329 325 324 327 328 330 331 332 328 325 325 326 327 317 313 310
319 318 321 318 318 317 318 320 317 314 314 314 313 313 312 312 312 315 317 317 318 320 324 335 339 342 341 340 340 339 339 337 336 334 332 327 323 326 329 330 331 327 326 327 327 325 316 312 310
318 320 321 320 317 318 317 319 317 314 313 313 312 312 310 311 311 313 316 316 317 317 318 320 332 339 341 341 341 340 339 338 337 336 333 331 326 323 327 330 330 327 327 327 325 318 314 311 308
321 320 318 319 316 316 317 316 316 314 313 313 312 311 310 310 312 313 314 315 317 316 316 317 319 331 337 340 340 340 339 339 337 337 335 333 333 327 325 329 329 325 327 326 321 316 311 311 306
317 319 319 316 314 313 312 311 311 310 309 309 310 312 312 312 311 312 314 315 315 316 315 316 316 318 333 338 339 338 338 339 338 337 336 335 334 333 327 328 327 325 326 324 318 312 312 308 303
321 321 320 314 313 313 311 311 311 311 310 310 311 311 311 311 309 308 311 313 314 316 317 315 316 316 329 336 337 337 337 337 338 338 337 335 335 335 329 327 325 325 325 319 315 315 311 305 301
319 316 315 315 312 309 309 310 309 308 308 308 308 308 309 309 310 310 307 310 312 313 315 316 317 317 318 332 336 336 336 335 335 335 335 335 335 334 330 326 325 326 324 320 317 315 315 304 299
315 312 313 312 313 314 309 312 309 308 307 308 306 304 304 305 306 306 306 307 309 311 313 314 315 315 317 319 336 336 335 333 333 334 335 336 334 333 330 327 325 326 323 319 317 314 313 307 301
314 311 311 311 310 309 310 311 308 306 309 309 306 304 303 302 303 304 304 306 308 309 311 312 312 313 313 316 321 335 335 333 333 333 334 335 332 330 329 328 326 324 323 319 317 313 307 305 303
310 309 308 308 307 306 308 310 308 308 309 306 305 303 303 302 302 303 303 306 307 309 310 311 311 312 312 313 315 327 334 333 333 333 331 332 332 330 328 329 328 323 322 318 316 310 305 303 303
308 307 304 306 306 309 308 310 309 308 308 308 306 305 303 303 305 305 301 301 306 308 310 310 311 312 311 311 312 316 325 332 332 332 329 326 326 327 328 327 326 322 318 314 310 306 303 301 301
310 308 305 309 313 311 307 312 309 306 305 303 306 306 306 307 305 304 304 305 308 310 311 311 312 312 313 312 312 313 317 321 326 330 329 328 327 323 324 323 321 317 312 309 305 303 300 299 297
311 307 306 306 302 304 307 305 301 306 307 307 306 306 306 307 307 306 304 308 310 311 311 310 311 311 311 311 312 313 314 319 322 325 327 324 322 322 319 319 316 311 307 304 302 298 297 296 295
309 307 308 300 299 307 305 306 305 306 308 307 306 305 306 309 308 307 305 305 306 308 310 310 311 312 312 313 313 313 314 318 321 322 322 321 318 316 313 312 310 305 304 301 298 296 295 295 293
311 309 307 305 304 304 310 307 304 306 307 307 305 306 309 312 310 308 307 307 307 309 310 310 313 314 315 315 315 315 317 319 319 317 316 314 313 311 310 308 305 303 300 297 297 294 294 295 293
309 309 307 304 304 302 302 308 305 305 305 305 308 307 313 311 308 306 305 305 306 309 310 311 313 313 315 315 315 314 314 314 313 312 311 310 309 307 305 302 300 298 296 295 295 292 292 293 292

GFSSGP_925_thetae_054.txt.gz
Theta_e
325 323 322 320 320 319 323 321 319 321 321 318 319 321 323 325 330 332 337 343 342 343 344 343 343 344 344 345 345 344 343 342 342 341 339 337 336 331 333 337 336 337 335 338 339 339 338 335 333
324 322 322 315 320 320 319 319 320 319 319 315 317 324 329 334 336 339 341 343 341 342 343 341 343 342 342 344 344 343 342 340 338 337 336 336 333 333 335 338 339 338 334 337 338 336 334 331 326
322 323 319 321 319 320 318 316 318 318 315 317 320 320 325 333 335 340 341 343 342 345 344 340 341 340 342 342 343 341 341 339 338 337 336 335 333 332 334 337 336 336 334 334 334 331 330 328 323
323 321 316 322 323 320 316 318 317 317 319 317 319 325 330 332 336 340 340 344 343 345 342 340 342 342 342 342 342 341 340 340 338 337 337 335 334 330 332 335 333 333 333 333 332 330 328 325 322
321 316 322 323 323 321 317 317 318 318 317 317 317 322 331 333 337 339 342 345 344 342 340 340 341 341 342 341 340 340 340 340 339 338 338 336 332 330 330 332 332 331 331 330 328 326 328 322 330
320 315 321 325 322 319 317 316 317 317 316 315 318 327 332 334 340 343 343 344 342 340 340 340 340 340 339 340 339 339 339 339 337 339 338 336 330 328 328 329 327 328 329 328 328 325 322 323 327
321 320 323 320 321 318 317 315 317 317 317 317 319 329 329 333 342 344 343 343 341 340 340 340 339 338 337 337 334 332 331 332 335 339 337 334 329 328 328 328 327 328 329 329 329 327 325 328 328
317 319 321 320 320 319 317 316 317 316 319 315 317 325 329 332 343 344 343 342 342 340 341 339 339 335 330 328 330 329 328 329 338 337 335 332 327 324 326 325 330 331 331 329 326 327 328 329 326
314 320 321 321 320 320 318 319 319 316 316 316 317 322 327 334 344 344 343 343 344 343 342 340 338 335 329 329 331 328 327 328 336 337 332 332 328 327 326 322 324 328 328 326 326 328 328 327 325
317 319 321 318 317 318 319 320 320 320 318 318 322 322 331 340 343 342 342 341 341 341 342 340 339 336 332 331 331 329 325 332 334 334 331 331 329 328 329 327 324 324 326 328 328 329 327 326 323
317 319 318 321 319 321 320 321 320 321 321 317 318 317 320 334 340 341 341 342 342 341 340 340 341 338 335 334 332 330 324 329 333 333 333 330 330 330 332 332 329 326 326 328 328 328 327 324 321
320 318 318 319 319 320 320 319 321 320 319 318 318 317 316 318 330 338 341 342 342 343 342 341 342 339 337 335 334 331 327 329 335 334 334 331 330 331 332 333 332 330 325 326 326 327 326 326 324
319 319 318 319 319 318 318 318 319 318 317 316 316 315 316 315 315 318 332 341 342 342 341 341 341 344 339 337 335 333 331 326 329 334 334 331 328 330 331 330 331 332 327 326 325 326 325 321 320
318 318 318 318 318 317 318 317 316 316 314 315 315 315 314 313 314 316 317 329 340 342 341 341 342 342 342 338 337 335 333 330 326 327 331 331 329 329 329 330 331 332 330 325 325 326 324 318 314
317 319 318 317 317 318 316 318 317 314 314 314 313 312 313 312 314 314 317 317 324 336 342 344 345 346 343 340 338 337 335 334 331 327 325 328 329 329 329 329 331 331 330 326 325 326 322 316 312
318 318 321 318 317 317 317 318 316 314 314 314 312 311 310 311 313 315 316 316 317 318 332 340 342 343 343 341 339 338 337 336 335 333 329 326 326 327 328 328 331 331 331 328 325 326 325 314 311
318 319 319 320 316 317 317 318 316 313 313 312 311 310 309 309 309 312 314 315 316 316 317 322 335 340 342 341 340 339 338 337 337 336 334 331 328 325 327 328 329 330 331 326 325 325 325 314 309
320 320 318 319 316 316 317 315 312 311 313 312 311 310 309 309 310 312 313 314 315 316 316 316 317 329 336 339 340 339 338 338 338 337 336 335 333 330 325 325 327 329 331 326 326 325 319 312 309
317 318 319 316 313 313 313 311 311 310 308 308 308 308 309 310 311 312 314 314 314 314 315 316 315 316 327 338 339 338 336 338 337 338 338 337 335 332 328 323 325 328 330 326 326 321 313 310 306
319 319 320 316 312 312 311 310 310 311 310 309 310 310 309 308 308 307 310 311 312 313 314 314 315 315 317 332 336 337 337 337 338 337 338 337 336 334 332 328 325 327 329 325 325 322 310 308 304
320 319 316 316 311 308 308 310 309 308 307 306 306 306 305 305 305 306 306 308 309 310 312 314 315 316 314 323 332 336 337 336 336 335 336 337 337 336 333 332 328 326 327 324 324 320 315 307 302
321 314 313 312 313 315 308 314 309 307 306 306 302 301 301 300 301 302 302 304 306 308 309 310 311 313 314 316 333 334 334 334 333 334 336 336 336 336 335 333 332 328 327 323 323 318 313 312 308
315 311 311 310 309 309 310 311 308 306 308 306 304 303 303 303 302 303 300 303 305 307 307 308 310 312 313 314 322 333 333 333 334 333 334 333 334 334 334 333 332 328 325 322 321 318 312 312 313
309 309 307 306 306 306 308 309 307 307 308 306 305 304 304 304 305 306 306 306 308 309 309 307 307 309 311 311 313 319 330 332 333 333 332 333 332 331 331 332 331 328 325 322 320 317 313 311 309
309 311 307 304 305 308 308 310 308 307 306 306 307 305 304 305 306 305 305 304 308 309 310 311 310 309 309 309 310 312 318 330 332 332 332 330 329 328 330 330 328 327 324 321 318 315 312 309 304
309 308 306 307 311 309 306 311 309 305 304 304 306 304 304 306 306 306 305 305 307 307 308 310 310 310 310 310 311 311 312 316 325 330 330 330 329 329 327 326 327 325 324 317 315 312 312 305 301
309 305 305 303 301 302 306 304 301 305 306 306 304 304 304 306 308 307 305 306 307 309 309 308 310 310 310 311 311 311 311 312 314 318 324 327 327 325 324 323 321 320 319 317 313 310 305 300 298
309 306 308 298 300 306 304 305 304 307 308 305 305 305 304 305 308 307 305 307 308 309 308 310 310 311 312 313 314 314 313 313 314 315 319 322 323 322 320 316 314 313 313 311 307 303 299 297 294
310 307 306 304 304 305 308 304 302 305 308 307 304 305 305 309 308 306 305 308 309 310 309 309 309 310 311 313 315 315 314 314 316 317 318 318 318 316 314 312 311 310 308 304 302 298 294 294 293
308 308 306 303 304 301 303 306 305 304 305 305 304 306 308 310 308 307 308 308 307 307 306 307 307 306 307 311 311 312 312 312 313 314 313 313 312 310 311 308 305 302 299 297 295 293 293 293 292

GFSSGP_925_thetae_057.txt.gz
Theta_e
326 323 322 320 325 323 324 323 319 322 322 318 319 321 325 326 335 338 337 342 339 345 345 344 343 341 344 344 345 344 343 341 341 340 341 340 338 336 337 338 337 335 337 337 338 338 336 334 329
325 322 321 320 325 324 323 320 322 322 320 317 316 325 328 334 337 341 342 342 340 344 345 344 342 342 343 344 345 344 343 341 339 338 338 337 335 334 337 338 338 336 337 340 339 336 332 328 326
322 322 324 326 322 324 322 318 320 319 318 318 321 320 324 332 336 340 341 342 342 344 344 343 342 342 344 344 344 343 341 339 337 336 336 334 333 333 339 340 338 336 336 336 334 330 330 327 328
322 321 319 325 326 322 319 318 318 319 319 317 318 323 328 331 335 339 341 342 344 343 342 341 341 340 340 342 342 342 340 338 337 336 335 335 333 333 337 336 334 333 333 333 331 330 328 324 328
319 320 325 326 325 321 319 317 318 320 319 318 317 322 329 333 336 339 342 343 344 344 343 340 341 342 341 340 341 340 339 338 337 336 336 336 333 331 335 333 333 333 331 331 330 328 328 328 331
323 319 325 327 324 321 319 318 318 318 317 318 318 323 331 334 339 344 345 343 344 345 340 341 342 342 341 341 340 340 341 340 337 336 337 336 331 330 332 332 331 330 330 328 326 327 326 326 328
324 323 325 322 324 321 319 316 318 319 318 319 318 326 328 334 341 347 345 343 343 342 340 341 341 341 341 340 340 339 338 339 337 337 337 335 329 328 329 329 328 329 329 329 328 328 328 329 326
320 321 323 322 322 321 317 317 316 317 319 316 318 324 326 332 343 347 344 343 342 340 339 340 340 340 338 338 337 336 333 333 336 340 336 334 326 325 327 325 328 330 331 330 328 330 330 329 325
314 324 323 323 320 320 317 317 318 316 318 316 317 323 327 332 340 340 341 340 340 343 340 340 339 338 334 333 330 329 328 328 331 338 336 333 327 327 327 326 328 329 329 327 329 330 329 326 325
320 323 322 319 318 318 319 320 320 321 320 319 324 319 335 338 340 340 340 341 340 340 340 341 339 338 333 330 330 330 327 326 336 337 335 332 328 326 325 323 325 327 327 326 328 328 328 326 324
317 322 319 320 318 320 320 321 320 321 321 319 319 320 332 338 340 339 339 340 340 340 340 340 339 338 335 331 332 332 328 327 331 335 334 331 330 328 329 328 327 326 327 329 329 328 326 325 322
320 318 318 319 320 320 321 319 320 320 320 317 318 317 317 336 336 339 339 339 340 340 340 340 340 339 337 334 333 332 330 326 331 333 332 331 330 329 329 332 330 327 324 327 327 327 326 324 322
319 318 319 319 318 318 318 319 319 319 318 317 316 316 317 317 317 328 338 340 340 340 340 340 340 340 339 337 335 334 331 327 325 332 333 332 331 329 330 331 332 332 327 325 326 326 326 326 325
318 319 318 318 318 317 318 318 316 317 315 315 315 317 316 316 316 315 316 330 340 341 341 340 340 340 340 339 337 336 334 331 327 328 333 334 332 328 328 330 331 331 331 326 325 326 326 322 320
317 320 318 318 317 318 316 319 318 317 315 316 316 315 314 315 314 315 316 316 320 334 341 342 340 339 339 339 340 338 336 334 331 327 329 332 332 330 327 329 329 331 331 330 326 325 325 320 316
319 319 321 318 317 317 318 319 316 314 314 316 315 313 313 314 314 314 315 315 316 316 323 334 340 340 339 339 340 340 338 336 334 332 329 327 330 330 329 329 328 330 331 331 326 325 324 318 313
318 321 320 319 317 317 318 318 316 314 314 315 314 312 311 312 311 312 313 314 314 315 315 317 331 339 341 342 342 341 338 337 336 335 334 332 327 327 329 328 328 329 331 331 329 325 325 321 313
322 319 319 318 315 316 317 317 316 312 311 313 313 313 313 312 312 313 315 315 315 315 315 315 316 331 336 341 343 339 338 338 337 337 336 335 334 329 327 327 327 328 330 331 330 325 324 322 314
316 317 319 317 312 314 314 313 312 311 310 311 311 311 311 310 310 310 311 311 312 313 314 314 314 315 328 338 338 335 337 337 334 336 337 336 337 334 332 328 326 327 328 330 330 325 322 316 308
317 318 318 315 312 312 311 311 311 312 311 310 310 310 309 307 305 305 306 308 309 310 312 313 313 314 315 330 334 335 335 336 335 335 338 336 337 336 335 333 329 325 326 327 329 325 319 311 308
319 319 316 317 311 308 309 313 310 308 306 304 303 304 304 305 305 305 303 304 306 307 308 310 312 312 313 315 329 335 335 335 334 334 332 336 336 337 336 335 332 328 323 326 329 326 322 309 306
324 316 313 313 314 318 309 319 312 307 307 306 305 306 307 307 306 306 305 305 305 306 306 307 309 310 312 313 326 332 332 333 333 333 332 334 334 335 335 335 333 330 327 324 328 327 322 316 308
319 311 311 310 310 310 310 314 311 305 307 306 306 306 307 307 307 308 307 305 307 308 309 307 307 308 309 310 313 327 331 332 332 332 332 333 333 333 334 334 333 332 330 327 325 325 319 316 312
310 308 308 306 307 313 308 310 308 308 307 306 306 306 306 307 308 308 307 307 308 308 309 310 309 308 307 309 311 320 330 331 331 332 332 332 332 332 332 331 331 329 329 329 327 323 321 315 312
310 314 313 310 312 313 308 310 310 306 306 306 308 306 305 306 309 309 308 307 308 309 309 309 309 309 309 309 308 309 314 326 330 330 330 330 328 328 330 330 329 329 328 325 323 320 319 315 310
309 314 312 310 312 310 307 312 309 305 304 305 305 305 304 306 309 309 308 307 308 309 310 309 309 310 310 311 310 310 309 310 314 322 327 328 329 328 327 326 325 325 325 322 321 319 313 311 309
309 309 304 304 301 307 307 305 302 305 304 306 305 307 307 306 308 309 307 307 308 308 309 308 309 310 311 310 312 313 312 312 311 311 314 319 325 327 326 325 322 321 319 318 315 317 311 309 309
309 306 310 303 306 308 303 304 304 307 308 306 307 306 307 308 310 309 308 308 307 307 308 307 308 308 309 309 311 312 313 313 313 313 313 315 319 322 322 321 320 318 316 313 311 310 307 307 303
310 309 306 305 305 307 306 305 302 304 305 307 306 306 307 311 310 308 307 307 305 304 304 304 305 306 307 308 310 311 312 313 313 314 315 316 316 316 317 317 316 314 312 311 309 306 303 300 296
308 309 305 308 307 303 305 307 304 303 304 304 306 306 311 309 306 303 303 303 300 299 299 301 302 304 305 306 308 309 308 309 308 310 311 311 312 313 314 312 310 307 306 305 303 298 296 294 292

GFSSGP_925_thetae_060.txt.gz
Theta_e
329 326 324 325 328 326 326 324 323 327 326 324 323 325 327 329 334 339 341 344 342 346 347 347 344 341 342 343 345 345 343 342 343 343 342 341 338 337 338 334 339 338 338 338 339 338 335 331 330
329 323 324 326 327 327 325 324 324 325 324 323 323 324 330 334 339 344 345 344 344 347 347 346 344 339 344 344 344 344 342 341 341 340 340 338 335 336 337 338 338 337 337 338 339 335 329 328 330
326 323 327 327 327 327 325 323 323 323 323 323 325 325 328 334 339 343 344 343 346 347 346 347 342 340 344 346 344 344 342 340 339 337 336 336 335 339 341 339 337 336 340 338 336 330 327 329 331
323 323 324 328 328 326 324 323 322 324 322 323 323 327 332 336 338 342 344 343 345 346 346 347 341 342 346 344 344 343 341 338 336 336 334 334 334 338 340 339 336 336 335 335 331 330 329 331 332
323 326 329 329 327 325 324 322 323 324 323 322 322 326 329 338 341 344 345 345 346 345 346 347 341 342 344 343 343 342 340 338 337 336 334 335 333 336 336 335 333 332 332 332 331 330 328 328 332
325 326 329 330 327 326 324 323 322 322 322 321 322 324 330 340 343 345 346 345 345 345 344 345 340 340 341 340 341 341 339 338 337 336 335 335 332 333 336 333 332 332 331 330 331 330 330 330 331
326 327 328 326 327 326 324 323 323 322 322 321 322 325 331 339 344 344 345 346 346 345 343 343 344 343 342 341 340 339 341 340 338 336 335 335 330 330 332 332 331 330 330 329 328 328 328 330 328
324 326 326 326 326 326 324 322 321 321 321 321 321 325 329 335 343 343 345 346 345 344 342 342 343 344 343 344 340 339 338 340 338 335 336 335 326 326 329 326 327 329 330 330 330 330 331 329 325
322 324 325 325 324 323 321 321 320 320 320 321 321 325 332 334 342 343 342 342 344 344 342 342 341 341 341 341 341 339 337 337 337 338 337 335 328 327 326 327 326 329 330 330 330 329 329 326 325
320 322 321 321 322 321 321 320 322 322 322 322 324 326 338 339 341 342 341 341 341 342 343 342 341 340 339 337 337 335 334 332 331 337 337 336 330 328 327 328 328 329 328 327 328 329 328 326 325
319 320 320 321 320 320 321 322 323 322 323 322 323 326 337 339 341 341 341 341 342 342 342 342 342 340 339 335 334 334 334 332 333 337 336 336 332 330 328 327 328 329 328 329 329 330 328 327 324
321 318 319 322 322 322 322 322 322 322 321 322 323 322 325 339 339 340 341 341 342 341 341 341 342 341 340 337 336 336 334 333 332 334 335 334 333 331 331 331 329 329 328 330 330 330 329 327 323
321 320 320 320 321 321 321 322 322 322 322 321 321 321 322 322 335 340 341 341 341 342 341 341 342 341 341 340 338 337 336 334 333 333 333 333 333 332 330 333 333 331 328 329 329 329 328 327 322
320 320 320 320 321 320 321 321 321 321 320 320 320 320 321 321 322 323 332 340 342 342 342 341 341 341 341 340 340 339 338 335 334 333 334 334 333 332 330 332 333 334 332 329 328 328 327 325 321
320 321 320 320 319 319 319 320 321 319 319 319 319 319 319 320 320 321 322 322 325 333 339 342 342 341 341 341 339 340 340 337 335 335 334 334 334 333 331 330 332 332 333 332 328 327 325 322 317
320 320 322 318 319 320 319 317 318 318 319 319 318 318 318 318 318 318 319 319 319 319 324 332 340 341 341 341 340 339 340 339 337 335 335 335 334 333 332 330 330 331 332 333 330 327 323 321 316
321 319 319 320 319 318 319 317 317 317 317 318 318 318 318 318 317 317 317 317 317 318 318 319 328 336 340 341 340 339 339 340 339 337 335 334 334 333 332 331 330 330 331 332 331 328 323 321 316
321 320 320 318 319 320 320 318 318 318 317 317 318 317 317 317 317 317 317 316 317 316 317 317 317 324 333 339 339 338 338 337 340 339 337 335 334 333 333 331 330 330 330 332 331 328 323 321 319
318 319 317 318 315 318 320 320 319 318 317 317 317 317 317 317 315 312 312 312 313 314 316 316 317 317 323 332 338 337 338 337 336 339 337 337 335 334 333 332 331 330 329 330 331 329 322 318 317
318 317 318 318 315 317 318 318 317 317 317 315 315 315 315 312 311 310 308 309 310 311 313 314 315 316 317 323 333 336 337 337 338 336 336 336 336 335 334 333 332 331 330 329 330 328 322 320 313
319 318 320 319 315 313 315 318 316 310 309 309 309 311 312 313 313 312 311 310 310 310 310 311 312 314 315 316 323 331 334 335 336 337 336 333 335 335 334 333 333 332 330 329 329 327 322 319 312
321 318 318 317 320 322 314 319 315 311 312 313 314 315 315 314 314 313 313 312 311 311 310 308 309 310 311 313 317 325 331 332 332 332 334 334 333 332 333 333 334 332 330 328 327 325 323 321 314
321 317 316 315 317 316 315 319 313 311 313 313 313 313 315 315 315 314 313 312 312 312 312 312 310 308 309 311 314 320 327 328 329 331 332 333 333 332 331 332 332 331 329 327 326 323 321 322 319
311 313 313 313 315 321 315 316 312 311 312 312 311 312 313 315 316 316 314 313 313 313 312 312 312 311 310 309 311 314 320 326 329 330 332 332 333 331 330 330 329 329 328 326 325 322 320 320 320
313 317 323 322 323 321 311 312 313 310 309 311 313 313 313 315 316 316 315 313 314 313 313 312 311 312 312 312 311 310 312 318 326 328 330 330 331 331 329 329 328 327 327 326 324 322 319 318 318
314 318 323 319 315 314 310 315 313 310 308 310 309 311 313 315 316 316 314 314 314 313 313 312 312 312 313 313 313 313 312 312 313 317 322 325 326 328 328 327 326 326 325 324 322 320 318 316 315
314 318 310 313 309 314 313 311 309 308 308 310 310 312 313 315 315 314 313 313 312 312 311 311 310 311 311 311 313 313 314 314 314 314 315 318 321 325 326 326 325 324 324 322 320 317 316 314 312
313 310 316 316 318 316 310 308 312 310 311 311 312 312 314 315 314 312 311 311 309 308 308 308 308 308 308 309 311 311 312 312 313 314 316 316 317 319 320 321 320 321 321 320 317 315 313 310 308
312 314 310 311 310 314 310 309 311 313 312 311 311 311 314 314 311 310 309 307 305 305 305 305 305 306 307 307 309 309 309 309 309 310 310 311 312 313 314 315 316 317 317 315 313 312 309 305 302
311 312 311 315 314 310 313 311 308 311 311 309 310 311 313 310 308 308 306 304 304 304 304 303 303 303 304 305 307 308 309 309 309 309 309 310 311 312 312 312 312 311 309 308 307 304 300 298 294

GFSSGP_925_thetae_063.txt.gz
Theta_e
326 330 326 326 328 327 328 327 325 326 325 326 326 326 327 329 333 342 343 344 344 347 349 347 342 342 343 345 345 345 345 343 343 343 343 342 341 340 339 339 337 338 339 340 339 337 334 333 331
329 328 325 328 328 330 327 326 325 324 326 325 326 326 327 331 339 345 345 345 345 346 348 348 342 340 341 344 345 345 343 341 342 342 341 338 335 336 339 339 338 339 338 339 338 333 332 331 331
331 327 328 328 329 328 328 325 324 325 325 326 327 328 330 336 341 344 346 344 346 347 347 347 343 339 344 344 344 343 342 341 339 338 337 336 336 340 340 339 337 338 339 338 333 328 331 331 332
328 325 328 330 330 328 326 324 323 324 325 325 325 329 331 337 340 344 345 345 346 346 346 346 342 339 346 346 344 343 342 339 338 335 334 335 337 341 340 337 336 339 336 335 330 328 330 328 331
326 327 330 330 329 327 326 325 323 324 325 325 324 328 334 342 343 345 343 344 346 345 348 347 341 341 345 345 344 343 341 337 336 335 333 335 336 339 339 335 334 335 335 334 331 329 329 331 331
328 329 331 332 329 327 326 325 324 324 324 324 324 326 337 343 345 346 345 345 345 345 348 347 343 346 346 343 343 341 340 338 337 336 335 333 333 338 335 335 333 332 331 332 331 330 331 332 330
327 330 332 330 328 328 326 325 324 324 324 324 323 326 335 344 346 347 346 345 345 344 344 345 344 342 340 340 341 340 338 339 338 336 335 334 328 332 335 333 332 331 330 328 327 328 327 329 329
325 328 329 328 328 327 326 325 324 324 324 323 322 326 332 340 345 345 347 346 345 344 342 343 343 345 343 341 341 340 340 340 338 337 335 335 323 324 327 331 331 328 327 326 325 327 329 329 326
322 328 329 328 327 326 325 325 323 322 322 322 322 326 334 341 344 345 346 346 345 345 342 342 342 344 343 343 341 340 339 340 339 337 335 335 329 325 323 325 325 325 326 326 326 327 329 324 325
323 327 326 325 325 324 324 323 323 322 322 321 322 327 335 340 343 343 343 343 345 344 342 342 341 340 340 340 342 341 340 339 338 338 337 335 331 327 326 329 324 328 328 327 328 329 328 325 327
320 320 321 321 321 321 322 322 321 322 321 321 322 324 335 338 342 343 343 343 342 343 343 342 341 340 339 337 336 335 334 334 332 333 337 336 333 329 328 330 329 331 329 329 330 330 329 327 326
322 319 319 322 320 321 321 321 323 323 323 323 325 325 330 338 339 341 343 343 344 343 343 343 342 342 340 337 334 334 335 334 332 336 338 335 335 331 328 328 328 329 329 330 330 331 330 329 326
321 320 319 321 322 321 319 320 322 322 323 323 323 323 324 326 336 340 341 342 342 343 343 342 342 343 342 340 338 337 337 335 334 334 335 335 334 333 330 332 331 330 329 330 330 330 330 329 325
321 321 320 320 322 322 322 321 322 322 322 322 321 322 322 323 325 330 340 341 341 341 342 342 342 342 342 342 341 341 340 338 336 334 334 334 334 334 332 331 333 332 331 329 329 330 329 328 326
320 321 321 320 320 321 321 322 323 322 321 321 320 320 320 320 322 324 326 330 336 340 341 342 342 342 341 341 341 342 341 340 338 336 335 335 334 333 333 331 332 334 332 332 329 329 328 327 325
322 321 323 320 320 320 320 321 320 320 320 320 320 319 319 318 318 319 322 324 325 325 327 335 341 342 342 342 341 340 342 341 340 338 337 336 335 334 334 332 331 332 333 332 332 329 328 326 322
321 321 320 319 319 320 320 318 318 318 318 319 319 318 318 318 318 317 318 320 321 322 322 322 326 336 342 342 342 340 339 341 342 340 338 337 337 336 335 333 331 331 331 332 331 331 328 325 323
321 320 318 318 320 319 319 319 318 318 318 318 318 318 318 318 317 317 317 318 319 319 320 320 321 321 328 336 341 341 338 338 339 341 340 338 337 337 336 335 333 331 331 332 331 331 329 326 323
316 318 317 317 319 319 318 319 318 318 318 318 318 317 317 317 317 317 316 315 316 317 318 318 319 319 320 325 331 341 339 337 338 339 341 340 339 337 336 336 334 333 332 331 332 331 330 326 323
318 318 318 318 317 318 317 319 319 318 318 317 318 317 317 317 316 314 312 312 312 314 315 316 318 318 319 319 323 335 338 337 337 337 337 338 339 338 336 336 335 334 333 332 332 331 330 327 323
317 318 317 318 318 317 317 319 317 316 313 312 312 313 314 315 314 314 314 313 313 313 313 313 314 316 317 318 319 323 334 336 338 339 337 336 336 337 338 336 336 335 333 333 332 331 330 327 321
319 317 316 319 318 317 317 315 318 315 314 314 315 316 316 315 315 315 314 314 314 314 315 312 311 312 313 315 317 319 324 331 334 334 335 336 336 335 333 336 336 335 334 333 332 331 330 328 323
321 319 319 319 321 319 318 319 317 314 315 315 316 316 317 317 317 316 315 315 315 315 315 315 314 312 311 312 314 315 318 323 328 330 330 331 333 335 334 331 332 333 333 333 332 330 331 327 324
319 319 318 318 319 324 320 319 316 315 315 314 314 314 316 317 317 317 316 316 316 316 316 314 314 314 313 312 312 314 316 320 325 327 329 330 332 333 334 332 329 330 330 331 331 330 329 326 325
317 321 326 327 326 325 314 316 316 313 314 313 314 314 315 316 317 317 317 316 316 316 316 315 315 314 314 315 314 313 313 315 319 324 327 329 330 331 331 330 329 328 328 328 329 328 327 325 323
320 322 327 326 323 321 312 316 315 311 311 313 313 314 315 317 317 317 316 316 316 315 315 314 314 314 314 314 314 315 315 314 314 314 317 321 325 325 326 330 327 326 326 327 328 327 326 323 322
317 321 314 317 313 317 314 313 311 310 311 311 312 314 315 317 317 315 314 313 314 312 311 312 312 312 312 312 313 314 315 315 316 317 316 316 317 319 322 325 326 324 323 324 325 325 324 322 320
316 314 319 320 321 316 314 313 314 311 311 311 313 314 315 317 316 314 312 312 310 309 309 309 309 310 310 311 311 312 312 312 313 313 315 315 316 318 318 320 319 320 320 320 322 322 320 318 316
314 316 314 313 313 318 312 311 313 312 311 313 313 314 316 316 313 312 311 309 308 308 308 307 307 308 308 309 311 311 311 311 312 311 311 311 311 313 313 314 314 315 315 317 317 316 314 313 311
313 315 315 317 317 314 316 312 312 313 312 312 313 313 316 313 311 310 308 307 307 306 306 305 304 304 304 306 307 307 307 307 306 305 305 305 307 307 308 309 309 309 310 311 311 310 308 307 302

GFSSGP_925_thetae_066.txt.gz
Theta_e
319 324 329 328 330 329 330 329 325 326 325 325 324 325 325 325 345 353 343 344 347 346 347 345 345 343 344 345 345 344 343 343 343 341 341 341 340 340 337 338 337 340 340 340 338 335 334 332 331
323 329 328 328 330 330 327 325 326 324 324 324 324 325 325 341 345 343 345 344 348 348 347 345 343 342 344 345 344 344 343 342 341 340 339 336 337 338 338 338 338 338 338 339 333 331 331 330 331
327 331 329 329 330 329 328 325 324 324 324 324 326 326 325 341 341 345 346 344 348 349 347 344 342 341 344 344 344 343 341 340 339 338 338 333 338 339 340 338 335 337 339 333 330 329 332 331 331
326 329 327 331 329 328 326 324 322 324 324 324 325 328 336 341 343 346 344 345 348 347 348 343 341 341 343 343 343 342 341 338 337 336 335 333 340 340 339 337 339 340 336 333 329 329 331 331 331
325 328 330 330 330 328 325 323 323 323 324 324 324 329 342 342 344 344 344 346 346 348 347 343 340 344 344 343 343 342 340 338 336 334 332 334 339 340 337 334 337 336 335 332 329 328 330 328 327
329 328 332 332 330 328 326 323 322 323 323 323 323 331 343 343 345 343 345 345 346 349 347 342 340 343 345 344 343 342 339 336 336 335 333 332 338 338 337 334 333 333 333 332 330 329 331 326 327
330 330 333 331 330 329 326 324 322 322 323 323 323 326 343 345 346 344 345 345 345 348 346 343 342 346 345 343 342 341 339 338 337 335 334 327 332 336 335 335 332 331 329 328 326 329 328 327 326
325 329 332 331 331 329 326 324 322 322 322 321 321 330 345 344 346 347 345 345 344 344 345 344 343 341 340 339 339 340 338 338 337 335 334 333 323 328 334 333 332 329 327 324 322 324 324 325 326
321 329 332 333 331 328 325 325 324 323 322 322 321 333 340 344 345 347 346 345 344 343 344 343 342 342 341 340 340 340 339 340 338 336 335 334 326 319 322 326 330 326 324 322 322 321 324 322 324
321 325 328 327 326 325 325 324 323 322 321 320 322 332 340 343 344 344 345 345 345 343 342 343 343 341 341 341 340 338 338 339 339 338 335 334 329 326 324 324 326 321 323 323 324 326 325 323 324
321 323 323 323 322 321 323 323 322 321 321 320 319 326 335 340 343 343 342 342 343 344 342 341 342 343 342 344 341 341 341 337 338 338 336 335 333 328 326 328 325 323 325 324 325 328 326 326 328
321 320 320 321 321 321 321 321 321 320 321 322 322 325 334 336 339 342 343 343 342 343 344 342 341 340 339 338 336 335 336 334 333 333 337 333 335 329 328 329 325 326 327 327 328 329 326 327 327
323 320 319 320 321 321 319 319 319 321 322 322 322 322 324 329 336 339 341 342 343 343 343 343 342 342 340 338 335 334 335 335 333 332 335 336 336 332 330 328 328 328 330 328 329 330 330 329 328
320 321 320 320 322 320 319 319 318 320 321 321 322 322 321 323 325 336 340 340 341 342 343 342 341 342 342 340 338 337 338 337 335 333 335 336 335 334 332 330 330 329 329 328 330 330 330 329 328
321 321 320 319 322 322 321 321 320 319 320 320 320 318 319 319 322 323 328 339 340 340 342 342 342 341 341 343 342 341 340 340 338 335 334 334 334 334 333 331 331 332 331 331 328 329 329 329 328
322 321 323 320 320 320 320 322 320 319 319 319 318 317 316 317 319 320 322 325 326 328 329 341 342 342 341 341 341 342 342 342 340 338 336 335 334 333 333 333 331 333 333 331 331 330 329 328 327
323 323 322 321 319 320 319 321 319 318 318 318 316 316 315 315 316 317 317 318 322 323 323 324 327 340 342 342 341 340 340 341 342 341 339 337 336 335 334 334 332 331 333 333 331 332 330 328 326
323 322 318 320 320 319 320 320 317 317 317 316 315 316 316 316 316 317 317 317 317 319 321 322 323 323 326 340 342 342 340 339 340 341 342 339 337 336 336 334 334 332 331 332 332 331 331 329 327
318 318 318 317 319 319 319 320 318 316 317 316 315 314 315 315 315 316 315 315 315 315 317 318 319 320 320 322 326 341 341 340 338 337 340 341 339 337 336 336 335 334 331 331 331 332 330 330 326
319 318 317 317 319 319 318 318 317 316 316 316 315 314 314 315 314 313 312 312 312 312 314 315 317 318 318 319 320 326 340 340 338 335 335 338 340 340 337 336 336 335 333 332 331 332 330 330 328
318 317 316 318 317 316 317 316 317 316 316 313 312 311 312 313 313 312 313 314 314 315 314 312 313 313 315 317 319 319 325 338 336 336 335 335 336 337 338 338 336 336 335 333 332 332 331 329 328
321 316 317 318 318 317 315 313 316 316 313 312 311 310 312 313 313 313 313 314 314 315 315 314 312 311 312 314 315 316 317 324 336 336 338 337 336 336 335 334 338 336 336 335 333 332 331 330 327
318 318 318 318 318 319 317 317 317 313 313 312 312 314 314 315 313 313 314 315 316 316 315 314 314 313 312 311 312 313 315 316 318 324 332 333 332 332 336 335 333 334 335 334 334 333 332 330 329
319 319 318 319 319 321 319 317 315 313 313 313 313 314 315 315 315 314 315 316 316 316 316 315 314 314 314 314 313 312 313 314 316 319 327 328 329 331 332 332 334 331 330 330 332 332 332 331 329
321 318 322 322 323 321 314 317 316 313 313 313 312 312 313 315 315 315 314 316 316 316 315 315 314 314 314 314 315 315 313 312 313 315 318 323 327 329 330 330 330 330 328 327 327 327 329 330 330
319 320 320 320 322 317 312 315 312 311 312 311 312 313 314 315 314 315 314 314 314 313 312 312 313 313 312 312 313 314 315 316 316 316 316 316 316 317 319 322 328 329 326 324 325 326 326 328 328
318 320 314 316 313 314 312 312 310 309 311 310 311 312 314 315 314 313 312 313 311 310 309 310 310 310 311 311 312 312 313 313 313 315 316 316 317 317 318 319 321 323 323 322 322 323 325 326 326
318 317 318 315 315 317 312 313 312 309 310 310 311 312 314 315 313 311 311 310 309 309 308 308 308 308 309 310 311 312 312 312 312 312 311 311 312 313 314 315 316 316 316 317 317 318 320 323 322
316 317 316 312 313 316 312 309 310 309 310 309 311 313 314 314 311 310 309 308 308 307 307 306 305 305 305 307 308 308 308 307 307 306 306 306 308 308 309 310 311 311 311 312 313 316 317 317 316
313 315 315 315 316 311 311 310 309 307 309 311 311 313 314 312 310 308 307 307 306 306 305 304 303 302 303 304 303 302 302 302 302 301 301 301 301 302 303 305 305 305 305 306 308 308 309 308 308

GFSSGP_925_thetae_069.txt.gz
Theta_e
323 321 327 327 325 323 327 327 322 324 323 321 322 322 323 329 347 346 340 342 347 345 345 343 343 343 344 345 344 342 342 342 341 341 341 339 340 338 337 337 340 341 340 337 335 334 333 332 328
322 324 329 323 326 326 324 321 324 322 322 321 322 322 329 347 342 341 345 346 346 344 345 345 343 343 345 345 343 343 343 341 340 339 338 336 338 338 338 338 340 340 340 335 333 332 331 331 325
320 329 327 325 326 326 325 323 321 321 321 323 323 322 331 340 341 343 346 346 344 345 345 344 342 344 344 343 343 342 341 340 338 337 336 333 339 340 339 337 338 340 334 331 332 331 330 327 320
325 327 323 328 329 326 325 322 321 321 322 322 323 336 337 342 343 345 346 347 347 345 344 343 341 343 344 343 343 341 339 338 337 335 332 339 339 340 338 338 338 338 333 330 328 327 326 324 322
324 327 328 327 328 326 323 321 320 322 322 323 322 334 343 343 345 343 347 348 347 346 343 342 341 342 342 342 342 341 339 338 334 331 329 340 340 338 337 339 338 334 333 331 330 330 326 324 323
328 328 332 329 327 325 324 320 320 321 321 320 326 340 343 342 343 343 346 347 347 346 342 340 341 342 342 342 342 341 338 336 334 331 329 338 340 338 336 335 336 335 334 331 328 329 325 325 323
330 329 331 329 326 327 326 321 320 320 321 322 321 342 341 343 343 344 345 347 347 345 342 339 341 345 344 342 342 340 337 336 335 333 330 334 336 337 335 332 331 331 329 328 326 327 323 325 325
327 330 330 330 332 329 326 321 319 320 321 320 320 340 347 343 346 344 346 348 348 346 342 339 340 344 343 342 341 340 337 337 336 335 333 325 332 335 335 334 331 329 327 324 322 323 320 322 325
323 330 329 330 331 330 327 325 320 319 320 321 329 337 343 344 345 345 344 346 346 344 342 338 345 343 340 339 339 339 337 337 337 335 335 334 321 324 330 333 332 328 325 322 321 319 320 320 324
322 328 325 321 325 327 323 324 324 320 319 320 335 342 344 343 345 344 342 342 342 344 343 341 339 339 340 340 339 339 338 338 337 336 335 333 328 317 322 324 329 324 322 321 321 319 321 320 323
321 323 324 324 324 325 324 323 322 318 320 319 330 340 341 342 342 341 342 343 342 342 343 342 341 339 340 340 339 339 338 338 338 337 335 334 330 327 325 324 325 320 321 321 323 324 323 322 325
320 320 320 321 321 324 324 318 320 319 320 319 318 333 337 339 339 340 341 342 343 343 341 342 343 341 340 341 341 339 338 338 337 336 337 333 334 328 328 326 327 321 320 321 322 323 324 325 327
322 320 319 319 320 320 318 318 318 317 319 319 319 322 333 336 338 342 342 342 340 343 343 341 341 342 340 341 339 336 337 338 333 336 336 336 335 328 328 329 327 323 322 323 326 326 326 325 328
321 321 321 319 321 320 319 318 318 317 318 318 319 321 320 323 336 338 340 340 342 342 342 342 342 340 338 337 337 334 334 334 334 333 332 333 335 334 330 330 328 328 328 329 329 329 330 329 328
321 322 320 319 320 321 318 319 319 317 316 318 318 317 318 318 321 335 339 339 340 342 342 342 341 342 341 339 337 335 336 336 335 334 333 336 336 335 332 332 329 329 329 329 328 329 329 330 329
323 319 322 319 320 320 318 320 318 316 317 317 316 315 314 316 317 321 323 329 335 340 342 342 342 339 342 342 341 340 340 339 338 337 335 333 334 334 334 333 331 331 330 330 329 328 329 329 329
322 324 321 321 319 320 318 319 318 317 315 316 315 313 313 312 314 317 318 319 321 323 325 338 342 342 340 339 341 341 341 341 340 339 337 337 335 334 333 333 333 332 331 332 332 330 329 329 328
325 322 320 321 318 319 320 319 317 316 315 316 314 313 311 312 312 316 316 316 317 318 320 321 323 337 338 341 341 339 339 341 341 341 340 338 336 336 335 334 333 333 331 331 333 332 331 330 328
318 320 318 317 317 319 319 319 318 316 315 313 313 313 311 312 313 313 313 314 315 315 315 316 317 318 322 340 341 341 341 340 339 339 339 340 340 337 336 335 335 333 333 331 331 332 331 331 330
319 319 317 315 315 318 319 319 318 316 314 314 314 313 312 312 310 310 311 311 312 312 312 313 315 316 317 318 319 332 337 340 339 339 338 336 335 338 338 335 336 335 334 333 331 331 332 330 330
320 318 316 316 316 315 316 318 318 315 313 313 312 311 311 311 310 309 311 314 314 314 313 313 312 313 314 314 316 318 320 336 337 338 339 336 332 330 331 335 335 335 335 334 332 331 331 330 329
320 316 316 316 316 318 314 317 313 315 313 311 309 308 309 311 310 311 312 313 314 314 314 314 313 311 311 312 313 314 315 317 327 334 336 335 335 335 335 334 333 333 333 335 335 333 331 331 328
319 318 317 316 315 316 316 315 313 314 312 310 308 308 310 310 311 311 313 315 316 315 315 314 314 313 314 313 311 312 312 313 314 316 319 327 335 334 333 331 333 333 333 333 333 333 332 331 329
320 318 317 316 317 316 316 314 314 313 315 310 310 312 312 313 311 312 314 315 316 315 315 314 314 314 314 314 314 314 312 312 313 314 315 319 325 328 330 331 332 331 331 330 329 330 330 331 330
319 320 320 320 316 315 314 315 315 312 310 311 313 312 312 312 312 312 313 314 314 313 312 313 313 312 312 313 314 314 315 315 314 315 315 315 317 318 321 326 329 329 328 328 327 326 327 327 327
315 317 313 317 318 316 311 317 314 307 310 311 311 311 312 313 312 312 311 312 310 310 310 310 310 310 311 312 312 313 313 314 314 315 315 316 316 316 317 319 323 328 328 327 324 323 322 323 324
318 319 314 313 311 310 311 310 309 310 311 311 312 312 313 313 312 310 310 309 308 308 308 308 309 309 310 310 311 312 312 312 312 311 312 313 314 314 315 316 317 318 319 321 321 319 319 320 321
318 317 318 312 314 316 311 310 310 310 312 311 312 311 313 313 310 308 307 308 308 308 307 306 306 306 307 308 309 309 309 309 309 309 308 308 309 310 310 311 312 313 313 313 313 314 315 315 317
318 319 316 313 311 312 311 309 306 309 310 310 310 310 313 311 308 307 306 307 307 306 305 304 303 304 304 305 305 306 305 305 305 304 302 303 305 305 306 307 308 309 309 310 310 311 312 313 314
315 317 316 313 315 308 307 311 307 305 307 308 310 313 312 309 308 305 305 306 305 304 303 302 302 302 302 302 302 301 301 301 302 301 301 301 302 302 302 302 303 303 303 304 305 307 307 306 305

GFSSGP_925_thetae_072.txt.gz
Theta_e
323 321 325 325 324 322 325 326 321 322 322 321 320 329 336 334 343 336 341 346 347 347 345 344 344 344 344 344 343 342 342 341 339 340 341 341 340 337 338 340 341 340 336 335 335 334 332 328 320
323 322 327 320 325 326 324 320 322 320 321 318 319 321 338 348 341 343 345 347 346 346 345 343 344 344 344 343 342 342 342 340 340 338 337 336 337 337 336 340 341 340 336 334 332 331 328 320 320
322 325 325 324 324 325 324 322 318 321 319 322 322 324 335 344 340 342 344 347 345 344 343 343 343 344 344 342 342 342 342 339 338 337 335 337 339 338 338 339 341 336 331 329 329 326 320 319 324
325 325 321 328 329 325 322 322 321 320 321 321 326 340 339 341 342 344 346 346 344 344 344 344 343 344 344 342 341 341 340 338 337 336 330 338 339 338 338 339 339 334 330 330 329 322 320 323 328
324 324 328 327 328 326 323 322 321 320 321 321 323 341 344 342 343 345 346 345 344 345 345 343 343 344 343 342 341 340 339 337 334 334 338 339 339 339 338 338 337 333 331 331 327 320 319 323 329
327 326 330 330 328 324 322 321 317 319 320 321 340 341 342 340 343 346 346 344 343 344 343 342 342 343 342 342 341 340 338 336 330 330 340 340 339 338 339 337 335 333 333 331 327 320 320 320 327
327 326 327 328 328 325 324 321 319 318 320 320 333 342 342 342 341 347 347 346 344 343 341 341 341 342 341 341 341 339 337 334 330 328 337 339 337 335 336 336 335 334 332 328 324 321 319 321 324
328 327 327 328 331 329 326 324 320 318 320 317 331 345 347 343 344 346 346 346 346 342 340 339 341 342 341 341 341 339 336 335 334 332 325 335 336 335 333 331 331 331 328 325 322 322 317 323 324
325 330 330 329 331 329 327 326 322 318 322 328 333 340 341 344 344 346 346 345 344 343 340 339 344 343 342 342 341 339 336 336 335 334 332 322 326 332 334 332 329 327 326 324 323 323 319 323 324
326 330 328 325 327 328 326 327 323 320 322 335 343 342 343 343 342 342 344 344 345 343 341 338 343 343 341 341 339 338 337 336 336 335 334 332 325 320 327 331 331 329 323 322 322 323 322 322 324
322 324 323 323 322 324 326 326 325 321 319 330 343 342 340 341 340 340 340 344 344 342 339 340 343 342 340 339 338 338 337 338 337 336 336 333 330 320 322 321 328 326 323 321 321 320 322 321 323
323 320 323 323 325 325 326 325 323 316 320 319 335 338 338 338 337 339 340 340 342 342 341 340 341 340 339 339 339 339 338 338 337 337 336 334 332 327 327 323 323 323 318 320 321 322 322 321 323
322 321 320 319 322 324 324 325 324 316 318 320 333 336 337 337 337 340 341 342 341 341 342 342 340 339 340 340 339 339 338 337 336 335 334 335 333 333 328 327 327 326 322 320 320 320 323 323 326
322 322 320 319 318 319 325 323 322 318 316 318 319 327 333 335 338 339 340 340 341 342 341 341 342 341 340 340 341 338 336 335 337 333 332 334 335 334 331 328 328 327 325 321 322 325 327 325 325
321 323 322 320 319 319 317 321 320 316 316 317 317 316 315 323 336 339 341 341 341 341 342 341 340 341 341 340 341 338 335 335 335 334 333 332 334 334 334 330 329 330 328 328 328 328 329 329 329
322 320 323 319 319 319 317 320 317 315 316 317 316 315 315 315 321 335 337 338 340 341 341 341 342 341 339 337 336 335 334 334 334 334 333 332 333 335 335 334 330 331 329 329 329 328 328 329 329
322 322 321 320 319 320 317 318 317 316 315 316 315 314 313 312 312 316 322 324 325 338 341 342 341 341 340 341 340 338 337 337 338 335 334 334 333 335 335 334 332 332 330 330 329 329 328 328 329
322 321 320 320 319 320 319 318 317 316 314 314 314 313 312 311 311 314 314 315 317 320 323 333 341 341 341 339 340 341 341 340 340 340 339 336 335 333 333 334 333 333 332 331 330 330 330 329 328
319 320 320 319 317 319 320 319 318 317 315 313 313 312 312 311 309 312 312 313 314 314 315 316 317 329 337 340 340 340 339 340 339 341 340 340 339 336 335 333 333 333 333 332 332 331 331 331 330
319 319 319 315 315 317 318 319 317 317 315 313 313 312 312 311 309 308 310 312 313 313 313 313 313 315 316 319 336 339 340 339 339 338 338 338 338 338 338 336 335 334 333 332 332 331 331 331 331
320 317 316 316 315 315 316 317 316 315 313 313 311 312 310 309 308 309 311 313 313 313 313 313 313 312 312 313 314 317 326 335 337 334 334 335 338 337 335 332 331 334 334 334 333 332 331 329 330
322 316 317 315 316 319 314 318 311 315 316 314 311 308 308 308 308 309 311 313 313 313 313 313 312 312 311 311 312 313 314 322 327 331 331 334 335 335 333 334 333 333 333 333 333 333 331 329 329
319 319 316 315 315 315 315 315 312 311 314 314 309 306 306 307 309 310 312 314 315 315 314 314 313 313 314 313 311 311 312 312 313 314 315 318 319 330 335 335 332 330 330 331 331 332 331 330 329
318 316 315 315 317 317 314 314 313 311 312 312 307 306 307 308 309 310 314 315 314 314 314 314 313 313 313 314 314 314 312 311 312 312 313 315 319 325 328 330 331 331 332 331 330 329 328 328 329
318 315 320 323 323 318 312 314 315 311 310 311 308 309 310 309 309 310 311 313 312 312 312 312 312 311 312 312 313 314 314 314 314 314 315 315 316 318 320 323 327 329 329 329 329 327 325 324 324
318 318 313 319 318 314 311 316 315 308 306 309 311 311 311 310 310 311 310 310 309 309 310 310 310 310 310 311 312 312 312 312 313 313 313 314 314 314 315 317 320 324 327 328 326 324 322 321 321
317 319 315 309 308 307 310 309 307 310 310 311 312 312 312 312 311 308 309 308 308 308 308 308 308 308 309 310 311 311 311 311 310 309 310 310 311 311 312 313 315 316 317 319 320 319 319 318 318
316 316 317 306 311 314 311 309 312 311 311 312 313 313 313 312 309 308 306 307 307 307 306 306 306 306 307 308 308 308 307 307 306 306 306 305 306 306 308 309 310 310 311 311 311 311 313 313 313
317 318 315 312 309 311 311 309 304 308 311 313 313 313 313 310 308 306 305 306 306 305 304 303 303 304 304 304 303 303 303 303 303 303 302 302 303 303 304 304 306 306 307 307 308 309 309 309 308
316 317 314 313 316 306 305 307 304 304 308 310 310 312 312 309 307 305 304 305 304 303 303 302 301 302 301 301 301 301 300 300 300 300 300 300 301 300 300 301 302 302 302 302 304 304 304 304 304

GFSSGP_925_thetae_075.txt.gz
Theta_e
321 324 324 322 323 322 325 324 320 320 321 320 320 327 329 338 337 336 340 346 347 347 345 344 344 343 345 344 344 343 342 340 339 341 342 340 338 339 340 342 339 337 335 335 335 334 331 329 331
323 326 325 318 323 326 324 320 322 319 320 317 325 328 340 345 340 342 343 346 346 346 345 344 344 343 344 344 343 342 341 339 341 341 339 336 336 336 340 342 340 337 333 331 331 330 326 327 329
325 327 324 322 322 325 324 320 320 317 318 318 323 331 338 344 341 343 344 350 346 345 345 344 344 344 343 342 341 341 341 341 339 337 335 336 337 336 340 341 338 332 328 323 318 321 321 326 329
327 325 320 328 328 324 321 321 321 321 319 318 330 340 340 340 341 342 347 349 345 345 344 343 344 344 342 341 341 342 340 338 337 336 330 338 339 338 340 342 337 331 330 326 319 317 320 327 329
324 322 327 328 328 326 322 321 320 319 317 320 329 343 344 340 341 345 347 347 344 344 343 343 344 344 342 342 342 342 339 337 336 334 335 337 338 339 339 340 336 332 331 328 318 317 324 328 329
323 322 326 329 328 325 321 320 321 318 317 332 339 341 342 341 345 346 346 345 343 344 344 343 343 344 342 341 341 339 338 336 331 331 338 339 339 340 338 338 335 332 332 330 321 319 323 328 329
323 322 325 326 327 326 323 323 318 317 317 321 335 343 341 340 345 346 345 344 344 345 344 343 343 343 342 341 340 339 337 336 328 335 340 337 338 338 340 337 335 334 333 331 326 320 320 324 328
324 322 325 325 327 329 326 325 322 317 317 319 334 344 344 341 346 345 344 344 344 343 342 341 342 343 342 341 340 338 337 334 327 330 339 336 334 333 336 336 336 335 331 329 328 325 322 322 325
325 328 327 326 329 329 325 326 323 322 319 330 337 339 340 342 345 346 346 346 346 345 344 342 341 341 341 340 340 338 336 334 332 330 328 335 335 334 332 330 327 326 325 324 321 326 322 324 324
327 328 327 324 325 326 326 325 324 324 321 332 341 340 341 343 345 345 345 345 346 346 347 344 341 341 341 341 340 339 336 335 334 333 331 325 327 331 332 331 330 327 325 324 322 321 316 321 324
323 327 324 324 324 325 325 326 324 322 318 322 339 341 339 339 343 343 342 343 343 343 342 340 343 343 342 341 341 339 337 336 335 334 334 333 329 324 324 324 326 327 326 323 321 321 319 319 322
322 322 324 325 325 325 325 323 323 323 318 320 319 337 337 338 338 340 341 343 343 343 340 339 344 344 342 341 339 338 337 336 336 336 335 334 332 326 320 320 318 322 323 320 320 320 319 320 320
321 321 321 324 323 321 321 321 320 321 320 318 326 336 336 336 337 339 342 343 343 342 340 338 341 343 342 340 338 338 338 337 337 337 336 335 334 331 327 327 325 325 324 320 319 319 321 321 321
321 321 323 322 323 321 322 321 322 321 319 316 334 335 333 335 336 338 339 340 341 342 341 339 341 343 341 339 339 338 338 338 338 337 336 335 334 333 332 330 328 327 327 325 319 320 320 320 323
320 323 321 320 320 321 322 326 323 320 318 316 319 330 332 333 336 337 340 340 340 341 342 342 341 340 339 339 339 339 339 338 336 335 335 333 334 334 334 333 330 329 329 327 324 324 324 326 328
320 320 323 320 320 320 322 324 324 321 321 315 315 314 315 319 333 337 338 340 340 340 341 340 340 341 341 340 340 340 339 337 335 334 335 334 333 333 334 334 333 332 330 328 327 328 328 328 328
320 319 322 321 319 320 318 319 322 321 321 316 314 314 313 312 313 328 336 338 339 340 340 340 340 340 340 340 340 340 340 336 333 334 334 334 333 332 333 334 334 334 332 330 328 328 328 328 328
320 320 320 321 320 320 319 318 317 315 313 313 312 313 312 313 311 312 316 320 324 334 339 340 340 340 340 340 339 338 336 336 337 337 337 335 334 334 333 334 335 334 332 330 329 328 328 328 329
317 318 320 319 318 320 320 319 319 317 314 312 310 311 311 311 309 311 312 313 314 317 321 330 339 340 340 339 338 339 340 340 340 339 339 339 337 335 333 333 333 332 331 331 331 329 329 328 329
318 319 318 317 315 318 319 320 318 317 315 314 312 310 310 310 307 306 309 310 311 312 313 315 316 320 328 335 339 339 339 339 339 339 339 338 339 338 337 336 335 334 333 332 332 331 330 329 329
317 317 317 318 315 314 317 318 318 316 314 312 312 310 310 308 307 308 310 311 312 312 313 312 312 312 313 314 317 326 335 338 338 337 336 337 337 337 337 337 336 334 332 333 334 332 330 328 329
320 316 316 315 316 318 315 319 313 315 316 313 312 310 308 307 307 308 310 312 312 313 313 312 312 311 311 311 312 313 316 323 328 331 331 329 331 334 336 336 334 333 333 333 333 333 332 330 327
318 318 315 316 315 315 314 316 314 309 312 314 314 311 307 305 307 308 310 313 313 313 313 313 313 313 313 312 311 311 311 312 313 315 315 316 318 320 325 331 334 334 333 331 331 331 330 330 329
317 315 315 315 314 314 315 316 314 311 310 310 310 307 307 306 307 309 313 314 313 313 313 313 313 312 313 313 313 313 311 311 311 312 312 313 316 320 323 327 330 333 332 331 332 330 330 329 329
316 317 322 320 320 317 311 314 317 310 309 309 308 305 304 306 307 309 311 312 311 312 312 312 311 311 312 312 312 313 314 314 313 313 314 314 315 316 319 321 326 328 329 330 330 329 328 326 324
317 313 315 318 318 314 310 315 314 309 308 306 307 305 306 307 307 309 310 310 310 310 310 310 310 310 310 311 311 311 311 312 312 312 312 312 312 313 313 315 317 321 324 325 326 325 323 321 321
316 320 310 308 306 306 310 308 306 306 307 308 308 309 309 309 309 309 308 308 308 308 308 308 308 308 309 310 310 310 309 309 308 308 308 308 308 309 310 311 312 314 314 316 317 319 318 317 317
315 314 317 308 314 313 310 309 311 309 309 309 311 311 311 311 309 307 306 306 307 306 306 306 306 307 307 307 307 307 306 306 305 304 304 304 304 305 306 307 308 308 309 309 310 310 310 310 310
317 319 318 315 308 311 312 309 303 305 306 309 311 312 313 312 309 306 305 306 306 305 304 304 304 304 304 304 304 303 303 302 302 303 302 302 302 302 303 303 304 305 305 306 307 307 308 306 305
314 316 317 311 314 304 303 308 305 303 303 309 310 313 312 310 307 305 304 304 304 303 302 302 302 302 302 301 301 301 300 300 300 300 299 299 300 300 300 300 301 301 302 302 303 304 303 301 301

GFSSGP_925_thetae_078.txt.gz
Theta_e
324 324 326 321 320 321 324 322 320 321 319 318 318 321 324 336 337 334 339 345 342 345 345 345 345 346 345 345 345 344 343 341 340 341 341 340 340 340 341 339 337 335 335 336 335 333 331 334 334
326 325 322 318 321 322 321 321 322 319 317 320 327 332 340 344 340 341 344 346 344 346 344 344 345 345 344 344 344 342 340 339 341 340 340 336 337 340 341 340 338 335 333 333 333 331 330 332 328
328 327 320 321 320 323 321 320 322 320 317 317 327 333 339 343 340 342 343 347 346 346 344 343 344 344 344 343 342 340 339 342 339 336 333 337 335 339 341 340 334 329 324 324 327 328 329 327 329
325 323 319 324 325 323 321 320 321 320 319 316 328 342 339 338 342 342 347 348 347 345 343 343 343 344 343 341 340 340 341 339 337 336 331 338 337 340 342 340 333 330 327 320 321 323 327 329 329
324 319 325 326 327 325 322 321 320 321 318 318 328 342 343 339 340 345 347 347 346 345 344 344 343 343 342 340 341 341 338 337 336 333 337 338 339 339 341 339 333 331 330 321 320 324 328 329 329
325 320 324 327 326 324 321 321 320 319 316 319 339 341 341 341 346 350 349 347 345 344 343 343 344 342 341 341 341 340 338 336 332 330 336 338 336 339 339 338 333 331 332 326 320 324 328 329 329
322 321 324 322 325 326 324 322 321 320 316 316 334 343 340 340 345 347 347 346 344 343 343 343 343 342 341 341 341 339 337 336 329 336 337 336 339 340 339 337 334 333 333 329 324 322 326 328 328
320 319 324 323 325 327 326 324 322 323 321 318 330 340 343 339 345 346 346 345 343 344 343 343 343 342 341 340 340 338 337 335 328 339 337 334 336 337 336 335 334 334 332 326 321 319 324 325 327
322 325 323 324 327 326 325 326 322 321 320 317 338 337 337 343 345 344 344 345 345 346 345 348 343 342 341 340 339 338 337 333 326 334 339 336 333 334 335 335 335 333 329 325 322 320 319 323 324
324 325 324 322 325 327 326 325 324 323 321 323 326 333 340 344 344 343 343 343 343 342 342 344 344 342 341 340 340 338 336 334 332 329 327 333 334 333 332 330 329 327 325 324 321 319 318 321 324
323 325 323 325 324 326 325 326 323 323 322 318 321 320 332 342 343 342 343 341 341 342 341 342 345 342 340 340 340 339 337 335 334 332 332 329 326 325 327 328 329 329 328 324 321 318 318 317 320
324 322 323 326 324 325 326 322 321 321 322 319 318 318 327 338 341 341 341 341 343 343 343 344 342 341 341 340 340 340 338 336 335 334 334 334 332 329 325 320 321 323 325 322 319 318 318 317 319
320 323 324 324 322 321 320 322 320 320 319 317 317 327 334 334 338 340 341 341 343 343 342 340 340 342 342 341 341 340 338 337 336 336 335 335 334 332 328 323 323 322 323 323 319 318 318 319 320
320 321 324 323 322 321 322 323 322 322 318 319 319 317 332 333 335 337 340 342 343 342 341 339 340 343 343 342 341 339 337 337 336 336 336 336 335 334 332 330 328 327 327 327 325 320 319 320 320
321 324 320 322 322 322 321 323 324 320 318 319 319 315 326 332 335 337 339 341 343 342 341 339 338 340 342 342 340 338 338 338 338 336 336 336 335 333 333 333 333 332 328 328 327 326 323 323 323
322 322 325 320 322 322 321 324 323 321 321 321 319 316 313 326 333 336 339 340 340 342 342 341 340 340 341 341 339 338 339 338 338 336 335 335 335 333 333 333 333 333 333 329 329 328 327 327 326
320 324 321 321 321 324 323 322 322 321 321 322 320 316 313 312 312 332 336 338 339 340 340 340 340 341 341 340 339 339 339 339 339 337 335 335 335 335 333 333 333 333 333 332 330 329 328 327 328
323 320 320 320 319 322 323 318 323 322 322 321 320 313 312 312 311 312 319 331 336 337 338 339 340 339 339 340 340 340 340 339 339 338 334 334 334 334 333 332 332 333 333 333 332 330 329 328 328
316 317 319 318 318 319 322 319 321 320 320 320 320 318 311 311 311 311 311 316 321 322 330 336 338 339 339 339 338 338 337 337 337 335 337 338 338 336 333 333 333 333 333 334 332 330 329 328 328
317 317 318 317 316 318 319 320 318 317 317 317 317 315 309 310 308 307 309 310 313 317 318 320 327 333 337 338 338 338 338 338 339 339 338 338 338 338 338 337 336 334 332 332 331 330 329 328 328
316 316 316 317 314 315 317 318 318 317 315 314 313 311 309 308 307 305 308 309 311 312 313 314 314 314 315 317 321 328 335 337 338 338 337 337 336 337 337 337 337 336 336 335 333 332 331 328 328
319 315 315 316 316 320 315 321 315 317 317 314 315 313 310 308 305 305 308 310 311 312 312 312 312 312 312 312 312 313 314 321 326 329 330 330 328 330 333 334 335 336 335 333 332 332 332 330 327
317 317 315 315 314 315 314 316 315 310 312 315 315 312 309 307 305 306 308 310 312 312 312 312 312 312 312 312 311 311 311 311 313 315 318 316 316 319 321 324 328 332 333 333 333 331 330 330 329
316 315 314 313 312 318 313 315 316 313 311 310 310 311 312 306 304 306 310 312 312 311 312 312 312 312 313 313 313 312 310 310 310 311 312 312 313 316 318 321 324 328 331 332 331 331 330 329 329
315 317 315 315 320 318 310 313 316 311 309 308 309 307 306 305 305 308 310 310 310 311 311 311 311 311 312 312 312 313 313 313 313 313 313 313 314 315 316 318 321 325 326 328 329 329 328 327 327
315 315 313 316 316 313 309 315 314 309 308 307 307 306 304 304 305 308 309 310 310 310 310 310 310 310 310 311 311 311 311 311 311 311 311 311 311 312 312 313 314 317 319 320 322 323 323 324 323
316 315 309 311 304 305 310 308 306 305 305 305 305 305 305 305 306 308 308 308 308 308 309 309 309 309 309 309 309 309 309 308 308 307 307 307 307 307 308 309 311 312 313 314 317 319 319 318 317
315 312 316 312 315 314 310 308 310 308 307 306 308 307 306 307 308 307 305 306 307 307 307 307 307 308 307 307 306 306 305 305 304 304 304 304 304 304 304 305 306 307 308 309 310 310 311 310 309
318 318 314 311 308 310 312 310 303 306 305 303 306 308 308 308 308 306 304 305 306 305 305 305 305 305 305 305 304 304 303 303 302 302 302 302 302 302 302 302 303 303 304 305 306 306 305 303 303
315 316 316 318 314 305 302 311 304 303 302 301 306 310 309 309 307 304 303 304 303 303 303 303 303 303 302 302 302 301 301 300 300 300 300 300 300 300 300 300 301 301 301 302 303 303 300 300 300

GFSSGP_925_thetae_081.txt.gz
Theta_e
333 325 326 320 325 323 322 323 321 323 320 317 319 323 329 336 339 339 338 343 343 344 347 347 345 345 345 345 345 344 343 341 339 340 341 341 340 341 339 337 336 336 336 336 334 334 336 335 332
333 325 322 321 324 324 323 322 322 321 320 318 327 334 339 343 342 341 343 343 344 346 347 348 345 345 345 345 344 343 340 340 340 340 338 339 341 342 340 338 335 334 334 334 332 333 334 330 328
330 326 322 324 322 323 321 321 324 322 320 319 326 336 341 344 341 342 343 345 347 346 346 346 344 344 345 343 342 340 338 340 336 335 333 336 340 341 340 337 332 328 327 329 330 330 330 330 329
325 323 322 324 325 323 321 321 322 322 321 317 331 343 340 338 341 342 345 347 347 345 345 344 345 344 344 342 340 338 342 339 336 333 336 334 339 342 340 334 330 328 321 326 328 331 330 328 328
323 321 326 326 326 324 322 322 321 322 320 318 329 340 344 339 339 345 347 348 347 345 344 345 343 344 342 340 339 341 339 337 335 332 335 338 339 341 339 334 331 331 323 324 327 327 328 329 329
326 323 327 328 326 325 322 323 320 321 319 317 337 343 342 340 344 345 346 347 348 345 344 345 343 343 341 340 341 340 336 335 333 331 335 335 338 341 338 336 332 331 328 325 329 330 329 329 329
328 326 326 325 325 325 324 323 323 323 318 321 334 343 340 340 343 345 345 345 344 346 344 344 344 342 340 340 341 338 337 335 330 336 337 337 336 340 337 336 332 332 331 322 319 326 328 328 328
323 324 326 323 326 326 326 325 323 324 323 318 332 340 343 340 343 344 345 348 347 347 344 344 343 342 341 341 340 338 336 333 332 337 336 337 337 337 337 334 333 333 331 326 323 321 323 326 327
321 326 329 326 324 326 325 326 323 321 322 323 330 333 336 340 343 343 345 345 344 346 346 344 343 341 341 340 339 337 336 332 333 338 336 333 336 336 336 335 334 333 329 324 323 323 323 323 325
325 327 324 321 324 328 326 325 325 324 319 321 322 320 320 341 342 343 343 343 342 343 342 343 344 342 341 340 339 338 336 330 327 333 337 335 333 332 331 331 329 326 325 324 323 322 322 322 324
324 327 324 325 325 325 326 325 323 324 322 321 322 319 321 333 340 340 341 341 341 341 341 341 342 343 341 340 339 338 336 334 332 329 326 327 328 328 328 329 329 328 327 325 322 321 320 319 320
326 322 324 325 324 324 325 322 322 322 324 319 318 317 323 325 339 340 342 342 341 341 341 340 340 343 342 340 339 338 337 335 334 332 332 332 331 328 327 324 323 323 323 324 322 320 319 319 318
321 324 325 323 320 320 321 323 322 322 319 318 318 319 320 332 335 338 341 341 341 341 340 340 339 344 341 340 340 339 339 337 335 334 334 334 333 333 331 326 321 321 321 323 323 319 318 318 319
320 323 324 321 321 321 322 323 323 321 318 320 319 319 318 325 335 335 339 339 339 341 343 343 343 340 341 340 340 340 339 337 336 335 335 335 334 334 333 330 327 327 326 327 326 325 321 319 319
321 323 321 323 322 323 320 323 324 321 320 321 320 319 318 315 332 335 337 338 341 342 342 341 338 340 342 342 341 340 339 337 337 336 336 336 336 334 333 333 332 332 331 328 328 328 326 325 324
323 322 325 322 321 322 320 325 320 321 321 321 321 320 319 316 318 334 336 338 340 342 341 340 338 339 342 342 341 340 339 338 338 338 336 336 335 335 334 333 332 332 333 332 330 328 328 328 327
321 324 322 323 321 323 321 323 320 320 321 322 321 320 320 318 313 314 334 337 339 341 341 340 339 338 338 340 341 341 339 338 338 338 338 336 335 334 335 334 333 333 333 332 332 331 329 329 329
323 323 321 322 322 322 323 323 322 320 322 322 321 320 320 319 315 313 320 333 337 338 338 339 340 340 340 340 340 339 338 339 339 339 339 337 336 334 334 334 334 333 332 332 332 332 332 330 329
317 319 320 318 318 323 324 322 321 322 320 321 321 320 320 319 314 312 310 319 330 334 338 339 339 339 338 339 339 339 339 339 339 339 339 339 334 336 335 333 333 332 332 332 332 332 331 329 329
317 318 319 317 316 321 321 323 319 322 321 321 321 320 320 315 311 310 309 310 315 319 325 334 337 338 339 339 338 338 338 338 338 337 337 335 336 337 337 337 335 333 333 332 332 331 329 328 329
316 317 316 318 315 316 319 321 319 318 319 320 320 319 319 315 312 310 308 309 310 312 315 320 326 332 336 337 337 337 337 337 337 337 337 337 337 336 336 336 336 336 336 335 335 333 331 329 329
319 315 315 316 318 323 314 325 317 319 319 317 318 318 318 313 309 308 307 309 310 311 311 312 312 313 314 315 316 319 322 324 327 329 331 332 330 329 331 333 334 335 335 334 335 334 332 330 328
316 315 314 313 314 316 315 319 316 313 319 318 316 316 316 313 311 309 308 309 310 311 311 311 311 311 311 311 311 311 311 311 312 314 316 317 317 318 320 322 324 327 331 332 333 332 332 331 328
314 314 313 312 313 319 315 317 317 315 313 312 315 317 316 314 311 309 308 309 311 311 311 312 312 312 312 312 312 311 310 310 310 311 311 312 312 314 315 317 319 321 325 329 329 331 331 330 328
316 315 319 317 319 318 310 314 317 314 311 310 311 310 311 312 309 308 310 310 310 310 311 311 312 312 312 312 312 312 312 312 312 312 312 312 312 313 314 315 318 321 322 323 324 327 327 327 326
316 316 315 317 318 315 309 316 315 310 308 309 308 307 306 306 306 308 310 310 309 310 310 310 311 311 311 311 311 311 312 312 311 311 311 311 311 311 311 311 312 314 317 320 321 324 325 325 325
315 318 310 312 305 310 311 309 307 306 307 306 306 306 306 306 306 309 310 309 308 308 309 310 310 310 310 310 310 310 309 309 308 308 307 307 307 307 308 308 309 310 311 313 317 319 319 319 317
315 311 316 315 316 317 311 309 312 309 308 307 306 306 307 306 307 309 308 306 307 308 308 308 308 308 308 307 307 307 307 306 306 305 305 304 304 304 304 304 305 306 307 308 309 311 312 311 309
317 317 314 312 310 315 313 311 305 307 306 305 304 303 307 307 308 308 306 306 306 306 306 306 307 306 306 306 305 305 304 303 303 303 302 302 302 302 302 302 303 303 304 305 306 306 304 303 303
315 315 316 318 314 306 306 314 305 303 303 302 303 306 309 308 308 307 305 304 303 304 304 305 304 304 304 303 303 302 301 301 301 300 300 300 300 300 300 300 301 301 302 302 303 301 301 301 301

GFSSGP_925_thetae_084.txt.gz
Theta_e
334 329 327 325 325 325 323 324 325 325 323 323 324 325 334 340 340 343 343 346 345 347 349 348 345 345 345 345 345 344 342 341 341 342 341 342 341 339 337 337 337 337 337 336 338 338 335 333 332
333 327 324 326 325 325 324 324 324 326 325 325 331 333 334 338 343 345 345 346 345 347 348 349 345 345 345 345 344 343 340 339 339 338 340 342 342 340 338 336 335 336 335 334 336 335 332 328 326
331 326 325 324 324 325 324 324 327 326 324 328 331 337 340 345 344 344 344 346 345 347 347 349 346 345 345 345 343 340 338 339 337 336 337 341 342 341 339 336 331 329 332 332 333 332 332 330 330
327 326 325 325 324 324 323 326 326 326 324 324 329 341 344 342 344 343 345 346 345 347 348 347 345 345 345 343 341 338 339 335 333 331 332 339 342 340 336 331 326 323 328 332 332 331 330 329 331
326 327 326 325 324 324 325 325 325 326 325 326 332 342 346 344 343 345 346 346 345 346 347 346 345 344 343 341 338 340 338 337 334 330 332 339 342 340 336 331 330 320 325 331 333 332 331 330 332
329 327 327 327 325 326 325 326 325 326 324 327 335 341 346 343 346 346 346 347 346 345 346 348 345 344 342 340 340 340 338 335 333 332 332 338 341 340 336 332 332 328 321 322 328 330 330 329 329
329 328 327 326 325 325 325 325 326 324 323 328 336 341 346 343 345 346 346 346 346 345 346 346 347 346 341 340 342 338 336 333 332 336 336 335 341 338 337 333 332 332 327 323 325 327 327 328 328
328 329 327 327 328 325 326 326 326 326 326 328 339 344 348 342 344 346 345 344 345 345 346 346 346 345 344 343 340 338 335 330 335 337 338 336 339 337 337 333 333 333 329 324 322 325 327 327 327
324 331 331 328 328 327 327 326 326 324 328 328 327 330 329 339 343 344 344 344 344 345 347 345 346 345 344 343 341 338 335 331 337 337 336 337 338 338 336 336 333 333 328 325 324 323 323 323 326
327 330 329 326 326 326 327 326 327 325 327 327 326 325 325 343 344 345 345 343 343 344 345 345 345 345 344 343 341 340 337 337 337 338 337 336 336 336 336 334 332 326 325 324 323 323 322 323 329
326 329 325 325 324 325 327 327 326 325 327 326 325 325 328 334 343 345 345 344 343 343 343 344 346 345 344 342 342 340 338 335 335 336 336 335 335 334 333 333 331 332 329 331 327 329 328 327 326
327 325 325 327 327 327 327 326 326 326 326 323 323 323 329 327 340 340 343 343 342 343 343 343 343 345 344 343 341 340 339 337 336 334 333 333 333 333 333 332 330 330 329 329 328 326 326 326 326
325 325 325 325 324 325 325 327 325 325 323 322 322 323 324 328 334 339 342 344 343 342 341 342 342 343 344 343 341 341 340 339 338 336 334 335 335 334 333 333 329 329 329 330 329 327 324 324 325
322 325 326 324 323 323 325 326 325 325 323 323 323 324 324 322 328 337 341 343 342 342 341 341 341 341 344 343 342 341 341 340 339 338 337 335 335 335 334 333 331 329 330 331 331 330 328 326 325
322 325 326 325 325 325 323 326 327 324 323 324 324 324 324 323 321 333 339 341 342 341 342 342 342 341 343 342 343 342 342 341 339 339 338 337 336 336 334 334 333 332 332 331 331 331 330 330 329
322 322 325 325 325 324 323 328 324 323 323 324 324 324 324 323 321 319 335 339 340 342 344 344 342 342 342 343 343 342 341 340 340 340 339 338 337 337 336 335 334 334 333 333 332 332 332 332 331
323 323 322 326 324 324 324 325 322 322 322 323 323 324 324 324 322 320 318 337 340 341 342 342 341 341 343 343 343 343 342 340 340 340 340 339 338 337 337 337 336 335 334 333 333 332 332 333 333
323 322 321 322 324 324 324 324 322 322 322 323 323 324 324 324 323 321 316 325 338 340 341 341 340 341 341 343 343 343 342 341 340 340 340 340 339 338 337 337 337 336 335 334 333 333 333 333 333
320 321 322 321 322 323 323 323 322 321 322 322 323 324 324 324 322 319 315 314 326 332 338 338 340 340 341 341 341 341 341 341 341 340 340 339 339 337 335 336 336 335 334 334 334 334 333 333 332
319 319 319 319 320 323 323 324 322 321 322 321 322 323 324 323 323 319 314 313 317 326 328 334 337 339 339 340 340 341 341 340 340 340 339 338 338 338 336 336 336 335 334 333 333 333 332 332 332
318 318 319 320 319 322 321 322 322 321 321 321 321 322 324 324 323 321 317 313 313 317 319 323 329 335 337 337 336 336 337 337 338 338 338 337 336 336 336 336 337 337 335 335 334 333 332 333 333
320 318 319 319 321 322 320 323 321 321 321 321 321 321 321 323 322 320 316 313 312 314 314 314 318 324 329 332 328 333 337 338 336 334 331 331 334 333 333 333 335 331 332 332 334 334 332 333 333
318 317 319 319 321 320 320 322 320 318 320 321 320 320 320 321 321 316 315 313 313 313 313 313 312 313 314 315 314 316 316 316 315 315 316 318 320 321 321 322 323 325 328 328 330 330 331 332 330
316 317 318 317 318 321 317 320 319 318 317 318 319 320 319 318 320 317 316 314 313 313 312 311 313 313 312 311 311 311 312 312 312 313 313 314 314 313 314 315 317 318 320 324 325 326 328 329 329
318 319 321 323 323 319 315 318 316 316 317 316 316 316 318 318 319 318 316 314 314 313 313 312 313 313 313 313 313 313 313 313 314 313 313 313 313 312 312 313 315 317 318 320 321 323 325 327 327
317 317 317 317 317 316 314 317 315 315 315 315 315 314 311 312 314 315 315 314 314 313 313 312 313 312 312 312 312 312 312 312 311 311 310 309 309 309 310 310 311 312 314 318 320 322 324 325 325
319 321 315 318 312 317 316 315 315 315 314 313 313 312 313 313 311 310 311 312 314 313 312 312 312 311 311 310 310 310 310 309 308 308 307 306 307 306 307 307 308 309 310 312 315 317 319 320 319
317 315 319 320 321 319 316 315 314 313 313 312 312 311 310 311 310 309 311 312 312 311 311 311 311 311 309 307 307 306 306 307 306 306 305 305 305 305 305 305 305 306 306 307 309 311 311 312 313
317 317 317 316 317 319 315 314 313 312 312 311 312 310 310 311 311 310 311 311 310 310 309 310 309 308 307 306 305 305 304 305 304 303 303 302 303 303 303 303 303 303 304 305 306 306 306 306 305
316 316 316 318 317 316 316 315 310 310 309 309 311 312 313 312 311 311 311 310 309 308 308 308 308 307 306 304 303 302 301 301 301 301 301 301 300 301 301 301 301 301 301 302 302 302 302 302 302

GFSSGP_925_thetae_087.txt.gz
Theta_e
331 331 327 327 327 325 326 327 326 326 326 327 326 328 335 343 342 353 342 342 347 348 346 347 344 344 345 345 344 343 342 341 341 341 343 341 338 337 338 338 337 337 338 339 337 335 334 333 332
332 329 327 327 328 325 325 325 325 327 326 326 328 331 334 346 346 345 345 344 346 347 347 346 344 344 345 345 344 342 340 340 340 341 343 342 340 338 336 336 337 336 337 337 336 333 331 329 329
334 328 326 326 325 326 324 324 324 326 326 327 329 333 336 347 345 344 344 344 345 347 346 346 344 345 345 344 343 340 339 340 336 337 342 343 341 338 336 332 333 334 334 334 334 334 332 333 334
330 326 328 327 326 325 325 325 327 326 325 327 328 333 343 344 344 345 345 344 345 346 346 346 345 345 345 344 341 338 336 333 330 332 340 343 340 337 331 322 323 331 333 334 334 333 332 333 332
329 327 326 327 327 325 325 326 326 326 326 327 331 341 347 345 344 345 345 343 345 345 350 348 345 345 345 342 338 339 336 335 327 329 338 343 340 336 330 327 320 322 329 333 333 333 330 333 330
331 329 328 328 327 325 325 326 326 326 326 329 333 339 349 346 346 345 345 343 344 346 347 348 345 345 343 340 339 340 338 334 329 327 338 342 341 336 332 331 324 323 327 329 329 328 328 328 330
333 329 330 328 327 326 326 326 325 325 326 332 337 338 348 345 347 346 346 346 344 346 345 348 348 346 342 339 341 339 335 332 333 331 335 340 339 337 335 331 331 324 323 327 328 329 328 328 328
330 330 328 327 327 328 326 326 327 327 327 333 339 342 350 344 346 346 346 344 344 345 346 347 348 346 344 343 340 337 335 330 336 337 334 341 339 337 336 331 332 329 324 320 323 326 326 327 327
326 333 332 327 327 327 326 327 327 326 330 329 330 333 334 340 345 346 345 344 345 343 345 345 347 345 343 344 340 337 334 331 337 338 337 336 340 339 336 337 332 331 327 324 321 320 321 323 325
329 332 329 326 326 327 328 325 326 327 329 329 329 331 339 343 345 345 345 345 344 344 345 346 345 344 343 343 341 340 338 337 339 338 338 339 337 337 337 335 331 327 325 323 322 321 320 320 330
327 330 327 327 327 327 328 327 327 325 329 328 328 330 337 344 345 345 345 344 344 344 345 346 345 344 343 343 340 339 338 338 338 338 337 335 335 336 334 335 332 332 327 332 328 329 329 329 327
328 326 327 325 327 327 328 327 326 325 328 326 325 328 335 338 343 342 345 344 343 343 344 345 346 345 344 342 341 339 338 336 336 336 336 334 333 333 333 332 331 331 330 330 329 327 327 327 326
326 326 325 327 327 326 326 327 326 327 326 324 325 326 330 336 338 340 341 343 343 343 343 343 345 344 344 342 341 339 338 338 337 336 333 334 335 335 334 334 331 329 329 330 330 329 326 325 325
324 327 326 326 326 326 327 326 327 325 325 325 324 325 327 327 335 337 339 343 344 342 342 342 342 343 343 343 341 340 339 339 339 338 337 336 336 336 335 334 332 331 331 332 333 331 330 328 327
321 325 325 325 326 326 325 327 328 325 325 325 325 325 325 326 326 338 340 341 342 342 342 341 341 342 343 343 342 341 340 340 339 338 338 337 336 336 335 335 335 334 333 332 332 333 332 332 331
321 323 328 325 325 325 325 325 325 324 325 325 325 325 325 326 325 324 331 339 340 343 343 343 341 340 342 343 341 341 340 340 339 339 338 337 337 338 337 336 336 335 335 335 334 334 334 333 333
322 323 324 325 324 324 325 324 322 324 325 325 324 324 325 325 325 324 323 331 339 341 342 342 342 342 342 342 342 342 340 339 339 339 339 338 338 338 338 338 338 337 336 335 335 335 334 334 334
322 320 319 322 325 324 326 324 323 323 324 324 324 324 324 325 326 323 320 320 337 340 341 341 342 342 341 341 341 340 341 340 340 339 339 340 340 339 338 338 338 338 337 337 336 336 335 335 335
317 319 318 318 321 324 324 323 323 322 323 323 323 323 323 324 325 322 319 316 327 339 341 342 342 342 341 342 342 341 342 341 341 341 341 341 340 340 339 339 338 338 338 337 337 336 336 335 335
320 319 320 319 320 321 321 321 320 321 322 322 323 323 323 324 325 323 319 316 317 330 337 341 341 340 341 341 342 342 341 341 341 340 342 342 341 340 339 338 338 338 338 337 336 336 335 335 334
319 319 321 320 320 320 321 322 321 321 321 321 321 321 322 323 324 325 321 318 316 322 329 333 338 340 341 341 341 340 340 340 341 341 340 340 339 339 338 338 337 336 336 336 336 335 334 334 334
319 318 317 319 321 322 320 320 318 319 321 321 321 321 321 323 325 325 322 319 315 316 321 322 329 335 338 338 337 336 337 339 339 338 338 335 331 331 332 334 334 333 333 333 333 333 332 332 333
318 318 319 319 320 321 321 322 319 319 321 321 321 321 320 322 324 325 322 319 316 315 317 317 318 321 321 323 327 331 333 332 330 327 323 322 322 323 324 324 324 325 328 328 329 329 329 329 330
318 318 318 319 320 325 320 321 319 319 319 319 319 320 320 320 321 323 320 318 316 316 316 315 315 316 316 316 317 317 317 316 315 315 315 316 316 316 315 316 316 318 320 322 324 324 326 328 329
317 318 322 322 323 321 316 317 318 317 317 317 317 318 319 320 320 321 320 318 317 317 316 315 315 315 315 315 315 314 315 315 315 315 315 315 315 315 314 312 314 315 317 318 320 322 322 323 326
316 318 319 319 318 317 316 316 315 315 315 315 316 316 315 316 319 320 321 319 316 316 315 314 315 315 315 315 315 315 315 315 315 314 313 312 312 312 310 309 310 311 312 314 317 320 320 321 323
318 321 316 319 316 317 316 315 314 314 315 315 315 315 316 315 314 316 316 314 316 316 315 314 315 315 314 314 313 312 312 311 310 309 309 308 307 306 306 306 307 307 308 309 311 317 317 318 319
319 316 319 320 319 316 313 315 314 314 314 314 314 313 313 312 314 314 312 313 314 315 315 314 314 314 313 312 311 310 308 307 307 306 306 305 304 304 304 304 304 304 305 306 308 312 312 313 314
318 318 318 317 314 317 315 315 314 314 314 313 314 314 314 313 313 313 312 313 314 314 314 313 313 313 311 310 308 307 306 305 305 304 304 303 303 302 302 302 302 302 303 303 306 308 308 309 309
316 315 315 319 317 316 317 317 312 312 312 312 315 315 315 314 313 313 313 313 312 312 312 313 312 310 310 308 307 307 305 304 304 303 302 301 301 301 301 301 301 301 301 302 304 305 304 305 305

GFSSGP_925_thetae_090.txt.gz
Theta_e
325 326 331 329 334 328 326 326 327 330 328 326 326 330 343 347 349 354 343 347 348 347 346 343 344 344 344 344 343 342 341 340 337 341 339 337 338 338 338 338 338 339 337 336 335 334 334 333 330
331 332 327 330 329 326 325 324 327 327 325 325 329 332 338 350 345 341 343 348 347 347 345 344 345 344 344 344 342 341 339 339 337 343 341 338 336 336 337 336 337 338 335 335 333 332 331 329 330
331 333 328 331 326 327 323 324 325 326 325 326 329 335 341 348 344 343 346 348 346 347 347 344 344 345 345 344 341 339 340 337 338 342 341 339 337 334 333 335 335 336 334 334 334 333 334 331 333
331 329 328 325 328 324 324 323 323 326 325 324 329 346 345 345 345 344 345 346 347 345 347 343 344 344 344 343 339 338 334 331 334 341 343 339 336 333 329 330 333 333 333 333 333 333 333 331 333
330 328 330 328 326 324 325 326 326 325 324 326 328 347 349 345 345 344 344 346 346 346 346 344 344 344 344 340 338 334 333 326 328 339 343 339 335 330 320 321 328 332 333 331 327 329 329 328 332
333 330 328 329 327 325 325 325 325 326 325 328 331 348 349 346 346 344 344 345 347 349 347 344 344 345 343 338 340 337 335 326 326 338 343 340 336 331 328 321 323 328 329 327 328 327 329 329 330
332 332 331 327 326 326 326 324 324 325 324 333 337 348 347 346 346 345 343 344 349 348 347 345 345 344 341 339 340 338 333 329 327 338 340 341 336 335 330 329 323 325 324 325 325 327 327 327 327
331 332 331 327 326 328 325 325 326 326 328 334 334 347 350 345 345 346 347 346 346 346 346 345 345 343 340 342 340 335 331 332 330 336 340 340 337 336 331 331 328 322 319 322 324 325 325 326 326
327 333 332 331 328 327 325 328 326 325 329 328 330 334 339 344 345 346 345 345 345 345 347 347 345 344 342 342 337 335 330 335 336 334 338 339 337 336 334 337 330 326 322 320 319 320 321 321 323
328 332 331 327 327 326 325 326 325 328 329 329 332 340 343 344 345 345 344 345 345 345 346 347 346 344 342 342 338 336 330 336 337 337 334 340 339 337 338 335 329 324 323 321 319 318 317 319 330
327 330 328 327 329 329 327 325 324 327 330 328 328 340 343 345 345 344 344 344 344 345 345 346 345 343 341 342 340 338 338 337 339 338 337 340 337 336 337 332 325 326 323 330 329 328 327 329 327
327 326 326 328 328 329 330 327 326 325 327 325 327 337 341 345 345 345 344 343 342 344 345 345 344 343 341 340 340 340 338 338 338 338 336 335 335 333 332 334 331 332 331 331 330 329 328 327 326
323 322 326 327 327 328 328 329 326 326 324 324 325 334 338 340 343 342 344 343 340 343 344 345 345 344 343 341 339 340 338 336 336 336 336 334 333 334 333 333 331 329 329 329 329 329 326 325 325
321 320 325 326 328 326 326 328 327 326 323 324 325 327 331 337 340 340 341 343 343 342 343 342 344 344 343 342 339 340 338 338 337 336 334 333 335 335 334 334 332 330 330 331 332 331 329 327 326
321 322 325 327 326 326 326 327 328 325 324 324 324 324 326 327 337 338 339 342 344 343 342 341 343 342 344 343 341 339 339 338 339 338 337 335 336 335 335 334 334 332 331 331 332 333 332 331 331
324 325 326 324 325 326 326 326 326 324 324 324 323 322 323 325 326 331 340 341 342 342 341 341 340 340 341 342 342 341 338 339 338 338 338 338 337 336 335 335 335 335 334 334 333 333 333 333 333
321 325 324 325 325 325 325 325 321 324 322 323 322 321 322 323 324 324 329 338 341 342 342 342 341 340 340 341 342 340 340 339 339 338 338 337 337 337 337 337 336 336 335 334 334 335 334 334 334
322 320 321 324 325 324 327 324 321 321 324 323 322 321 320 322 323 324 322 327 337 339 342 342 342 341 340 340 341 339 341 340 339 338 339 338 338 338 338 338 338 338 337 336 336 335 335 335 334
318 318 318 320 324 325 323 324 322 320 322 322 320 320 319 320 322 323 319 320 334 339 341 341 340 341 341 341 341 340 339 340 339 339 339 339 339 339 338 338 338 338 338 337 337 336 336 335 335
319 316 317 320 322 324 322 322 320 319 320 321 320 319 319 319 320 320 318 317 328 338 340 341 341 341 341 339 340 339 338 338 339 339 340 340 340 340 339 339 338 338 337 338 337 336 335 335 335
320 319 319 321 320 319 319 319 318 318 317 318 319 318 319 318 319 319 316 316 318 329 336 340 341 341 338 341 341 339 338 337 339 338 338 338 340 339 339 338 337 337 336 336 335 335 334 334 334
320 318 320 321 320 321 318 320 318 318 318 317 317 317 317 317 318 319 318 316 316 319 331 333 337 340 340 340 339 336 335 336 336 337 337 338 338 338 337 336 336 335 334 334 333 333 333 333 332
319 318 320 320 319 318 321 321 316 317 318 318 317 316 317 316 317 319 318 317 316 317 324 326 329 335 338 338 338 336 336 335 336 337 336 335 330 328 328 327 326 327 327 328 328 329 329 329 329
318 319 318 318 318 321 320 319 318 315 316 318 316 317 317 316 317 319 320 317 316 315 317 319 321 324 327 328 333 331 333 325 324 322 320 319 317 317 315 315 316 317 319 321 322 322 323 324 326
318 319 321 321 322 318 315 318 317 315 315 316 315 314 315 315 316 318 317 316 316 316 316 316 316 317 318 318 320 320 318 316 315 315 315 316 315 315 314 313 313 314 316 316 318 319 321 321 322
317 318 321 319 318 315 314 316 313 313 313 313 314 314 314 312 313 316 316 317 316 317 316 315 315 315 316 315 315 315 315 315 315 315 314 314 314 314 313 310 310 311 311 312 314 316 318 320 321
316 316 316 320 316 314 316 314 312 311 313 314 315 315 314 313 312 317 315 318 317 317 316 315 315 315 315 315 315 315 314 314 313 313 312 311 310 309 308 308 308 308 308 308 309 312 316 315 316
319 317 319 316 315 316 311 310 313 313 312 313 312 312 312 312 312 311 311 315 316 316 316 314 315 315 315 314 313 312 311 311 310 309 308 307 307 307 306 306 306 305 305 306 307 309 313 312 313
319 321 320 317 314 312 314 313 309 311 311 311 311 313 312 312 311 310 309 312 314 316 315 315 315 314 313 312 310 310 310 309 307 307 307 307 306 305 305 304 304 303 304 304 305 308 309 309 309
316 317 319 321 318 314 312 314 312 309 309 311 313 314 313 313 312 310 310 313 313 314 314 314 314 313 311 310 310 308 307 306 306 305 305 304 303 303 303 302 302 302 302 302 303 305 305 306 306

GFSSGP_925_thetae_093.txt.gz
Theta_e
325 324 329 328 326 324 324 323 324 326 326 323 326 340 350 347 349 346 346 348 347 345 345 344 342 343 343 342 341 339 336 339 337 336 338 339 340 340 341 342 339 337 336 335 334 333 332 321 321
324 328 331 327 330 321 320 321 322 324 324 325 329 342 346 349 341 343 347 348 344 343 342 342 343 343 343 342 341 339 336 340 338 336 336 336 337 336 337 337 336 336 334 333 333 332 327 325 330
325 332 325 327 323 324 320 321 320 324 323 324 331 335 343 346 343 342 347 347 343 343 343 343 344 344 343 341 339 338 336 341 341 337 335 334 334 336 336 337 334 334 334 334 334 332 332 329 333
329 329 325 322 326 322 323 322 322 324 323 323 339 349 344 344 342 347 346 346 343 344 344 344 344 344 343 340 338 337 336 340 342 338 332 334 331 333 334 334 334 332 332 334 335 331 332 330 334
327 327 330 328 323 323 321 325 323 323 323 324 337 349 347 346 344 346 346 345 345 346 343 344 344 344 342 338 335 331 330 338 342 340 336 328 327 328 332 331 331 331 333 333 333 328 331 333 334
329 328 326 328 324 323 323 323 324 324 323 328 344 348 346 346 343 345 346 344 346 345 342 344 344 343 340 337 334 332 324 335 340 342 338 332 325 317 319 323 325 329 331 330 329 327 328 329 328
329 328 328 324 324 325 324 321 323 324 329 337 337 349 345 344 345 343 345 345 346 344 343 344 344 343 338 338 336 333 324 331 339 342 338 334 331 326 318 320 324 328 325 326 325 325 326 325 324
327 328 330 327 324 328 323 326 325 326 330 330 335 349 346 343 346 346 348 347 346 344 343 344 344 341 339 340 337 332 327 329 339 342 340 335 334 328 326 321 319 322 322 323 323 324 324 325 325
325 329 331 329 327 326 324 326 324 325 329 332 330 335 344 345 344 345 345 347 347 345 343 344 344 340 339 340 336 332 331 329 338 339 340 336 336 331 329 327 323 319 318 318 320 321 321 322 322
328 329 330 327 328 323 325 324 325 328 328 337 344 341 344 345 344 344 344 344 346 347 345 343 343 340 339 340 336 332 331 334 333 336 339 337 335 333 334 331 326 323 320 318 317 317 316 320 329
327 329 327 329 329 328 326 323 324 327 329 328 344 344 343 345 344 342 344 344 345 347 346 344 343 341 340 340 337 334 329 335 335 334 336 339 339 336 337 332 326 322 320 322 324 325 322 327 327
328 326 327 328 328 327 329 327 323 325 326 326 339 342 344 344 344 343 343 344 344 345 347 346 344 341 339 339 338 338 336 337 336 333 337 339 338 336 336 333 330 331 329 330 329 328 328 327 326
324 322 325 326 328 327 328 329 327 324 323 325 338 341 344 344 344 342 342 342 343 344 345 345 343 340 339 338 339 339 338 338 337 337 336 336 336 333 332 333 331 330 330 329 329 328 326 325 325
321 322 321 324 326 327 328 329 328 324 321 322 335 338 338 342 342 342 342 342 340 344 344 344 344 342 340 338 338 339 337 336 337 337 336 334 333 333 333 333 331 329 328 329 330 330 329 326 325
321 322 321 321 326 327 326 330 329 323 321 323 323 329 336 337 340 341 343 342 340 341 343 345 344 343 343 339 338 339 338 337 336 336 335 333 335 335 334 333 333 330 330 331 332 332 330 330 330
324 323 324 323 325 325 327 330 328 324 321 321 321 322 324 327 338 339 342 342 341 342 342 342 344 343 344 342 340 338 339 337 337 336 338 335 334 335 335 334 334 333 332 331 331 332 332 332 332
321 326 323 323 323 325 326 326 323 323 321 321 319 319 322 323 324 333 338 340 342 343 342 341 341 342 341 343 343 340 340 337 337 338 338 337 337 336 335 335 335 335 334 334 334 333 333 333 333
322 323 323 322 323 324 327 325 322 320 320 320 319 317 318 322 322 324 335 339 341 341 340 339 339 339 340 340 341 342 339 338 336 338 338 337 337 336 337 337 337 336 335 335 334 334 334 334 334
318 318 319 321 323 322 325 325 323 320 321 319 318 319 318 317 321 323 325 338 337 341 341 341 340 340 339 339 339 341 340 340 340 339 338 338 337 335 337 337 337 337 336 336 335 335 335 335 335
318 317 318 321 324 324 324 324 323 321 320 319 319 318 317 316 317 319 321 324 333 337 340 342 342 341 341 340 339 340 340 340 340 339 337 338 338 338 338 338 338 337 337 337 337 337 336 335 334
318 317 317 322 322 322 322 321 318 319 316 318 318 317 316 316 315 316 314 318 328 337 340 341 340 340 341 341 341 340 339 339 337 336 335 335 335 337 336 336 337 337 336 336 335 335 335 335 333
320 319 319 320 321 321 316 318 314 316 315 315 315 316 316 315 315 316 312 314 318 335 339 340 340 340 340 340 339 338 337 337 336 335 335 334 334 329 326 327 329 331 336 334 333 333 333 333 331
318 318 319 320 318 317 319 318 316 313 314 315 312 312 313 314 314 317 314 315 316 326 332 337 339 340 340 339 339 337 336 335 334 335 335 334 332 333 333 324 326 333 333 331 330 328 328 328 328
316 318 317 316 316 315 317 319 316 313 314 315 313 313 313 314 314 313 318 317 314 316 325 331 331 335 338 338 338 337 335 334 334 335 334 332 330 327 324 321 319 318 320 321 321 321 322 323 324
317 318 319 314 313 314 314 316 317 313 311 312 312 312 312 312 313 314 312 313 314 317 320 322 324 328 331 329 333 333 334 332 333 330 326 321 318 316 315 313 313 313 314 315 316 317 319 320 320
317 316 315 318 317 313 312 315 312 310 310 312 311 310 309 309 310 314 314 313 315 315 316 316 317 319 320 320 321 319 324 323 320 318 316 315 315 315 314 313 311 311 311 311 312 314 316 317 320
314 315 314 316 315 309 312 312 310 310 312 311 312 312 311 309 310 312 313 313 315 315 315 315 315 315 315 315 315 315 315 316 315 314 314 314 314 313 311 310 309 309 309 309 309 310 313 316 315
317 315 316 316 321 317 310 312 312 311 309 311 309 308 309 308 309 310 311 313 315 315 316 315 315 315 315 315 315 315 314 314 313 313 312 311 310 309 308 308 308 306 307 307 307 307 311 313 312
318 318 318 315 313 311 312 310 308 308 309 310 311 311 311 310 307 307 307 312 315 315 315 315 314 315 315 314 313 312 311 310 309 309 309 308 307 307 307 305 304 305 304 304 305 306 308 310 310
316 317 318 312 316 311 309 312 308 307 309 311 312 312 311 311 309 306 308 311 312 314 315 314 314 314 313 313 314 312 309 309 308 307 305 306 306 305 303 303 303 303 303 303 303 305 306 307 307

GFSSGP_925_thetae_096.txt.gz
Theta_e
333 330 329 329 328 322 324 325 323 330 326 323 329 340 348 345 347 344 345 346 345 345 345 343 341 343 342 339 336 337 334 337 339 342 344 344 344 344 342 340 339 337 335 333 332 331 331 330 331
331 328 330 324 324 322 323 321 323 333 323 334 340 341 343 347 342 347 348 347 344 345 344 342 343 342 341 339 337 336 336 333 337 339 340 340 341 341 338 337 336 335 334 334 330 328 329 333 334
330 327 325 326 323 320 318 320 320 327 327 322 336 341 344 346 347 345 348 347 345 345 343 342 343 342 340 339 338 336 338 337 335 336 337 337 337 336 335 336 334 334 333 330 327 328 332 334 335
328 328 326 326 324 320 318 322 320 324 329 329 343 349 345 344 342 347 348 346 344 344 343 343 343 342 341 340 338 336 341 339 336 334 334 336 336 339 334 335 334 333 333 332 330 329 333 334 333
326 324 329 328 324 322 320 324 319 322 324 331 338 347 347 345 345 347 347 345 342 344 343 343 343 342 340 337 337 337 341 340 334 332 332 334 335 335 334 333 332 331 332 329 330 330 333 334 332
329 325 328 328 324 321 320 322 322 321 328 335 345 346 346 344 345 346 345 344 342 343 344 343 344 342 337 334 332 337 340 341 337 332 329 331 333 333 332 330 324 324 328 331 329 331 332 333 332
330 329 324 324 322 323 323 321 321 324 334 337 340 343 345 343 344 345 344 342 343 343 344 344 343 340 336 332 329 331 339 341 340 336 329 322 322 328 330 329 323 323 323 325 326 328 328 325 329
328 327 328 324 323 326 321 325 325 328 330 329 338 347 348 344 344 344 344 344 343 343 344 344 342 338 335 336 331 325 336 339 342 336 333 329 323 318 320 322 323 322 324 324 324 324 324 324 323
326 331 328 328 326 325 323 326 324 326 333 337 332 341 342 344 344 345 346 346 345 345 344 344 341 339 338 336 331 326 332 339 342 340 334 333 328 325 320 320 321 321 322 322 323 323 323 323 323
328 329 328 327 327 324 324 324 327 329 335 342 342 345 345 344 345 344 346 345 345 345 345 344 340 339 339 336 332 328 327 338 339 341 336 335 333 327 327 325 322 319 318 318 318 318 319 321 326
327 328 328 329 330 329 323 324 325 328 330 339 343 343 343 342 343 344 345 345 343 345 345 343 340 338 339 336 333 329 329 331 336 338 337 336 333 332 332 329 324 321 320 319 318 317 316 326 327
328 327 328 328 329 329 329 325 324 325 326 335 340 341 341 341 340 343 343 344 345 345 344 343 340 338 339 338 334 329 332 332 332 334 337 336 338 336 336 331 325 323 324 327 327 327 327 327 326
325 326 324 325 326 327 328 328 327 325 325 337 340 342 343 340 339 342 343 344 345 345 344 343 341 339 339 338 337 335 330 333 332 334 337 339 338 336 334 332 331 330 330 329 329 328 327 326 325
321 323 322 323 326 328 329 328 326 324 324 337 340 341 342 340 340 341 342 342 344 345 345 343 342 340 339 337 337 337 336 337 335 335 335 336 336 335 332 332 332 330 328 329 329 329 328 326 325
321 323 321 323 325 327 327 329 327 323 321 331 336 337 339 341 342 341 341 341 344 344 345 345 343 341 339 338 338 339 337 337 337 336 337 335 335 333 333 332 332 331 328 328 330 331 330 329 328
322 320 322 323 325 325 326 332 327 325 320 321 325 331 335 337 340 341 341 341 341 343 344 344 343 342 340 338 338 338 340 337 336 335 336 333 333 333 334 333 333 332 329 330 331 331 332 332 332
321 323 322 324 323 326 326 327 324 324 322 320 319 322 326 330 334 340 341 341 340 339 343 344 344 343 342 341 339 338 340 337 335 336 336 336 333 334 335 334 334 334 333 332 332 332 332 332 332
321 322 321 322 323 325 327 326 325 323 322 320 318 317 319 322 325 336 339 341 340 340 341 342 343 343 344 343 342 341 341 339 337 337 336 336 336 336 335 335 334 334 335 334 334 334 334 334 334
317 322 323 320 321 324 324 324 325 323 322 319 317 316 315 318 322 324 332 339 340 341 340 341 342 342 342 341 341 342 342 341 339 338 338 338 337 337 336 336 336 336 335 334 334 335 335 334 334
317 318 317 321 321 322 322 320 321 323 321 318 316 316 316 315 315 320 322 331 338 340 340 341 339 339 338 339 339 340 341 341 339 339 338 338 337 337 336 337 337 337 337 336 335 336 335 335 335
316 315 317 323 323 322 321 322 322 320 320 316 317 316 316 316 314 316 318 320 332 337 339 340 340 340 339 339 339 339 339 340 340 338 339 337 336 336 335 336 335 334 334 333 335 335 335 334 333
319 317 317 322 324 326 321 322 314 315 317 317 315 315 315 314 313 314 317 316 320 331 338 339 340 341 340 340 339 339 339 338 339 338 336 335 335 335 334 335 334 332 325 327 325 333 333 333 332
317 317 319 320 318 317 318 319 315 313 314 315 311 312 315 314 312 314 315 317 320 323 334 337 339 341 340 340 340 339 339 338 337 338 336 335 334 334 333 330 326 327 324 322 329 333 332 330 328
315 317 316 319 318 321 316 319 317 314 313 313 311 311 313 315 312 313 317 317 317 318 323 335 337 338 339 339 339 339 337 337 336 335 335 335 334 332 328 330 330 326 327 328 326 325 324 324 324
316 320 322 322 322 322 313 318 317 313 311 310 310 310 309 310 312 310 313 313 314 315 316 325 331 335 337 338 338 338 335 335 335 334 334 331 330 328 325 321 318 317 315 314 315 316 318 319 319
316 318 317 318 318 315 313 317 314 310 311 309 309 309 309 309 308 309 311 314 315 315 316 323 326 329 330 329 331 332 334 334 331 332 331 328 325 322 317 314 312 312 312 312 313 314 315 316 318
315 316 314 314 312 310 311 311 309 310 310 310 310 309 309 309 310 308 311 313 314 315 319 322 320 321 322 321 320 322 325 325 325 324 324 324 322 322 315 313 312 310 310 310 310 310 310 313 316
314 314 319 316 320 318 310 312 312 310 309 310 309 308 308 307 308 311 310 311 312 314 315 315 315 316 316 315 315 316 317 317 318 317 316 315 314 313 311 310 308 307 307 307 307 307 307 310 314
317 316 316 314 313 314 311 309 304 307 307 309 308 308 308 308 306 306 308 312 313 314 314 314 314 315 315 315 315 314 314 314 313 312 312 312 310 309 307 307 306 307 306 305 305 305 306 308 311
315 316 316 316 314 309 308 311 308 308 309 310 311 310 310 309 307 305 307 310 313 314 314 315 314 314 315 314 314 314 312 311 311 310 308 308 309 309 307 307 306 305 305 304 304 304 305 306 307

GFSSGP_925_thetae_099.txt.gz
Theta_e
331 333 332 329 329 322 324 328 324 330 331 324 330 340 342 339 340 341 345 346 344 345 345 343 342 343 340 335 335 333 340 344 345 345 345 344 345 343 341 339 337 334 333 334 336 336 336 335 336
329 332 329 325 325 324 324 320 325 332 326 338 340 341 342 347 346 346 347 346 345 345 343 342 342 341 338 334 335 334 340 341 343 344 344 344 343 341 340 337 336 335 334 333 334 334 333 334 335
329 329 329 327 325 322 318 319 320 329 329 327 339 341 342 349 345 346 346 346 345 344 342 342 342 340 337 334 335 334 338 340 341 341 341 342 340 339 337 336 334 334 333 333 331 333 334 335 333
328 328 328 328 324 320 316 318 319 330 333 330 340 347 343 343 344 346 346 346 345 344 341 343 341 340 339 336 336 338 337 337 338 337 337 338 337 337 336 334 328 322 325 329 332 334 334 333 332
326 327 331 327 322 319 318 321 322 332 333 333 341 347 347 344 345 347 346 346 345 344 342 343 341 339 339 337 337 339 337 336 334 336 337 338 336 335 334 333 326 328 329 328 332 333 333 332 331
329 329 330 329 323 320 319 320 320 328 330 331 343 344 347 345 347 347 346 345 344 342 343 342 341 340 339 337 337 341 338 335 333 334 335 336 335 334 333 332 333 334 330 329 330 333 333 331 330
327 331 328 323 322 320 321 319 320 331 331 333 340 347 346 344 345 346 345 344 343 343 343 343 341 340 337 336 335 341 339 334 330 329 333 334 333 333 333 333 333 334 332 330 330 331 332 332 330
324 329 325 321 322 322 320 325 326 331 331 330 335 347 349 342 343 344 344 343 344 343 343 343 342 337 332 331 336 340 341 338 333 326 319 323 329 332 333 333 333 328 326 326 328 328 325 325 328
323 330 325 324 323 323 320 325 325 329 334 338 336 341 343 344 343 343 344 344 344 344 344 343 340 336 333 329 330 339 340 340 336 331 326 320 320 322 323 323 323 324 324 324 324 324 324 324 323
326 329 326 328 329 322 322 326 328 334 340 341 344 343 343 343 340 343 341 343 342 343 344 343 340 335 335 331 327 335 338 342 338 333 331 327 323 319 319 319 320 321 321 322 322 322 322 322 322
326 328 329 329 330 328 323 325 325 333 334 341 347 346 342 342 340 342 343 343 343 343 343 343 339 338 336 331 328 330 338 341 340 337 333 333 328 326 325 323 321 320 319 318 318 317 317 320 327
322 327 328 328 328 328 329 324 324 325 327 331 343 343 342 343 339 339 337 338 342 343 343 343 339 339 337 332 329 327 335 338 339 339 335 334 331 330 331 328 323 321 320 320 322 323 320 325 326
316 320 324 326 327 327 326 326 324 324 336 338 340 342 343 343 341 333 333 332 338 343 343 343 339 339 338 334 331 329 328 333 336 337 337 335 335 335 335 332 328 326 327 327 328 327 327 326 325
317 323 322 325 325 326 327 326 324 321 333 340 340 341 339 339 340 339 338 335 339 342 343 343 340 339 338 336 333 329 331 330 332 332 336 337 337 336 334 332 331 330 328 328 328 328 328 326 325
321 319 320 322 325 325 325 327 326 322 324 338 340 338 337 337 339 340 340 340 334 337 340 343 340 339 338 337 336 334 330 332 332 334 336 336 336 335 333 332 331 332 330 328 328 329 329 329 328
322 317 320 323 324 323 326 330 326 321 320 322 329 333 336 338 340 340 340 341 342 342 342 342 341 339 339 337 337 337 336 336 335 335 335 335 335 334 333 332 332 332 330 328 329 330 331 331 330
321 323 319 320 323 323 326 328 322 321 320 319 319 321 330 333 332 339 339 341 341 341 340 341 341 341 340 338 337 337 338 337 336 336 336 336 334 333 332 333 333 332 331 330 330 330 331 331 331
322 322 322 321 323 322 322 325 324 322 321 320 317 317 318 325 330 335 339 339 340 341 341 340 341 341 341 339 338 338 339 338 338 336 335 335 334 333 334 334 334 333 333 333 333 333 333 333 334
318 321 322 321 321 323 322 323 324 324 321 319 317 315 316 317 320 327 333 338 339 339 339 339 339 341 342 341 340 339 339 339 337 335 335 335 335 334 334 334 334 334 334 334 333 333 333 334 334
316 319 318 320 322 321 324 324 322 322 321 320 318 315 315 316 315 318 323 330 336 339 340 340 340 340 341 341 342 342 341 341 340 338 337 337 336 336 336 336 335 335 335 334 335 335 334 335 335
315 316 316 320 322 321 322 323 322 320 322 320 319 314 314 315 316 314 318 321 329 336 338 339 340 341 341 342 342 341 340 340 340 340 338 338 337 337 336 336 335 336 336 336 334 334 334 334 333
317 316 315 323 323 323 320 322 315 320 321 321 319 314 314 313 313 313 315 318 320 331 337 338 338 338 339 339 339 339 338 338 338 339 338 338 338 337 336 334 334 333 332 333 331 331 328 329 328
316 316 317 322 319 317 323 319 317 313 318 318 319 313 312 313 312 312 312 317 322 322 331 335 337 338 338 338 338 338 338 338 337 338 338 336 337 335 335 334 334 333 332 329 329 325 326 331 332
314 315 317 318 318 323 317 319 317 315 314 313 313 312 311 313 313 311 313 316 317 319 320 329 335 337 338 338 338 338 338 338 337 337 336 335 334 334 334 333 331 330 328 327 324 328 329 328 326
316 316 322 322 324 317 313 319 317 314 311 310 311 310 309 310 312 311 311 312 315 314 317 319 330 336 337 338 338 338 338 337 336 335 335 333 331 328 328 328 328 328 326 322 319 318 318 318 317
315 318 315 318 319 318 314 320 316 311 309 309 308 307 307 307 307 309 309 313 314 315 317 317 319 329 334 336 336 335 334 335 334 332 332 331 329 327 325 325 321 313 313 312 312 312 313 315 316
316 313 314 318 311 309 315 310 308 308 308 309 308 309 309 309 307 307 308 312 315 315 316 317 317 324 329 331 331 331 331 331 331 329 328 328 326 326 327 325 319 315 312 310 310 310 310 310 311
314 313 317 315 320 319 311 310 310 309 309 309 309 309 309 307 308 309 307 310 312 315 315 315 318 322 322 322 322 322 322 325 326 327 326 323 321 320 318 315 314 311 310 309 309 308 307 307 308
316 314 315 314 316 313 312 308 305 308 307 308 308 308 308 307 306 306 307 309 310 312 313 315 316 316 316 316 316 317 318 319 319 319 318 317 315 313 311 310 310 309 308 307 306 305 305 305 306
315 317 316 317 315 307 304 309 307 305 306 306 308 309 309 308 305 305 307 310 311 312 313 313 314 314 314 314 314 314 314 314 314 314 312 311 311 310 308 307 307 306 305 305 304 304 303 304 305

GFSSGP_925_thetae_102.txt.gz
Theta_e
329 332 330 328 332 326 328 327 327 331 333 329 328 336 336 335 336 337 343 343 342 345 345 344 342 343 339 333 334 344 345 344 342 343 344 346 345 342 340 338 336 336 336 337 336 338 337 337 333
325 328 328 327 332 328 327 321 328 329 329 331 340 340 342 343 344 347 346 344 343 344 344 342 344 340 335 326 333 343 344 344 343 343 345 345 343 341 339 336 334 334 335 336 337 337 336 336 335
324 327 329 331 330 329 321 319 322 329 336 333 342 340 342 345 345 345 346 345 344 345 343 342 342 337 334 330 336 341 342 343 343 343 344 342 341 340 338 336 335 334 335 336 336 337 334 332 334
324 326 328 331 329 323 316 316 319 330 331 332 342 346 343 343 344 346 345 345 345 344 342 342 340 336 332 330 334 340 341 341 342 343 341 340 340 337 336 335 335 335 336 336 336 335 332 333 333
323 328 331 330 327 323 313 318 321 328 332 333 340 345 348 342 344 346 345 345 345 343 342 341 339 337 334 334 330 336 340 341 340 340 339 339 337 336 334 333 333 335 335 337 337 334 332 332 333
325 326 324 329 326 319 314 318 326 328 331 330 333 344 345 345 346 346 345 345 344 342 343 341 339 338 335 335 336 331 335 336 338 337 337 337 336 334 333 333 337 335 335 336 336 333 331 330 330
323 327 319 326 325 319 316 317 328 330 330 330 335 344 345 347 347 346 345 346 343 342 342 341 339 338 336 336 339 333 329 331 334 335 336 334 333 332 332 333 335 337 334 333 333 332 331 330 329
319 327 326 323 321 321 318 322 322 330 331 331 331 340 348 342 346 345 345 344 343 343 342 341 340 339 337 334 341 337 328 324 329 333 333 333 332 333 333 332 334 336 330 330 331 331 330 328 328
316 321 328 325 324 320 319 325 327 328 332 336 331 338 340 343 343 345 344 344 344 343 343 342 340 338 336 334 341 339 335 329 323 326 330 330 329 329 328 327 324 325 326 327 328 326 324 324 325
316 324 324 323 324 322 322 326 330 335 341 341 343 342 341 342 343 342 342 341 342 342 343 342 340 336 330 333 338 341 338 335 329 322 320 322 323 322 323 323 322 323 323 323 323 323 323 323 322
315 324 323 325 328 329 323 326 325 336 338 340 341 346 343 342 341 341 340 341 340 339 342 342 341 333 332 328 335 340 340 338 333 329 324 321 320 320 320 319 319 319 319 320 319 319 319 320 324
317 315 315 328 327 328 326 322 325 325 331 337 342 343 342 339 333 330 340 341 341 341 342 342 340 334 334 328 328 338 339 341 336 332 331 327 325 324 323 321 320 319 319 318 318 318 316 322 325
315 313 319 324 326 326 325 324 326 325 329 340 342 341 340 339 338 335 341 341 341 342 342 341 340 336 335 331 327 331 338 341 339 335 333 331 327 328 328 327 324 321 321 322 325 325 326 326 325
313 316 316 321 325 325 326 324 325 324 321 340 342 342 340 339 336 335 335 334 337 340 341 342 341 338 337 334 330 327 333 337 339 338 335 333 331 333 333 331 329 328 327 327 328 328 328 327 325
315 316 313 322 324 324 323 327 326 321 325 334 337 341 340 338 336 333 331 329 328 327 338 339 341 338 338 336 332 329 328 333 337 337 336 334 335 336 334 332 331 330 329 328 328 328 328 329 329
318 312 315 317 323 323 324 330 321 319 319 320 324 332 336 338 337 334 332 330 334 329 336 332 338 339 338 338 335 331 329 330 331 331 333 336 337 336 335 333 331 331 331 329 328 328 330 331 330
320 320 317 317 320 323 323 327 322 320 319 318 317 320 327 334 335 337 336 334 335 333 328 327 334 340 339 338 337 334 332 330 332 332 333 335 335 335 334 333 332 331 331 329 328 329 330 330 330
323 321 320 318 321 321 320 321 320 318 320 319 317 315 318 323 333 336 338 336 332 331 334 334 340 339 339 338 337 336 335 334 335 335 335 335 335 334 333 332 332 332 331 331 330 330 331 333 333
318 320 320 320 321 319 320 319 321 319 318 318 317 316 315 317 319 327 335 338 337 336 336 337 338 332 336 338 337 336 336 337 337 337 336 336 336 335 333 333 333 332 333 333 333 333 332 332 333
317 320 320 321 322 321 321 319 321 319 319 318 318 317 315 315 315 316 323 334 336 337 337 337 337 335 335 336 335 337 337 337 339 338 338 336 335 335 333 333 333 334 334 333 333 333 333 333 334
315 316 316 321 323 321 321 322 322 320 318 318 318 316 314 314 314 314 316 322 332 336 337 336 337 337 337 336 335 337 337 338 338 339 337 336 335 334 334 334 334 334 334 334 334 334 334 331 333
317 315 315 322 322 322 319 320 320 320 320 320 318 315 315 313 312 312 313 317 321 330 336 338 338 338 339 337 337 336 336 337 337 338 338 337 337 336 335 334 334 335 333 332 332 332 331 329 327
316 316 316 321 318 320 322 320 316 318 321 320 318 316 314 311 312 312 311 315 320 322 323 333 336 337 338 338 337 336 336 338 338 337 338 338 337 337 336 335 334 334 333 332 330 329 327 324 328
313 316 316 316 317 321 317 320 318 315 316 317 317 314 314 312 310 311 314 315 316 318 320 321 332 336 337 335 337 337 337 337 337 336 336 336 336 335 335 334 333 332 332 329 327 324 323 325 326
315 316 320 322 323 318 312 320 319 314 312 310 311 310 310 309 309 309 310 311 314 316 317 319 323 331 335 336 337 337 337 335 336 336 335 334 332 331 332 332 330 330 329 326 324 324 322 318 317
315 314 312 318 318 314 314 320 317 311 309 308 308 307 307 306 305 305 309 311 314 315 316 316 318 324 331 334 335 335 334 335 333 334 333 333 331 329 329 329 328 326 324 321 316 313 312 312 313
315 314 313 311 309 306 313 311 307 308 308 308 307 308 308 307 306 305 307 310 312 314 316 316 317 319 324 331 332 332 332 332 331 331 331 330 329 327 326 323 321 320 316 312 311 310 310 309 309
314 312 317 318 320 318 311 309 310 309 309 309 309 309 309 306 308 308 307 307 309 312 313 314 316 316 320 326 329 329 328 327 327 327 328 327 326 324 321 320 318 315 314 310 309 308 308 307 307
317 319 315 314 314 314 313 309 304 307 306 307 307 308 307 307 306 307 307 308 309 311 312 314 315 317 320 321 321 320 320 322 324 324 324 324 323 321 318 314 312 309 308 307 307 306 306 306 305
315 317 316 316 315 307 304 309 305 305 306 305 307 308 308 307 304 304 305 308 309 310 312 314 316 317 317 317 316 315 316 318 319 318 318 317 316 312 310 308 308 307 306 306 306 305 304 304 304

GFSSGP_925_thetae_105.txt.gz
Theta_e
323 325 329 327 333 333 332 333 329 332 333 330 329 336 337 335 337 339 342 342 345 346 347 345 343 342 338 334 341 342 339 340 342 343 344 345 345 343 340 338 338 339 337 337 336 337 338 339 339
322 324 327 329 333 334 332 328 329 331 330 331 337 341 341 341 343 344 344 344 345 346 347 345 342 339 332 341 343 344 341 342 343 343 343 344 343 341 339 337 336 337 337 338 337 338 337 335 335
321 323 328 331 331 332 329 324 325 328 330 333 338 340 341 344 344 343 345 345 346 346 346 345 341 338 325 343 344 344 342 342 342 344 344 343 341 339 336 335 336 336 337 337 339 336 335 336 336
318 323 328 332 331 328 326 320 322 331 333 337 341 344 344 343 345 345 345 344 346 346 345 344 339 335 323 342 343 343 342 341 342 343 342 341 340 337 336 335 334 335 335 338 335 332 335 333 332
318 324 327 329 329 327 324 317 324 332 334 337 336 340 347 343 344 345 344 344 345 344 345 343 336 333 324 341 341 342 342 343 342 342 340 339 337 336 335 335 336 335 338 336 333 332 335 332 331
320 323 327 326 327 326 322 320 322 332 334 335 336 336 343 343 346 345 343 343 344 344 344 342 335 333 327 332 340 341 341 342 342 340 339 338 336 335 334 336 337 336 337 337 333 331 331 331 330
320 323 321 319 327 326 323 319 323 329 334 335 334 337 341 345 345 345 343 341 343 343 343 341 339 336 334 326 331 340 340 340 339 338 337 335 334 333 334 334 336 337 335 335 332 331 330 329 328
319 322 324 317 326 326 320 318 323 327 330 331 332 337 339 342 344 343 342 342 344 343 341 340 339 339 339 338 329 327 334 337 336 337 335 334 333 333 335 337 336 337 336 334 332 331 330 329 328
316 322 320 323 324 324 318 321 328 329 333 334 331 333 333 342 344 342 342 342 342 343 341 340 338 336 335 340 336 327 326 333 334 335 333 332 333 333 333 333 337 335 331 331 331 329 327 328 327
318 322 320 321 322 325 326 323 332 335 339 333 333 332 335 337 344 343 342 341 342 342 341 340 339 337 334 342 338 333 328 327 332 333 332 330 329 330 329 329 327 327 328 328 327 324 323 323 324
317 321 318 319 322 323 326 325 327 335 339 334 334 337 340 340 342 342 341 341 339 342 341 340 339 337 335 336 341 338 333 327 323 328 328 327 326 327 327 326 325 324 324 323 323 323 322 321 322
317 316 315 317 316 326 326 324 327 332 333 334 334 338 338 337 333 330 338 340 340 341 342 340 338 334 329 333 339 339 338 334 328 322 323 325 324 324 323 322 321 321 320 319 318 318 317 318 325
317 315 316 315 318 326 325 324 327 327 324 336 339 340 342 336 331 329 329 338 340 340 340 338 338 332 329 327 336 339 339 338 333 329 325 322 320 320 320 320 320 319 319 318 319 321 320 324 324
312 314 315 315 317 318 326 325 324 325 321 338 338 341 342 336 331 329 330 338 341 340 340 340 339 334 332 329 325 336 338 338 336 332 331 328 325 325 325 325 323 321 322 322 325 326 326 325 325
314 316 315 317 315 320 323 328 324 321 324 336 338 340 340 337 331 333 337 337 340 341 342 341 340 336 335 333 327 324 334 337 341 338 334 333 330 329 332 332 329 328 327 327 327 327 328 328 327
316 315 317 316 314 314 324 330 323 320 322 324 331 336 336 338 335 331 336 337 339 340 340 341 340 339 337 336 332 329 326 334 337 338 337 335 333 334 334 332 331 331 330 328 328 328 328 329 330
318 319 317 317 314 317 323 327 321 318 320 321 321 324 334 335 334 334 333 333 334 339 339 338 337 338 339 338 336 332 330 328 330 335 336 336 334 335 336 334 332 331 331 331 329 328 329 330 330
322 321 318 318 315 318 321 322 318 318 319 320 318 319 324 335 335 334 332 331 330 331 332 331 328 330 337 338 337 335 332 331 330 329 330 330 335 336 335 334 333 332 331 331 329 328 329 330 331
318 319 319 317 316 319 319 319 318 318 319 319 319 318 319 323 325 334 335 333 332 333 328 327 327 328 334 338 336 335 335 334 331 331 331 332 334 334 334 334 333 332 332 332 331 330 329 331 331
318 320 321 320 319 319 318 319 318 319 318 319 318 319 319 316 319 323 334 335 332 332 331 331 328 328 335 338 335 335 334 335 335 334 335 335 335 335 335 334 333 332 332 331 331 330 331 331 332
315 318 319 320 321 321 319 320 320 319 318 317 317 317 317 318 316 316 321 331 334 334 333 332 330 333 334 333 330 326 330 334 335 334 335 335 336 336 335 335 333 332 332 332 332 332 331 332 331
317 314 316 323 323 323 320 322 319 318 319 318 318 318 318 317 315 314 316 318 328 333 335 334 334 335 333 332 333 329 328 332 335 332 327 334 334 334 334 334 333 332 332 332 332 332 331 329 326
315 315 319 321 319 321 322 321 320 316 319 318 317 319 318 316 315 315 314 315 318 325 332 334 335 334 333 335 335 334 331 332 332 328 333 334 336 336 336 335 333 332 333 332 332 330 329 328 325
314 315 316 317 318 323 318 320 318 319 319 318 317 318 316 316 314 314 314 314 315 317 320 326 333 335 334 334 335 335 334 334 334 334 334 334 335 336 336 335 334 333 333 332 331 329 328 327 324
314 315 319 323 323 320 311 320 318 314 313 313 314 314 314 314 315 314 313 312 313 314 316 319 322 330 334 333 335 335 335 333 333 333 334 333 332 333 334 333 332 332 332 331 330 328 325 324 323
315 314 314 317 319 317 314 321 319 313 312 311 310 309 307 310 310 310 311 312 313 315 315 315 319 323 330 334 335 335 335 333 334 333 333 333 333 331 330 331 331 330 329 328 325 324 322 317 314
315 318 312 311 307 312 314 312 309 308 308 308 307 307 308 308 308 307 306 308 311 314 316 315 315 320 326 331 332 332 333 334 332 331 332 332 332 330 328 328 328 327 324 321 317 313 311 310 310
315 313 320 319 318 318 312 310 312 309 308 307 309 309 307 307 309 310 307 306 309 311 314 314 314 316 321 326 330 331 330 330 331 330 330 329 329 328 326 324 321 318 314 311 310 309 308 307 307
316 317 316 316 316 316 313 311 304 307 306 307 305 307 307 307 307 308 308 306 308 310 312 313 314 316 318 322 326 328 326 325 325 325 326 324 325 323 320 317 316 314 312 309 307 307 306 306 306
313 315 314 318 317 307 308 311 304 304 306 307 306 308 307 306 305 306 307 307 308 310 312 313 314 315 318 321 321 320 319 320 321 322 322 323 322 318 318 316 313 308 307 306 306 306 306 305 305

GFSSGP_925_thetae_108.txt.gz
Theta_e
319 322 325 328 338 334 334 334 334 336 339 337 334 339 341 341 344 349 343 344 344 346 348 346 343 343 340 343 343 337 344 343 342 343 345 345 344 343 341 343 343 341 337 339 342 341 338 338 339
318 320 324 329 335 337 333 329 333 334 336 335 333 339 340 341 341 346 345 345 345 347 347 346 343 341 340 343 342 337 342 343 343 343 344 345 343 341 340 341 338 337 336 337 337 337 338 338 338
318 319 325 330 332 334 332 328 330 331 333 334 335 337 338 341 345 344 345 345 346 347 346 345 342 338 340 343 342 337 340 343 343 343 344 343 342 339 338 338 335 337 336 337 337 336 336 336 336
315 318 323 329 331 330 327 327 329 330 331 333 335 340 345 345 345 345 345 345 346 346 345 344 340 332 343 344 342 340 342 342 343 343 343 342 339 338 337 336 336 336 337 336 335 336 335 333 329
316 319 321 328 326 328 325 325 327 329 333 333 335 342 344 345 346 346 345 345 346 346 345 344 338 329 343 344 343 341 342 342 343 343 342 339 338 337 337 334 335 336 336 335 336 335 333 330 322
317 318 321 324 327 324 326 326 325 327 330 335 338 340 342 345 346 345 345 345 345 345 344 343 337 327 343 343 342 342 341 342 343 342 340 338 337 336 336 335 335 336 334 333 334 333 331 329 327
317 319 321 320 324 323 326 326 322 325 329 333 335 340 339 345 346 345 344 344 344 344 344 342 338 332 342 342 343 343 342 342 341 340 338 337 334 334 335 337 336 336 334 332 332 331 330 329 327
317 318 320 320 324 325 324 323 324 324 329 331 335 339 341 339 346 344 343 344 344 344 343 341 338 331 339 341 341 342 342 341 340 339 337 335 333 334 336 336 337 337 336 332 331 330 329 328 328
316 318 321 322 322 324 321 325 323 323 331 334 334 334 335 337 344 343 342 343 343 343 343 341 337 335 331 336 340 339 339 339 338 336 335 333 332 334 335 334 336 336 335 332 331 330 329 328 328
317 318 319 319 321 322 323 324 324 323 329 335 335 334 337 342 343 343 342 342 342 342 342 341 337 337 336 333 331 334 338 338 337 334 333 330 331 333 334 335 335 336 335 332 330 328 326 326 328
316 318 319 319 319 320 322 322 324 325 328 332 335 336 335 331 330 341 341 340 340 341 341 341 338 338 342 337 331 329 330 332 333 333 331 331 332 333 333 334 334 334 331 332 330 325 327 326 326
316 318 318 318 319 317 322 320 324 326 328 331 332 334 335 334 331 326 329 338 340 341 341 340 339 338 340 340 336 332 329 329 332 332 331 331 332 332 332 331 332 331 330 330 329 327 326 325 326
319 318 317 317 318 317 319 324 324 326 329 329 332 334 336 334 330 327 328 326 333 340 340 340 340 338 338 341 340 339 333 329 327 330 330 330 330 330 330 330 329 328 327 325 324 323 322 323 327
317 317 318 316 315 316 320 324 325 325 326 327 335 336 334 333 331 328 327 327 326 339 340 340 340 336 334 338 339 339 337 334 331 328 328 327 327 327 326 326 326 325 325 324 325 326 326 328 327
317 319 318 317 316 316 315 325 327 324 324 328 336 336 336 332 330 328 327 328 327 340 339 339 339 336 331 331 338 340 339 338 336 333 332 329 328 329 329 328 328 327 327 327 328 329 329 329 328
317 318 322 318 316 315 316 327 326 323 325 331 333 336 339 335 331 329 328 329 333 338 339 339 338 337 334 332 330 335 339 339 337 337 334 334 333 331 334 334 332 331 330 330 329 330 330 330 330
318 320 321 317 317 318 318 325 325 322 326 330 333 336 336 335 332 331 331 330 333 339 340 340 339 339 337 336 333 331 332 337 338 337 338 337 335 333 335 335 334 333 332 331 331 330 330 331 332
320 319 317 319 317 318 319 320 323 322 325 327 329 332 333 335 333 331 331 333 333 337 338 340 340 340 340 338 336 334 333 332 332 335 338 338 337 336 337 337 336 334 334 333 332 330 330 331 332
319 319 316 319 317 319 319 318 320 320 325 326 325 327 330 334 332 333 333 332 333 333 332 335 337 340 340 338 337 336 335 334 333 333 332 334 335 337 337 337 336 335 334 333 333 331 331 332 333
321 321 322 320 318 319 320 319 320 320 324 324 323 323 327 328 331 334 333 332 332 332 332 330 334 337 336 336 336 336 337 337 336 335 334 334 334 335 337 337 336 335 334 333 333 331 332 333 333
321 321 322 321 320 319 321 322 321 320 322 322 321 321 320 325 331 333 334 333 327 332 331 332 333 337 336 337 335 330 329 330 333 336 336 335 334 335 335 335 336 335 334 332 331 332 333 333 331
319 317 319 322 323 325 320 325 323 320 324 324 325 323 322 321 320 325 330 333 328 332 331 329 329 333 333 333 331 331 328 328 332 331 333 333 330 332 333 333 333 333 332 332 331 331 332 331 329
318 318 318 321 321 320 322 322 324 320 320 323 325 324 323 322 320 320 319 324 333 331 329 333 329 330 329 329 327 327 330 328 327 329 330 327 325 331 330 332 333 332 332 331 331 331 332 330 328
317 320 321 321 321 323 318 321 317 322 323 322 322 322 324 323 321 320 319 318 320 327 332 334 333 331 330 331 329 331 331 329 329 327 328 327 327 327 331 333 333 332 332 332 331 332 331 329 324
318 319 322 321 324 320 316 322 317 317 318 317 318 320 319 321 321 320 319 317 317 319 321 329 334 334 333 333 333 330 332 331 332 328 330 329 330 331 332 333 332 332 332 332 332 331 329 328 325
317 318 319 317 318 319 317 322 318 316 316 316 315 315 314 315 319 319 318 319 317 318 319 321 326 333 334 334 333 333 332 333 332 332 332 332 331 330 331 332 331 333 332 332 331 330 328 327 324
319 320 316 318 313 319 318 317 314 312 313 314 313 311 313 313 316 316 314 316 317 317 318 319 322 326 331 333 334 333 332 332 332 331 331 330 330 330 330 331 331 330 330 329 328 325 324 322 317
315 315 321 322 322 318 315 314 315 313 312 311 313 313 312 312 315 315 313 311 312 313 316 316 318 323 327 330 331 331 331 332 331 331 329 330 329 328 328 327 327 327 326 324 322 318 314 311 310
313 315 317 316 320 318 315 314 309 311 312 312 311 312 312 314 315 315 313 311 310 311 313 314 316 319 324 328 328 327 327 328 329 326 326 327 327 326 325 325 323 319 316 313 310 309 308 308 308
312 313 315 319 319 316 314 314 309 311 312 310 310 311 311 311 312 314 313 312 311 313 314 315 316 318 320 322 324 324 322 324 322 323 324 324 325 324 323 320 317 313 312 309 307 306 306 307 307

GFSSGP_925_thetae_111.txt.gz
Theta_e
319 320 321 324 335 337 337 333 330 332 333 336 338 340 342 341 342 350 345 345 343 348 348 347 344 343 342 341 334 341 345 343 344 346 346 345 344 342 344 344 342 339 343 343 339 338 340 338 338
318 320 320 327 334 334 337 332 330 330 331 334 337 339 340 341 343 346 344 344 345 349 347 348 344 343 341 341 338 341 344 343 344 344 345 345 344 343 345 344 338 338 343 342 340 337 336 337 335
315 317 322 326 328 334 334 327 329 329 330 332 338 337 339 341 341 345 345 344 345 348 347 347 343 339 341 342 340 341 344 343 343 344 344 344 342 342 344 339 337 334 337 337 336 336 336 334 327
315 317 320 327 325 327 329 327 328 328 329 333 337 338 339 346 343 344 345 344 348 348 347 345 342 338 342 342 336 341 343 342 343 344 344 342 340 340 342 335 337 335 336 335 335 336 335 326 319
314 318 319 320 324 323 324 325 325 328 329 332 336 339 340 344 346 346 345 346 347 347 346 345 341 338 341 342 336 340 343 342 343 344 342 341 338 338 337 336 336 336 335 336 337 336 330 319 319
316 315 318 321 317 321 321 324 326 325 329 330 336 339 343 345 346 345 345 346 346 347 346 343 338 339 342 343 337 340 342 342 343 343 341 338 336 337 336 336 336 336 335 337 337 333 329 323 323
316 315 317 316 316 316 320 321 326 326 328 330 331 337 344 346 347 346 345 345 346 346 343 341 337 343 344 344 341 342 341 342 342 342 340 337 336 336 335 336 336 335 336 336 336 333 329 327 327
315 317 315 315 317 316 318 321 323 324 328 327 330 335 345 346 346 346 345 345 345 344 343 340 335 344 345 343 342 341 342 342 342 340 338 336 335 334 335 335 336 334 335 335 333 331 329 327 327
313 316 317 315 316 318 319 324 323 324 326 326 325 334 337 344 347 345 344 345 344 344 342 340 333 338 344 343 342 342 342 341 340 338 336 334 333 335 335 335 336 335 334 332 331 329 328 327 327
315 317 316 314 318 322 320 320 322 324 326 326 330 332 341 347 346 345 344 344 343 343 342 339 331 332 340 342 342 341 340 339 337 335 334 331 333 334 335 336 335 336 334 332 330 329 328 328 328
314 317 315 318 318 319 319 320 320 325 328 326 328 338 340 346 345 345 343 343 343 342 341 338 333 328 335 341 341 340 339 339 338 335 331 330 333 334 336 334 334 335 335 333 330 327 325 327 327
316 315 317 319 319 319 319 319 322 324 325 325 326 330 340 344 344 337 328 327 330 341 341 339 334 333 331 332 337 339 339 339 334 332 330 331 333 333 334 334 334 334 333 333 331 328 328 327 326
317 317 318 319 318 318 318 318 318 323 324 323 326 330 339 342 338 332 328 327 325 325 340 338 335 338 335 330 330 331 332 332 332 331 331 332 332 332 332 332 332 332 330 330 329 327 326 324 325
317 318 319 318 318 318 318 317 319 324 323 325 327 330 337 337 334 329 328 325 323 324 327 339 335 338 338 334 333 330 328 330 332 332 331 331 331 331 331 331 330 328 327 325 324 323 323 323 327
317 319 320 319 317 318 318 321 324 323 324 325 327 333 336 336 333 329 325 323 323 325 324 338 337 334 338 338 334 332 330 328 328 329 329 329 328 328 327 326 326 326 325 324 326 327 328 328 328
318 320 323 320 318 318 318 323 323 323 325 326 328 333 335 335 332 328 326 325 325 324 325 338 338 335 335 339 336 337 335 333 331 329 328 327 327 328 329 329 329 328 327 328 329 330 330 331 330
318 321 323 319 319 319 318 320 321 320 325 326 329 332 334 335 331 328 326 325 325 327 327 339 337 336 330 332 337 338 337 335 335 334 333 332 331 331 332 335 333 332 332 331 331 330 330 331 331
322 319 318 319 320 318 319 322 320 319 325 327 331 330 335 336 332 329 329 328 329 329 332 338 337 336 334 331 331 332 337 338 338 337 337 335 335 333 334 336 335 334 334 333 333 331 331 331 332
319 320 318 316 318 318 321 322 321 320 327 328 332 336 336 335 333 331 332 332 331 330 336 339 338 336 336 336 335 333 332 332 334 337 339 338 336 336 336 337 337 336 335 335 334 333 332 332 333
320 320 320 321 319 319 322 323 324 321 326 328 331 335 336 334 333 333 333 332 332 330 331 332 337 337 337 337 336 336 335 334 333 333 333 334 335 336 335 336 336 336 336 335 335 334 332 333 333
320 321 320 321 321 320 322 325 325 322 325 326 327 330 333 334 334 333 333 333 332 331 330 330 330 335 336 337 337 336 336 336 336 336 335 335 335 335 336 336 337 337 335 335 334 333 333 333 332
319 318 320 321 322 323 320 331 327 324 327 327 326 327 328 331 333 331 333 333 331 327 326 329 327 330 336 336 336 335 332 333 334 334 333 333 334 335 335 335 335 335 335 335 333 331 333 333 331
318 318 319 320 321 320 320 322 327 326 327 328 327 326 325 327 330 332 333 333 331 327 324 329 329 330 330 332 331 330 329 328 330 329 330 332 330 330 330 333 331 330 332 332 332 332 332 332 330
317 319 318 319 320 324 319 320 325 326 327 327 327 326 325 323 323 324 330 334 330 330 333 330 329 329 330 330 330 329 329 328 329 328 328 328 328 328 326 330 330 330 328 326 331 332 331 331 331
317 319 323 322 325 321 318 320 319 318 319 324 325 326 325 324 323 322 321 322 327 330 332 330 330 330 329 329 328 328 330 329 327 327 326 324 326 327 327 327 329 328 327 328 332 332 332 331 330
317 317 321 324 321 318 318 320 320 317 317 318 318 319 320 322 323 322 321 320 321 324 328 331 332 331 331 330 329 327 330 328 326 326 326 325 327 328 328 327 330 330 330 331 332 332 331 331 329
317 319 317 319 316 317 317 317 314 314 315 316 316 315 316 315 317 322 321 320 319 320 323 326 330 332 331 331 330 330 331 330 328 327 327 328 330 329 329 329 329 330 331 330 329 330 330 329 327
314 315 319 319 320 317 315 314 315 314 314 314 314 315 315 314 316 319 316 316 318 319 320 321 324 327 332 334 333 333 332 332 332 331 331 330 331 331 330 329 330 329 329 329 328 327 325 324 322
312 314 314 315 319 323 319 314 312 314 314 314 313 314 314 316 317 317 315 313 312 313 316 319 320 324 327 333 333 331 332 333 333 332 331 331 329 329 328 328 327 327 326 325 324 320 318 314 313
311 311 312 316 320 318 318 317 314 314 312 312 313 313 313 314 314 316 315 313 313 313 313 316 317 320 324 329 330 329 329 329 329 329 327 326 326 325 325 325 325 323 321 316 312 312 310 309 309

GFSSGP_925_thetae_114.txt.gz
Theta_e
317 319 321 322 335 337 335 332 329 329 329 331 332 334 337 338 341 346 347 345 351 349 344 343 338 337 338 336 342 345 342 343 345 346 345 345 344 344 344 343 340 343 339 339 342 341 340 340 338
316 318 321 325 331 333 329 327 328 328 328 327 331 332 334 338 344 344 346 345 350 348 346 345 339 337 338 335 338 345 343 343 345 345 344 343 342 344 344 341 341 344 339 339 340 337 337 331 330
315 318 322 325 326 328 326 324 326 327 326 326 328 332 334 340 343 344 345 346 349 349 347 346 341 337 339 335 336 343 342 342 344 344 343 342 341 344 343 337 342 342 338 336 335 336 331 324 319
314 316 320 323 324 322 323 323 324 324 326 326 327 332 337 345 344 344 345 347 348 348 347 346 342 338 340 339 335 342 343 343 343 344 343 341 342 343 340 335 339 338 337 335 336 336 325 319 315
312 316 318 321 321 319 319 320 320 323 325 325 327 333 340 345 345 345 345 349 348 347 348 345 341 339 341 341 336 343 343 342 343 342 342 340 340 340 337 334 334 335 335 335 336 332 320 317 317
315 314 316 317 316 315 317 317 318 320 322 324 325 336 338 346 346 345 346 348 347 347 347 344 341 340 340 341 335 343 343 343 343 342 342 340 340 338 334 335 334 335 335 336 336 329 320 320 321
314 316 315 315 314 314 313 315 320 321 320 323 325 328 344 345 346 345 347 348 347 346 345 343 340 339 341 341 335 342 342 342 342 342 340 337 337 335 335 335 335 333 337 335 334 329 324 324 325
314 315 316 315 313 313 312 313 316 318 319 321 322 330 338 345 345 345 346 347 347 345 343 341 340 340 342 341 337 341 342 341 342 341 339 337 335 335 335 336 334 334 336 334 334 328 326 327 327
314 316 316 314 315 313 311 319 317 318 320 322 324 326 325 334 345 345 345 346 345 343 341 338 341 343 344 342 340 341 341 342 342 339 337 335 335 335 334 335 334 333 334 334 332 329 326 325 326
315 315 314 313 313 313 316 319 319 319 319 320 324 324 324 332 343 345 345 345 344 342 340 336 341 344 343 342 341 342 342 342 339 338 335 334 333 333 334 334 334 332 333 331 330 328 327 326 325
314 315 314 314 315 317 319 318 318 320 320 320 323 325 328 329 341 344 345 345 343 342 340 335 338 343 343 342 342 342 341 339 337 336 332 333 334 334 334 334 335 333 331 330 329 328 327 328 329
314 314 314 315 317 318 318 317 316 316 317 318 319 322 327 330 329 344 343 330 331 331 338 334 333 342 342 342 341 341 339 337 336 332 332 332 334 335 335 334 334 333 334 332 329 325 326 327 326
317 315 316 316 317 318 317 317 317 316 315 319 321 322 326 327 324 343 332 327 328 333 329 330 329 335 340 341 341 340 338 338 337 329 331 332 333 336 334 333 333 333 332 334 330 329 328 326 326
318 318 317 317 318 318 317 316 317 316 317 321 322 324 326 325 322 330 329 327 327 329 331 327 330 330 333 338 339 339 338 336 334 329 331 333 333 334 334 334 333 333 330 330 329 327 324 322 324
316 319 319 319 319 319 317 318 316 316 319 324 325 327 327 326 322 331 329 328 329 330 332 328 326 333 330 331 332 333 333 332 332 331 331 332 332 332 332 332 331 330 328 325 324 324 324 324 327
317 317 321 319 320 318 319 319 316 321 321 325 326 327 328 329 331 330 326 325 328 329 328 328 327 334 332 332 329 329 330 332 332 331 331 331 331 331 330 329 327 326 325 324 326 328 328 329 328
318 320 320 321 320 320 320 320 320 322 324 326 326 327 329 332 331 328 327 326 325 328 328 326 327 335 336 334 330 330 328 328 329 330 329 328 328 327 327 327 327 327 326 328 328 329 330 330 330
325 325 320 321 321 320 320 320 317 321 324 325 325 326 332 334 331 328 326 325 325 325 326 327 327 334 335 334 334 334 332 330 330 328 327 327 328 329 330 334 332 331 331 331 330 330 330 331 331
319 319 319 317 319 320 320 318 320 321 321 323 324 326 333 333 330 329 327 326 325 327 327 327 327 334 332 335 335 335 334 334 333 334 333 332 332 331 333 336 335 334 333 334 333 332 331 331 332
318 320 321 320 319 318 319 320 321 321 321 324 326 329 333 332 331 330 330 329 330 331 330 333 331 332 330 331 332 335 336 336 336 334 336 335 335 335 334 336 336 336 335 335 335 334 332 331 332
318 321 320 321 320 319 320 322 321 323 321 324 327 329 330 332 333 332 331 331 331 331 330 329 330 333 332 332 332 332 332 332 333 333 336 336 336 337 336 334 335 336 335 335 335 334 333 333 333
319 319 318 318 320 325 320 321 325 324 322 326 325 329 332 333 332 331 330 331 331 330 328 326 328 331 333 333 334 334 334 335 334 333 333 333 334 334 335 336 336 335 334 334 334 333 332 333 332
317 317 317 318 319 319 320 319 328 324 326 326 325 326 329 331 331 329 329 331 329 329 328 326 325 327 329 332 333 333 334 335 335 335 334 335 335 335 334 333 333 333 332 334 332 332 332 331 331
314 316 317 317 320 319 318 318 324 325 326 327 325 324 326 327 329 328 327 331 329 324 326 326 325 325 328 329 329 330 330 330 330 332 332 331 330 329 327 327 332 330 328 329 330 328 329 331 331
315 316 317 317 315 317 317 318 319 316 319 324 323 325 323 324 324 324 329 332 329 324 326 328 326 326 326 329 328 329 329 328 329 329 329 328 327 327 327 327 326 326 327 327 329 329 330 329 330
314 317 321 325 325 324 317 322 314 313 314 319 320 318 321 322 320 322 321 324 328 328 328 330 329 327 325 325 327 328 329 329 329 328 327 327 325 324 325 324 324 324 324 327 329 327 328 331 331
314 315 314 321 316 316 315 313 311 312 312 313 315 316 314 313 318 320 319 320 322 325 329 330 329 328 328 329 328 328 329 330 329 327 326 326 326 325 327 326 326 327 324 328 330 330 330 332 331
313 314 317 317 314 317 313 312 315 313 312 312 312 312 313 315 315 314 315 316 318 320 324 329 330 330 329 329 329 328 329 329 329 329 329 327 324 325 325 325 327 326 326 329 330 330 330 329 327
313 312 313 314 316 322 323 319 312 311 310 311 311 312 313 314 315 314 312 312 311 314 320 323 327 329 329 329 329 329 329 329 330 330 328 324 327 328 328 327 327 328 328 329 327 328 327 326 324
309 310 310 312 312 315 320 318 311 310 311 312 311 311 311 312 313 313 312 312 312 312 316 318 319 323 326 330 332 332 332 333 332 331 330 330 330 329 329 329 327 325 326 326 325 324 323 320 316

GFSSGP_925_thetae_117.txt.gz
Theta_e
316 317 321 322 330 333 331 327 327 326 326 326 328 330 334 334 338 342 346 347 348 344 341 338 338 339 344 345 345 344 344 345 346 344 345 344 344 344 343 341 343 342 341 343 342 339 340 340 338
316 318 320 321 327 328 317 322 324 326 325 323 324 328 329 330 342 344 344 348 348 345 342 339 335 337 340 345 345 342 342 344 345 343 344 343 344 344 341 337 341 339 343 341 340 339 337 335 334
314 317 318 321 323 325 320 320 320 322 320 321 323 323 329 331 342 344 346 349 348 347 345 341 335 334 335 343 344 343 342 344 344 344 343 342 343 344 338 342 339 336 339 337 337 333 326 329 325
313 314 317 322 322 321 320 318 317 318 318 321 321 323 324 342 343 345 349 349 348 346 345 344 337 333 332 338 344 342 342 344 344 344 342 341 342 341 337 342 340 335 335 333 335 325 319 315 323
313 313 317 318 317 317 315 315 316 317 317 318 321 324 324 333 343 346 349 348 347 346 344 342 339 334 332 335 343 342 341 343 343 343 341 340 342 338 336 340 338 334 333 336 333 320 315 318 327
311 311 316 315 314 313 312 312 315 316 316 317 320 324 323 336 344 347 348 348 347 346 345 342 341 341 334 332 341 342 342 343 343 342 341 341 342 338 335 337 336 335 333 335 331 318 317 321 327
313 314 311 313 313 312 311 309 310 314 316 317 320 323 322 323 335 345 347 347 347 347 346 343 340 341 339 332 340 342 343 342 342 342 341 340 339 336 333 334 334 334 335 334 324 320 321 322 326
314 315 314 314 313 313 310 309 309 311 315 316 320 324 328 331 328 329 345 346 347 346 345 343 339 342 340 338 340 342 343 342 342 341 340 339 337 335 334 334 333 336 334 330 325 324 325 325 326
313 317 314 313 314 314 311 311 312 315 317 316 319 321 322 323 323 324 327 345 345 344 344 342 339 339 340 339 340 342 342 342 342 341 339 337 335 334 334 333 333 336 333 332 327 326 326 325 325
314 317 314 312 312 312 311 313 316 318 317 318 318 317 319 322 327 326 325 344 344 343 342 340 338 338 341 339 341 341 341 342 341 338 337 335 334 333 334 332 333 335 334 332 328 326 325 325 324
313 314 313 312 312 312 316 316 316 319 320 318 318 317 319 322 325 328 327 342 342 341 339 339 338 339 343 341 342 342 342 342 339 337 335 334 333 332 333 333 332 333 332 330 328 326 325 327 325
314 314 313 312 312 313 314 316 317 317 317 316 317 318 319 322 322 325 325 336 341 338 337 339 342 342 342 341 342 342 340 339 337 335 333 335 332 332 333 333 333 332 330 329 328 326 327 327 327
316 316 314 314 315 314 317 318 317 315 314 315 315 317 320 320 320 323 324 324 338 331 332 335 342 342 342 341 340 339 339 338 335 335 332 332 333 332 333 334 333 333 331 328 327 323 326 326 326
317 318 317 315 315 316 318 318 316 316 314 315 315 317 321 322 324 324 324 324 332 331 330 330 335 341 341 340 340 339 339 336 336 332 332 334 334 334 333 333 333 333 331 332 329 329 328 326 325
316 318 317 318 317 318 318 320 319 315 314 315 315 320 322 324 326 324 325 327 331 331 330 329 329 333 338 340 339 339 338 336 335 331 331 333 333 334 333 332 333 331 332 332 330 328 324 322 323
317 316 318 317 319 318 317 320 316 317 320 320 324 325 326 326 325 323 328 328 328 328 331 330 330 331 332 338 339 338 338 335 330 330 331 334 334 334 331 332 333 332 330 327 325 324 323 325 327
318 317 318 318 316 320 318 319 316 316 321 321 324 325 326 328 330 324 324 325 324 328 329 330 330 330 332 330 336 337 332 334 329 331 332 333 332 332 332 332 330 328 327 324 324 328 328 328 329
323 321 321 322 320 320 320 319 318 317 320 323 323 323 324 332 332 328 326 326 325 327 328 328 329 331 331 330 333 331 332 332 331 331 331 331 331 331 331 329 326 326 325 326 326 328 329 330 330
319 318 320 320 319 321 321 320 318 315 320 320 321 322 325 331 330 328 327 325 325 326 326 328 329 332 332 330 329 328 329 331 331 330 329 329 329 329 327 326 327 327 328 329 329 330 330 330 331
317 318 321 323 319 319 318 319 317 318 320 319 321 321 330 331 330 328 327 327 327 327 327 328 330 332 333 331 331 329 328 328 329 329 328 327 327 326 329 333 332 331 332 332 332 331 331 330 331
315 319 320 320 317 318 319 319 319 319 321 321 320 327 330 330 331 330 329 329 329 329 329 331 329 330 332 334 333 332 331 331 331 328 328 328 328 330 333 336 335 333 334 334 334 333 333 331 331
317 316 316 317 317 319 320 322 321 322 323 322 323 329 330 329 330 330 330 330 330 330 329 328 331 332 332 332 332 332 332 333 333 334 333 333 333 332 333 335 336 336 335 335 335 334 333 332 332
315 314 314 316 316 316 317 321 322 325 326 325 325 328 329 330 331 330 330 330 329 328 327 326 331 331 331 330 331 330 330 331 334 333 335 335 336 335 335 334 335 335 335 334 333 332 331 332 332
313 314 314 315 317 314 318 321 320 317 323 325 321 323 328 330 329 327 328 329 329 327 326 324 328 329 328 328 326 327 327 331 331 333 333 334 335 334 335 336 335 334 333 332 331 330 329 329 329
312 313 308 313 309 314 315 317 314 312 322 321 320 318 325 326 329 327 329 327 326 326 327 324 326 327 328 328 326 327 328 328 329 331 333 334 334 333 332 329 330 332 328 327 327 327 326 327 329
312 315 319 322 323 319 316 314 314 310 312 319 320 318 319 322 324 325 326 328 327 324 325 326 325 326 326 328 327 327 328 328 329 329 329 330 331 329 327 327 328 329 328 326 326 326 327 326 326
311 312 313 319 319 319 314 313 310 311 310 313 317 317 316 316 315 320 321 324 327 327 325 328 326 325 326 325 327 325 325 326 328 327 328 328 327 327 327 326 326 326 325 326 325 328 329 329 328
312 311 311 310 315 322 317 316 316 312 311 311 313 314 314 316 314 313 312 314 320 326 328 328 327 326 325 325 325 323 324 324 325 326 327 326 326 326 325 325 326 326 328 328 326 326 327 329 329
309 309 310 305 313 321 319 319 313 310 309 310 309 310 311 313 313 312 310 311 311 315 320 327 329 327 326 326 326 325 325 326 326 326 325 327 326 326 326 327 327 327 327 326 325 325 326 327 329
307 307 306 305 309 316 313 319 312 311 307 308 308 308 308 308 310 312 311 312 313 312 316 322 326 328 328 326 326 325 325 327 328 327 326 327 327 327 325 327 326 324 325 324 326 326 325 326 326